[[{"header":{"parameterUnit":"m.s-1","parameterCategory":1,"la1":31.0,"la2":29.5877,"lo1":-88.7671,"lo2":-86.6584,"dx":0.0162,"dy":0.0185,"nx":115,"ny":88,"refTime":"2023-01-03T18:00:00:Z","depth":0,"parameterNumber":2,"parameterNumberName":"U-component_of_WINDS"},"data":[0.0,0.0,0.0,0.0,0.0,0.0,0.0,0.0,0.0,0.0,0.0,0.0,0.0,0.0,0.0,0.0,0.0,0.0,0.0,0.0,0.0,0.0,0.0,0.0,0.0,0.0,0.0,0.0,0.0,0.0,0.0,0.0,0.0,0.0,0.0,0.0,0.0,0.0,0.0,0.0,0.0,0.0,0.0,0.0,0.0,0.0,0.0,0.0,0.0,0.0,0.0,0.0,0.0,0.0,0.0,0.0,0.0,0.0,0.0,0.0,0.0,0.0,0.0,0.0,0.0,0.0,0.0,0.0,0.0,0.0,0.0,0.0,0.0,0.0,0.0,0.0,0.0,0.0,0.0,0.0,0.0,0.0,0.0,0.0,0.0,0.0,0.0,0.0,0.0,0.0,0.0,0.0,0.0,0.0,0.0,0.0,0.0,0.0,0.0,0.0,0.0,0.0,0.0,0.0,0.0,0.0,0.0,0.0,0.0,0.0,0.0,0.0,0.0,0.0,0.0,0.0,0.0,0.0,0.0,0.0,0.0,0.0,0.0,0.0,0.0,0.0,0.0,0.0,0.0,0.0,0.0,0.0,0.0,0.0,0.0,0.0,0.0,0.0,0.0,0.0,0.0,0.0,0.0,0.0,0.0,0.0,0.0,0.0,0.0,0.0,0.0,0.0,0.0,0.0,0.0,0.0,0.0,0.0,0.0,0.0,0.0,0.0,0.0,0.0,0.0,0.0,0.0,0.0,0.0,0.0,0.0,0.0,0.0,0.0,0.0,0.0,0.0,0.0,0.0,0.0,0.0,0.0,0.0,0.0,0.0,0.0,0.0,0.0,0.0,0.0,0.0,0.0,0.0,0.0,0.0,0.0,0.0,0.0,0.0,0.0,0.0,0.0,0.0,0.0,0.0,0.0,0.0,0.0,0.0,0.0,0.0,0.0,0.0,0.0,0.0,0.0,0.0,0.0,0.0,0.0,0.0,0.0,0.0,0.0,0.0,0.0,0.0,0.0,0.0,0.0,0.0,0.0,0.0,0.0,0.0,0.0,0.0,0.0,0.0,0.0,0.0,0.0,0.0,0.0,0.0,0.0,0.0,0.0,0.0,0.0,0.0,0.0,0.0,0.0,0.0,0.0,0.0,0.0,0.0,0.0,0.0,0.0,0.0,0.0,0.0,0.0,0.0,0.0,0.0,0.0,0.0,0.0,0.0,0.0,0.0,0.0,0.0,0.0,0.0,0.0,0.0,0.0,0.0,0.0,0.0,0.0,0.0,0.0,0.0,0.0,0.0,0.0,0.0,0.0,0.0,0.0,0.0,0.0,0.0,0.0,0.0,0.0,0.0,0.0,0.0,0.0,0.0,0.0,0.0,0.0,0.0,0.0,0.0,0.0,0.0,0.0,0.0,0.0,0.0,0.0,0.0,0.0,0.0,0.0,0.0,0.0,0.0,0.0,0.0,0.0,0.0,0.0,0.0,0.0,0.0,0.0,0.0,0.0,0.0,0.0,0.0,0.0,0.0,0.0,0.0,0.0,0.0,0.0,0.0,0.0,0.0,0.0,0.0,0.0,0.0,0.0,0.0,0.0,0.0,0.0,0.0,0.0,0.0,0.0,0.0,0.0,0.0,0.0,0.0,0.0,0.0,0.0,0.0,0.0,0.0,0.0,0.0,0.0,0.0,0.0,0.0,0.0,0.0,0.0,0.0,0.0,0.0,0.0,0.0,0.0,0.0,0.0,0.0,0.0,0.0,0.0,0.0,0.0,0.0,0.0,0.0,0.0,0.0,0.0,0.0,0.0,0.0,0.0,0.0,0.0,0.0,0.0,0.0,0.0,0.0,0.0,0.0,0.0,0.0,0.0,0.0,0.0,0.0,0.0,0.0,0.0,0.0,0.0,0.0,0.0,0.0,0.0,0.0,0.0,0.0,0.0,0.0,0.0,0.0,0.0,0.0,0.0,0.0,0.0,0.0,0.0,0.0,0.0,0.0,0.0,0.0,0.0,0.0,0.0,0.0,0.0,0.0,0.0,0.0,0.0,0.0,0.0,0.0,0.0,0.0,0.0,0.0,0.0,0.0,0.0,0.0,0.0,0.0,0.0,0.0,0.0,0.0,0.0,0.0,0.0,0.0,0.0,0.0,0.0,0.0,0.0,0.0,0.0,0.0,0.0,0.0,0.0,0.0,0.0,0.0,0.0,0.0,0.0,0.0,0.0,0.0,0.0,0.0,0.0,0.0,0.0,0.0,0.0,0.0,0.0,0.0,0.0,0.0,0.0,0.0,0.0,0.0,0.0,0.0,0.0,0.0,0.0,0.0,0.0,0.0,0.0,0.0,0.0,0.0,0.0,0.0,0.0,0.0,0.0,0.0,0.0,0.0,0.0,0.0,0.0,0.0,0.0,0.0,0.0,0.0,0.0,0.0,0.0,0.0,0.0,0.0,0.0,0.0,0.0,0.0,0.0,0.0,0.0,0.0,0.0,0.0,0.0,0.0,0.0,0.0,0.0,0.0,0.0,0.0,0.0,0.0,0.0,0.0,0.0,0.0,0.0,0.0,0.0,0.0,0.0,0.0,0.0,0.0,0.0,0.0,0.0,0.0,0.0,0.0,0.0,0.0,0.0,0.0,0.0,0.0,0.0,0.0,0.0,0.0,0.0,0.0,0.0,0.0,0.0,0.0,0.0,0.0,0.0,0.0,0.0,0.0,0.0,0.0,0.0,0.0,0.0,0.0,0.0,0.0,0.0,0.0,0.0,0.0,0.0,0.0,0.0,0.0,0.0,0.0,0.0,0.0,0.0,0.0,0.0,0.0,0.0,0.0,0.0,0.0,0.0,0.0,0.0,0.0,0.0,0.0,0.0,0.0,0.0,0.0,0.0,0.0,0.0,0.0,0.0,0.0,0.0,0.0,0.0,0.0,0.0,0.0,0.0,0.0,0.0,0.0,0.0,0.0,0.0,0.0,0.0,0.0,0.0,0.0,0.0,0.0,0.0,0.0,0.0,0.0,0.0,0.0,0.0,0.0,0.0,0.0,0.0,0.0,0.0,0.0,0.0,0.0,0.0,0.0,0.0,0.0,0.0,0.0,0.0,0.0,0.0,0.0,0.0,0.0,0.0,0.0,0.0,0.0,0.0,0.0,0.0,0.0,0.0,0.0,0.0,0.0,0.0,0.0,0.0,0.0,0.0,0.0,0.0,0.0,0.0,0.0,0.0,0.0,0.0,0.0,0.0,0.0,0.0,0.0,0.0,0.0,0.0,0.0,0.0,0.0,0.0,0.0,0.0,0.0,0.0,0.0,0.0,0.0,0.0,0.0,0.0,0.0,0.0,0.0,0.0,0.0,0.0,0.0,0.0,0.0,0.0,0.0,0.0,0.0,0.0,0.0,0.0,0.0,0.0,0.0,0.0,0.0,0.0,0.0,0.0,0.0,0.0,0.0,0.0,0.0,0.0,0.0,0.0,0.0,0.0,0.0,0.0,0.0,0.0,0.0,0.0,0.0,0.0,0.0,0.0,0.0,0.0,0.0,0.0,0.0,0.0,0.0,0.0,0.0,0.0,0.0,0.0,0.0,0.0,0.0,0.0,0.0,0.0,0.0,0.0,0.0,0.0,0.0,0.0,0.0,0.0,0.0,0.0,0.0,0.0,0.0,0.0,0.0,0.0,0.0,0.0,0.0,0.0,0.0,0.0,0.0,0.0,0.0,0.0,0.0,0.0,0.0,0.0,0.0,0.0,0.0,0.0,0.0,0.0,0.0,0.0,0.0,0.0,0.0,0.0,0.0,0.0,0.0,0.0,0.0,0.0,0.0,0.0,0.0,0.0,0.0,0.0,0.0,0.0,0.0,0.0,0.0,0.0,0.0,0.0,0.0,0.0,0.0,0.0,0.0,0.0,0.0,0.0,0.0,0.0,0.0,0.0,0.0,0.0,0.0,0.0,0.0,0.0,0.0,0.0,0.0,0.0,0.0,0.0,0.0,0.0,0.0,0.0,0.0,0.0,0.0,0.0,0.0,0.0,0.0,0.0,0.0,0.0,0.0,0.0,0.0,0.0,0.0,0.0,0.0,0.0,0.0,0.0,0.0,0.0,0.0,0.0,0.0,0.0,0.0,0.0,0.0,0.0,0.0,0.0,0.0,0.0,0.0,0.0,0.0,0.0,0.0,0.0,0.0,0.0,0.0,0.0,0.0,0.0,0.0,0.0,0.0,0.0,0.0,0.0,0.0,0.0,0.0,0.0,0.0,0.0,0.0,0.0,0.2866,0.0,0.0,0.0,-0.0157,0.0,0.0,0.0,0.0,0.0,0.0,0.0,0.0,0.0,0.0,0.0,0.0,0.0,0.0,0.0,0.0,0.0,0.0,0.0,0.0,0.0,0.0,0.0,0.0,0.0,0.0,0.0,0.0,0.0,0.0,0.0,0.0,0.0,0.0,0.0,0.0,0.0,0.0,0.0,0.0,0.0,0.0,0.0,0.0,0.0,0.0,0.0,0.0,0.0,0.0,0.0,0.0,0.0,0.0,0.0,0.0,0.0,0.0,0.0,0.0,0.0,0.0,0.0,0.0,0.0,0.0,0.0,0.0,0.0,0.0,0.0,0.0,0.0,0.0,0.0,0.0,0.0,0.0,0.0,0.0,0.0,0.0,0.0,0.0,0.0,0.0,0.0,0.0,0.0,0.0,0.0,0.0,0.0,0.0,0.0,0.0,0.0,0.0,0.0,0.0,0.0,0.0,0.0,0.0,0.0,0.0,0.0,0.0,0.0,0.0,0.2577,0.1852,0.1012,0.0235,-0.047,0.0,0.0,0.0,0.0,0.0,0.0,0.0,0.0,0.0,0.0,0.0,0.0,0.0,0.0,0.0,0.0,0.0,0.0,0.0,0.0,0.0,0.0,0.0,0.0,0.0,0.0,0.0,0.0,0.0,0.0,0.0,0.0,0.0,0.0,0.0,0.0,0.0,0.0,0.0,0.0,0.0,0.0,0.0,0.0,0.0,0.0,0.0,0.0,0.0,0.0,0.0,0.0,0.0,0.0,0.0,0.0,0.0,0.0,0.0,0.0,0.0,0.0,0.0,0.0,0.0,0.0,0.0,0.0,0.0,0.0,0.0,0.0,0.0,0.0,0.0,0.0,0.0,0.0,0.0,0.0,0.0,0.0,0.0,0.0,0.0,0.0,0.0,0.0,0.0,0.0,0.0,0.0,0.0,0.0,0.0,0.0,0.0,0.0,0.0,0.0,0.0,0.0,0.0,0.0,0.0,0.0,0.0,0.0,0.0,0.0,0.0,0.0,0.0711,-0.0237,-0.1186,0.0,0.0,0.0,0.0,0.0,0.0,0.0,0.0,0.0,0.0,0.0,0.0,0.0,0.0,0.0,0.0,0.0,0.0,0.0,0.0,0.0,0.0,0.0,0.0,0.0,0.0,0.0,0.0,0.0,0.0,0.0,0.0,0.0,0.0,0.0,0.0,0.0,0.0,0.0,0.0,0.0,0.0,0.0,0.0,0.0,0.0,0.0,0.0,0.0,0.0,0.0,0.0,0.0,0.0,0.0,0.0,0.0,0.0,0.0,0.0,0.0,0.0,0.0,0.0,0.0,0.0,0.0,0.0,0.0,0.0,0.0,0.0,0.0,0.0,0.0,0.0,0.0,0.0,0.0,0.0,0.0,0.0,0.0,0.0,0.0,0.0,0.0,0.0,0.0,0.0,0.0,0.0,0.0,0.0,0.0,0.0,0.0,0.0,0.0,0.0,0.0,0.0,0.0,0.0,0.0,0.0,0.0,0.0,0.0,0.0,0.2139,0.1455,0.0404,0.0,-0.2912,0.0,0.0,0.0,0.0,0.0,0.0,0.0,0.0,0.0,0.0,0.0,0.0,0.0,0.0,0.0,0.0,0.0,0.0,0.0,0.0,0.0,0.0,0.0,0.0,0.0,0.0,0.0,0.0,0.0,0.0,0.0,0.0,0.0,0.0,0.0,0.0,0.0,0.0,0.0,0.0,0.0,0.0,0.0,0.0,0.0,0.0,0.0,0.0,0.0,0.0,0.0,0.0,0.0,0.0,0.0,0.0,0.0,0.0,0.0,0.0,0.0,0.0,0.0,0.0,0.0,0.0,0.0,0.0,0.0,0.0,0.0,0.0,0.0,0.0,0.0,0.0,0.0,0.0,0.0,0.0,0.0,0.0,0.0,0.0,0.0,0.0,0.0,0.0,0.0,0.0,0.0,0.0,0.0,0.0,0.0,0.0,0.0,0.0,0.0,0.0,0.0,0.0,0.0,0.0,0.0,0.0,0.0,0.0,0.0,0.0,0.1769,0.0162,-0.0974,-0.2192,0.0,0.0,0.0,0.0,0.0,0.0,0.0,0.0,0.0,0.0,0.0,0.0,0.0,0.0,0.0,0.0,0.0,0.0,0.0,0.0,0.0,0.0,0.0,0.0,0.0,0.0,0.0,0.0,0.0,0.0,0.0,0.0,0.0,0.0,0.0,0.0,0.0,0.0,0.0,0.0,0.0,0.0,0.0,0.0,0.0,0.0,0.0,0.0,0.0,0.0,0.0,0.0,0.0,0.0,0.0,0.0,0.0,0.0,0.0,0.0,0.0,0.0,0.0,0.0,0.0,0.0,0.0,0.0,0.0,0.0,0.0,0.0,0.0,0.0,0.0,0.0,0.0,0.0,0.0,0.0,0.0,0.0,0.0,0.0,0.0,0.0,0.0,0.0,0.0,0.0,0.0,0.0,0.0,0.0,0.0,0.0,0.0,0.0,0.0,0.0,0.0,0.0,0.0,0.0,0.0,0.0,0.0,0.0,0.0,0.0,0.2324,0.1466,-0.0655,-0.2212,-0.3272,-0.3984,0.0,0.0,0.0,0.0,0.0,0.0,0.0,0.0,0.0,0.0,0.0,0.0,0.0,0.0,0.0,0.0,0.0,0.0,0.0,0.0,0.0,0.0,0.0,0.0,0.0,0.0,0.0,0.0,0.0,0.0,0.0,0.0,0.0,0.0,0.0,0.0,0.0,0.0,0.0,0.0,0.0,0.0,0.0,0.0,0.0,0.0,0.0,0.0,0.0,0.0,0.0,0.0,0.0,0.0,0.0,0.0,0.0,0.0,0.0,0.0,0.0,0.0,0.0,0.0,0.0,0.0,0.0,0.0,0.0,0.0,0.0,0.0,0.0,0.0,0.0,0.0,0.0,0.0,0.0,0.0,0.0,0.0,0.0,0.0,0.0,0.0,0.0,0.0,0.0,0.0,0.0,0.0,0.0,0.0,0.0,0.0,0.0,0.0,0.0,0.0,0.0,0.0,0.0,0.0,0.0,0.0,0.0,0.0,0.2917,0.2463,0.1148,-0.0919,-0.2765,-0.3902,0.0,0.0,0.0,0.0,0.0,0.0,0.0,0.0,0.0,0.0,0.0,0.0,0.0,0.0,0.0,0.0,0.0,0.0,0.0,0.0,0.0,0.0,0.0,0.0,0.0,0.0,0.0,0.0,0.0,0.0,0.0,0.0,0.0,0.0,0.0,0.0,0.0,0.0,0.0,0.0,0.0,0.0,0.0,0.0,0.0,0.0,0.0,0.0,0.0,0.0,0.0,0.0,0.0,0.0,0.0,0.0,0.0,0.0,0.0,0.0,0.0,0.0,0.0,0.0,0.0,0.0,0.0,0.0,0.0,0.0,0.0,0.0,0.0,0.0,0.0,0.0,0.0,0.0,0.0,0.0,0.0,0.0,0.0,0.0,0.0,0.0,0.0,0.0,0.0,0.0,0.0,0.0,0.0,0.0,0.0,0.0,0.0,0.0,0.0,0.0,0.0,0.0,0.0,0.0,0.0,0.0,0.0,0.0,0.0,0.2046,0.0804,-0.0246,-0.1171,-0.2532,-0.3846,0.0,0.0,0.0,0.0,0.0,0.0,0.0,0.0,0.0,0.0,0.0,0.0,0.0,0.0,0.0,0.0,0.0,0.0,0.0,0.0,0.0,0.0,0.0,0.0,0.0,0.0,0.0,0.0,0.0,0.0,0.0,0.0,0.0,0.0,0.0,0.0,0.0,0.0,0.0,0.0,0.0,0.0,0.0,0.0,0.0,0.0,0.0,0.0,0.0,0.0,0.0,0.0,0.0,0.0,0.0,0.0,0.0,0.0,0.0,0.0,0.0,0.0,0.0,0.0,0.0,0.0,0.0,0.0,0.0,0.0,0.0,0.0,0.0,0.0,0.0,0.0,0.0,0.0,0.0,0.0,0.0,0.0,0.0,0.0,0.0,0.0,0.0,0.0,0.0,0.0,0.0,0.0,0.0,0.0,0.0,0.0,0.0,0.0,0.0,0.0,0.0,0.0,0.0,0.0,0.0,0.0,0.0,0.0,0.0,0.1239,-0.0162,-0.1245,-0.1985,-0.306,-0.4311,0.0,0.0,0.0,0.0,0.0,0.0,0.0,0.0,0.0,0.0,0.0,0.0,0.0,0.0,0.0,0.0,0.0,0.0,0.0,0.0,0.0,0.0,0.0,0.0,0.0,0.0,0.0,0.0,0.0,0.0,0.0,0.0,0.0,0.0,0.0,0.0,0.0,0.0,0.0,0.0,0.0,0.0,0.0,0.0,0.0,0.0,0.0,0.0,0.0,0.0,0.0,0.0,0.0,0.0,0.0,0.0,0.0,0.0,0.0,0.0,0.0,0.0,0.0,0.0,0.0,0.0,0.0,0.0,0.0,0.0,0.0,0.0,0.0,0.0,0.0,0.0,0.0,0.0,0.0,0.0,0.0,0.0,0.0,0.0,0.0,0.0,0.0,0.0,0.0,0.0,0.0,0.0,0.0,0.0,0.0,0.0,0.0,0.0,0.0,0.0,0.0,0.0,0.0,0.0,0.0,0.0,0.0,0.0,0.2247,0.081,-0.0254,-0.1606,-0.3318,-0.4366,-0.5401,0.0,0.0,0.0,0.0,0.0,0.0,0.0,0.0,0.0,0.0,0.0,0.0,0.0,0.0,0.0,0.0,0.0,0.0,0.0,0.0,0.0,0.0,0.0,0.0,0.0,0.0,0.0,0.0,0.0,0.0,0.0,0.0,0.0,0.0,0.0,0.0,0.0,0.0,0.0,0.0,0.0,0.0,0.0,0.0,0.0,0.0,0.0,0.0,0.0,0.0,0.0,0.0,0.0,0.0,0.0,0.0,0.0,0.0,0.0,0.0,0.0,0.0,0.0,0.0,0.0,0.0,0.0,0.0,0.0,0.0,0.0,0.0,0.0,0.0,0.0,0.0,0.0,0.0,0.0,0.0,0.0,0.0,0.0,0.0,0.0,0.0,0.0,0.0,0.0,0.0,0.0,0.0,0.0,0.0,0.0,0.0,0.0,0.0,0.0,0.0,0.0,0.0,0.0,0.0,0.0,0.0,0.0,0.0,0.0,0.0317,-0.0994,-0.2438,-0.4129,-0.4893,-0.5931,0.0,0.0,0.0,0.0,0.0,0.0,0.0,0.0,0.0,0.0,0.0,0.0,0.0,0.0,0.0,0.0,0.0,0.0,0.0,0.0,0.0,0.0,0.0,0.0,0.0,0.0,0.0,0.0,0.0,0.0,0.0,0.0,0.0,0.0,0.0,0.0,0.0,0.0,0.0,0.0,0.0,0.0,0.0,0.0,0.0,0.0,0.0,0.0,0.0,0.0,0.0,0.0,0.0,0.0,0.0,0.0,0.0,0.0,0.0,0.0,0.0,0.0,0.0,0.0,0.0,0.0,0.0,0.0,0.0,0.0,0.0,0.0,0.0,0.0,0.0,0.0,0.0,0.0,0.0,0.0,0.0,0.0,0.0,0.0,0.0,0.0,0.0,0.0,0.0,0.0,0.0,0.0,0.0,0.0,0.0,0.0,0.0,0.0,0.0,0.0,0.0,0.0,0.0,0.0,0.0,0.0,0.0,0.0,0.0,-0.1222,-0.221,-0.3703,-0.5661,-0.6009,-0.6777,-0.7921,0.0,0.0,0.0,0.0,0.0,0.0,0.0,0.0,0.0,0.0,0.0,0.0,0.0,0.0,0.0,0.0,0.0,0.0,0.0,0.0,0.0,0.0,0.0,0.0,0.0,0.0,0.0,0.0,0.0,0.0,0.0,0.0,0.0,0.0,0.0,0.0,0.0,0.0,0.0,0.0,0.0,0.0,0.0,0.0,0.0,0.0,0.0,0.0,0.0,0.0,0.0,0.0,0.0,0.0,0.0,0.0,0.0,0.0,0.0,0.0,0.0,0.0,0.0,0.0,0.0,0.0,0.0,0.0,0.0,0.0,0.0,0.0,0.0,0.0,0.0,0.0,0.0,0.0,0.0,0.0,0.0,0.0,0.0,0.0,0.0,0.0,0.0,0.0,0.0,0.0,0.0,0.0,0.0,0.0,0.0,0.0,0.0,0.0,0.0,0.0,0.0,0.0,0.0,0.0,0.0,0.0,0.0,0.0,-0.3729,-0.3976,-0.5245,-0.7726,-0.7688,-0.7877,0.0,0.0,0.0,0.0,0.0,0.0,0.0,0.0,0.0,0.0,0.0,0.0,0.0,0.0,0.0,0.0,0.0,0.0,0.0,0.0,0.0,0.0,0.0,0.0,0.0,0.0,0.0,0.0,0.0,0.0,0.0,0.0,0.0,0.0,0.0,0.0,0.0,0.0,0.0,0.0,0.0,0.0,0.0,0.0,0.0,0.0,0.0,0.0,0.0,0.0,0.0,0.0,0.0,0.0,0.0,0.0,0.0,0.0,0.0,0.0,0.0,0.0,0.0,0.0,0.0,0.0,0.0,0.0,0.0,0.0,0.0,0.0,0.0,0.0,0.0,0.0,0.0,0.0,0.0,0.0,0.0,0.0,0.0,0.0,0.0,0.0,0.0,0.0,0.0,0.0,0.0,0.0,0.0,0.0,0.0,0.0,0.0,0.0,0.0,0.0,0.0,0.0,0.0,0.0,0.0,0.0,0.0,0.0,0.0,-0.5958,-0.6852,-0.7757,-0.8935,-0.9425,-0.9609,0.0,0.0,0.0,0.0,0.0,0.0,0.0,0.0,0.0,0.0,0.0,0.0,0.0,0.0,0.0,0.0,0.0,0.0,0.0,0.0,0.0,0.0,0.0,0.0,0.0,0.0,0.0,0.0,0.0,0.0,0.0,0.0,0.0,0.0,0.0,0.0,0.0,0.0,0.0,0.0,0.0,0.0,0.0,0.0,0.0,0.0,0.0,0.0,0.0,0.0,0.0,0.0,0.0,0.0,0.0,0.0,0.0,0.0,0.0,0.0,0.0,0.0,0.0,0.0,0.0,0.0,0.0,0.0,0.0,0.0,0.0,0.0,0.0,0.0,0.0,0.0,0.0,0.0,0.0,0.0,0.0,0.0,0.0,0.0,0.0,0.0,0.0,0.0,0.0,0.0,0.0,0.0,0.0,0.0,0.0,0.0,0.0,0.0,0.0,0.0,0.0,0.0,0.0,0.0,0.0,0.0,0.0,0.0,-0.4349,-0.6852,-0.8775,-1.0218,-1.099,-1.0829,-1.0512,0.0,0.0,0.0,0.0,0.0,0.0,0.0,0.0,0.0,0.0,0.0,0.0,0.0,0.0,0.0,0.0,0.0,0.0,0.0,0.0,0.0,0.0,0.0,0.0,0.0,0.0,0.0,0.0,0.0,0.0,0.0,0.0,0.0,0.0,0.0,0.0,0.0,0.0,0.0,0.0,0.0,0.0,0.0,0.0,0.0,0.0,0.0,0.0,0.0,0.0,0.0,0.0,0.0,0.0,0.0,0.0,0.0,0.0,0.0,0.0,0.0,0.0,0.0,0.0,0.0,0.0,0.0,0.0,0.0,0.0,0.0,0.0,0.0,0.0,0.0,0.0,0.0,0.0,0.0,0.0,0.0,0.0,0.0,0.0,0.0,0.0,0.0,0.0,0.0,0.0,0.0,0.0,0.0,0.0,0.0,0.0,0.0,0.0,0.0,0.0,0.0,0.0,0.0,0.0,0.0,0.0,0.0,0.0,-0.5087,-0.6912,-1.0132,-1.2415,-1.3277,-1.2225,-1.1111,0.0,0.0,0.0,0.0,0.0,0.0,0.0,0.0,0.0,0.0,0.0,0.0,0.0,0.0,0.0,0.0,0.0,0.0,0.0,0.0,0.0,0.0,0.0,0.0,0.0,0.0,0.0,0.0,0.0,0.0,0.0,0.0,0.0,0.0,0.0,0.0,0.0,0.0,0.0,0.0,0.0,0.0,0.0,0.0,0.0,0.0,0.0,0.0,0.0,0.0,0.0,0.0,0.0,0.0,0.0,0.0,0.0,0.0,0.0,0.0,0.0,0.0,0.0,0.0,0.0,0.0,0.0,0.0,0.0,0.0,0.0,0.0,0.0,0.0,0.0,0.0,0.0,0.0,0.0,0.0,0.0,0.0,0.0,0.0,0.0,0.0,0.0,0.0,0.0,0.0,0.0,0.0,0.0,0.0,0.0,0.0,0.0,0.0,0.0,0.0,0.0,0.0,0.0,0.0,0.0,0.0,0.0,0.0,-0.5651,-0.8217,-1.1157,-1.338,-1.4619,-1.4415,-1.3343,0.0,0.0,0.0,0.0,0.0,0.0,0.0,0.0,0.0,0.0,0.0,0.0,0.0,0.0,0.0,0.0,0.0,0.0,0.0,0.0,0.0,0.0,0.0,0.0,0.0,0.0,0.0,0.0,0.0,0.0,0.0,0.0,0.0,0.0,0.0,0.0,0.0,0.0,0.0,0.0,0.0,0.0,0.0,0.0,0.0,0.0,0.0,0.0,-2.4833,0.0,0.0,0.0,0.0,0.0,0.0,0.0,0.0,0.0,0.0,0.0,0.0,0.0,0.0,0.0,0.0,0.0,0.0,0.0,0.0,0.0,0.0,0.0,0.0,0.0,0.0,0.0,0.0,0.0,0.0,0.0,0.0,0.0,0.0,0.0,0.0,0.0,0.0,0.0,0.0,0.0,0.0,0.0,0.0,0.0,0.0,0.0,0.0,0.0,0.0,0.0,0.0,0.0,0.0,0.0,0.0,0.0,0.0,0.0,-0.774,-0.9466,-1.2484,-1.4619,-1.5683,-1.5927,-1.4676,0.0,0.0,0.0,0.0,0.0,0.0,0.0,0.0,0.0,0.0,0.0,0.0,0.0,0.0,0.0,0.0,0.0,0.0,0.0,0.0,0.0,0.0,0.0,0.0,0.0,0.0,0.0,0.0,0.0,0.0,0.0,0.0,0.0,0.0,0.0,0.0,0.0,0.0,0.0,0.0,0.0,0.0,0.0,0.0,0.0,0.0,0.0,0.0,0.0,0.0,0.0,0.0,0.0,0.0,0.0,0.0,0.0,0.0,0.0,0.0,0.0,0.0,0.0,0.0,0.0,0.0,0.0,0.0,0.0,0.0,0.0,0.0,0.0,0.0,0.0,0.0,0.0,0.0,0.0,0.0,0.0,0.0,0.0,0.0,0.0,0.0,0.0,0.0,0.0,0.0,0.0,0.0,0.0,0.0,0.0,0.0,0.0,0.0,0.0,0.0,0.0,0.0,0.0,0.0,0.0,0.0,0.0,-0.8351,-1.0193,-1.0703,-1.379,-1.5707,-1.6393,-1.6832,-1.5543,-1.2316,0.0,0.0,0.0,0.0,0.0,0.0,0.0,0.0,0.0,0.0,0.0,0.0,0.0,0.0,0.0,0.0,0.0,0.0,0.0,0.0,0.0,0.0,0.0,0.0,0.0,0.0,0.0,0.0,0.0,0.0,0.0,0.0,0.0,0.0,0.0,0.0,0.0,0.0,-1.5564,-1.7611,0.0,0.0,0.0,0.0,0.0,0.0,0.0,0.0,-2.5356,0.0,0.0,0.0,0.0,0.0,0.0,0.0,0.0,0.0,0.0,0.0,0.0,0.0,0.0,0.0,0.0,0.0,0.0,0.0,0.0,0.0,0.0,0.0,0.0,0.0,0.0,0.0,0.0,0.0,0.0,0.0,0.0,0.0,0.0,0.0,0.0,0.0,0.0,0.0,0.0,0.0,0.0,0.0,0.0,0.0,0.0,0.0,0.0,0.0,0.0,0.0,0.0,0.0,0.0,0.0,0.0,-0.5207,-0.9844,-1.1924,-1.1326,-1.409,-1.5825,-1.6294,-1.6978,-1.6112,-1.3508,0.0,0.0,0.0,0.0,0.0,0.0,0.0,0.0,0.0,0.0,0.0,0.0,0.0,0.0,0.0,0.0,0.0,0.0,0.0,0.0,0.0,0.0,0.0,0.0,0.0,0.0,0.0,0.0,0.0,0.0,0.0,0.0,0.0,0.0,0.0,0.0,0.0,0.0,0.0,-1.9247,-2.042,0.0,0.0,0.0,0.0,0.0,0.0,0.0,0.0,-2.4073,0.0,0.0,0.0,0.0,0.0,0.0,0.0,0.0,0.0,0.0,0.0,0.0,0.0,0.0,0.0,0.0,0.0,0.0,0.0,0.0,0.0,0.0,0.0,0.0,0.0,0.0,0.0,0.0,0.0,0.0,0.0,0.0,0.0,0.0,0.0,0.0,0.0,0.0,0.0,0.0,0.0,0.0,0.0,0.0,0.0,0.0,0.0,0.0,0.0,0.0,0.0,0.0,0.0,0.0,0.0,-0.5106,-1.0271,-1.2792,-1.2354,-1.4741,-1.6308,-1.7127,-1.6892,-1.6118,0.0,0.0,0.0,0.0,0.0,0.0,0.0,0.0,0.0,0.0,0.0,0.0,0.0,0.0,0.0,0.0,0.0,0.0,0.0,0.0,0.0,0.0,0.0,0.0,0.0,0.0,0.0,0.0,0.0,0.0,0.0,0.0,0.0,0.0,0.0,0.0,0.0,0.0,0.0,0.0,-1.9139,-2.0298,-2.1627,0.0,0.0,0.0,0.0,0.0,0.0,-2.4236,-2.399,0.0,0.0,0.0,0.0,0.0,0.0,0.0,0.0,0.0,0.0,0.0,0.0,0.0,0.0,0.0,0.0,0.0,0.0,0.0,0.0,0.0,0.0,0.0,0.0,0.0,0.0,0.0,0.0,0.0,0.0,0.0,0.0,0.0,0.0,0.0,0.0,0.0,0.0,0.0,0.0,0.0,0.0,0.0,0.0,0.0,0.0,0.0,0.0,0.0,0.0,0.0,0.0,0.0,0.0,0.0,-0.5839,-1.068,-1.3309,-1.3355,-1.5505,-1.6981,-1.7639,-1.7054,-1.6268,0.0,0.0,0.0,0.0,0.0,0.0,0.0,0.0,0.0,0.0,0.0,0.0,0.0,0.0,0.0,0.0,0.0,0.0,0.0,0.0,0.0,0.0,0.0,0.0,0.0,0.0,0.0,0.0,0.0,0.0,0.0,0.0,0.0,0.0,0.0,0.0,0.0,0.0,0.0,0.0,0.0,-1.9515,-2.0739,-2.1265,0.0,0.0,0.0,0.0,-2.4727,-2.4034,0.0,0.0,0.0,0.0,0.0,0.0,0.0,0.0,0.0,0.0,0.0,0.0,0.0,0.0,0.0,0.0,0.0,0.0,0.0,0.0,0.0,0.0,0.0,0.0,0.0,0.0,0.0,0.0,0.0,0.0,0.0,0.0,0.0,0.0,0.0,0.0,0.0,0.0,0.0,0.0,0.0,0.0,0.0,0.0,0.0,0.0,0.0,0.0,0.0,0.0,0.0,0.0,0.0,0.0,0.0,0.0,-0.9605,-1.1958,-1.3547,-1.4471,-1.6606,-1.7565,-1.7261,-1.7665,-1.697,0.0,0.0,0.0,0.0,0.0,0.0,0.0,0.0,0.0,0.0,0.0,0.0,0.0,0.0,0.0,0.0,0.0,0.0,0.0,0.0,0.0,0.0,0.0,0.0,0.0,0.0,0.0,0.0,0.0,0.0,0.0,0.0,0.0,0.0,0.0,0.0,0.0,0.0,0.0,0.0,0.0,-1.8409,-1.9336,-1.8865,-1.8459,0.0,0.0,-1.9422,-2.1434,-2.1129,0.0,0.0,0.0,0.0,0.0,0.0,0.0,0.0,0.0,0.0,0.0,0.0,0.0,0.0,0.0,0.0,0.0,0.0,0.0,0.0,0.0,0.0,0.0,0.0,0.0,0.0,0.0,0.0,0.0,0.0,0.0,0.0,0.0,0.0,0.0,0.0,0.0,0.0,0.0,0.0,0.0,0.0,0.0,0.0,0.0,0.0,0.0,0.0,0.0,0.0,0.0,0.0,0.0,0.0,0.0,-0.7316,-1.0988,-1.1925,-1.3347,-1.5445,-1.6748,-1.7658,-1.8121,-1.7729,-1.672,0.0,0.0,0.0,0.0,0.0,0.0,0.0,0.0,0.0,0.0,0.0,0.0,0.0,0.0,0.0,0.0,0.0,0.0,0.0,0.0,0.0,0.0,0.0,0.0,0.0,0.0,0.0,0.0,0.0,0.0,0.0,0.0,0.0,0.0,0.0,0.0,0.0,0.0,0.0,0.0,0.0,0.0,-1.9137,-1.9169,0.0,0.0,0.0,-1.9341,-2.1901,0.0,0.0,0.0,0.0,0.0,0.0,0.0,0.0,0.0,0.0,0.0,0.0,0.0,0.0,0.0,0.0,0.0,0.0,0.0,0.0,0.0,0.0,0.0,0.0,0.0,0.0,0.0,0.0,0.0,0.0,0.0,0.0,0.0,0.0,0.0,0.0,0.0,0.0,0.0,0.0,0.0,0.0,0.0,0.0,0.0,0.0,0.0,0.0,0.0,0.0,0.0,0.0,0.0,0.0,0.0,0.0,0.0,-1.1468,-1.1655,-1.3212,-1.6206,-1.7008,-1.7867,-1.8517,-1.8018,0.0,0.0,0.0,0.0,0.0,0.0,0.0,0.0,0.0,0.0,0.0,0.0,0.0,0.0,0.0,0.0,0.0,0.0,0.0,0.0,0.0,0.0,0.0,0.0,0.0,0.0,0.0,-0.6833,0.0,0.0,0.0,0.0,0.0,0.0,0.0,0.0,0.0,0.0,0.0,0.0,0.0,0.0,-1.977,-1.9096,-1.9385,-1.9511,0.0,0.0,-1.9093,-2.2099,-2.1679,-2.1921,0.0,0.0,0.0,0.0,0.0,0.0,0.0,0.0,0.0,0.0,0.0,0.0,0.0,0.0,0.0,0.0,0.0,0.0,0.0,0.0,0.0,0.0,0.0,0.0,0.0,0.0,0.0,0.0,0.0,0.0,0.0,0.0,0.0,0.0,0.0,0.0,0.0,0.0,0.0,0.0,0.0,0.0,0.0,0.0,0.0,0.0,0.0,0.0,0.0,0.0,0.0,0.0,0.0,0.0,0.0,-1.1222,-1.1569,-1.3122,-1.6053,-1.7923,-1.8399,-1.7601,-1.8529,-1.7712,0.0,0.0,0.0,0.0,0.0,0.0,0.0,0.0,0.0,0.0,0.0,0.0,0.0,0.0,0.0,0.0,0.0,0.0,0.0,0.0,0.0,0.0,0.0,0.0,0.0,0.0,0.0,0.0,0.0,0.0,0.0,0.0,0.0,0.0,0.0,0.0,0.0,0.0,0.0,0.0,0.0,-1.8594,-1.8962,-1.8194,-1.7674,0.0,0.0,-1.7586,-2.0587,-2.0442,-2.0922,-2.3628,0.0,0.0,0.0,0.0,0.0,0.0,0.0,0.0,0.0,0.0,0.0,0.0,0.0,0.0,0.0,0.0,0.0,0.0,0.0,0.0,0.0,0.0,0.0,0.0,0.0,0.0,0.0,0.0,0.0,0.0,0.0,0.0,0.0,0.0,0.0,0.0,0.0,0.0,0.0,0.0,0.0,0.0,0.0,0.0,0.0,0.0,0.0,0.0,0.0,0.0,0.0,0.0,0.0,-0.8336,-1.1765,-1.2012,-1.3589,-1.6384,-1.7012,-1.7514,-1.7875,-1.8324,-1.741,0.0,0.0,0.0,0.0,0.0,0.0,0.0,0.0,0.0,0.0,0.0,0.0,0.0,0.0,0.0,0.0,0.0,0.0,0.0,0.0,0.0,0.0,0.0,0.0,0.0,0.0,0.0,0.0,-1.017,-1.0958,-1.2059,0.0,0.0,0.0,0.0,0.0,0.0,0.0,0.0,0.0,0.0,-2.0352,-2.0186,-1.9311,0.0,0.0,-1.8336,-1.8907,-2.0856,-2.143,-2.2327,-2.4643,-2.44,0.0,0.0,0.0,0.0,0.0,0.0,0.0,0.0,0.0,0.0,0.0,0.0,0.0,0.0,0.0,0.0,0.0,0.0,0.0,0.0,0.0,0.0,0.0,0.0,0.0,0.0,0.0,0.0,0.0,0.0,0.0,0.0,0.0,0.0,0.0,0.0,0.0,0.0,0.0,0.0,0.0,0.0,0.0,0.0,0.0,0.0,0.0,0.0,0.0,0.0,0.0,0.0,-0.9501,-1.1442,-1.2347,-1.3956,-1.6473,-1.6582,-1.7088,-1.7862,-1.8221,-1.7588,0.0,0.0,0.0,0.0,0.0,0.0,0.0,0.0,0.0,0.0,0.0,0.0,0.0,0.0,0.0,0.0,0.0,0.0,0.0,0.0,0.0,0.0,0.0,0.0,0.0,0.0,0.0,0.0,-1.1167,-1.1647,-1.2785,0.0,0.0,0.0,0.0,0.0,0.0,0.0,0.0,0.0,0.0,-2.1765,-2.155,-2.083,-2.0233,-2.0158,-1.9732,-2.0051,-2.176,-2.2406,-2.3487,-2.5758,0.0,0.0,0.0,0.0,0.0,0.0,0.0,0.0,0.0,0.0,0.0,0.0,0.0,0.0,0.0,0.0,0.0,0.0,0.0,0.0,0.0,0.0,0.0,0.0,0.0,0.0,0.0,0.0,0.0,0.0,0.4068,0.0,0.0,0.0,0.0,0.0,0.0,0.0,0.0,0.0,0.0,0.0,0.0,0.0,0.0,0.0,0.0,0.0,0.0,0.0,0.0,0.0,0.0,-0.9611,-1.0198,-1.2226,-1.4088,-1.5903,-1.6881,-1.7374,-1.7313,-1.853,-1.843,-1.6684,0.0,0.0,0.0,0.0,0.0,0.0,0.0,0.0,0.0,0.0,0.0,0.0,0.0,0.0,0.0,0.0,0.0,0.0,0.0,0.0,0.0,0.0,0.0,0.0,0.0,0.0,-1.043,-1.2563,-1.4004,0.0,0.0,0.0,0.0,0.0,0.0,0.0,0.0,0.0,0.0,-2.1245,-2.2125,-2.2885,-2.2238,-2.1825,-2.2403,-2.1277,-2.0966,-2.317,-2.33,-2.3975,0.0,0.0,0.0,0.0,0.0,0.0,0.0,0.0,0.0,0.0,0.0,0.0,0.0,0.0,0.0,0.0,0.0,0.0,0.0,0.0,0.0,0.0,0.0,0.0,0.0,0.0,0.0,0.4269,0.398,0.0,0.0,0.0,0.0,0.0,0.0,0.0,0.0,0.0,0.0,0.0,-0.3558,-0.5896,0.0,0.0,0.0,0.0,0.0,0.0,0.0,0.0,0.0,0.0,0.0,0.0,-0.9657,-1.0623,-1.2924,-1.4529,-1.5183,-1.6175,-1.6755,-1.6933,-1.816,-1.8313,-1.7202,0.0,0.0,0.0,0.0,0.0,0.0,0.0,0.0,0.0,0.0,0.0,0.0,0.0,0.0,0.0,0.0,0.0,0.0,0.0,0.0,0.0,0.0,0.0,0.0,0.0,-1.0168,0.0,0.0,0.0,0.0,0.0,0.0,0.0,0.0,0.0,0.0,0.0,-1.7787,-1.8857,-2.0864,-2.2347,-2.2826,-2.296,-2.3015,0.0,0.0,0.0,0.0,0.0,0.0,0.0,0.0,0.0,0.0,0.0,0.0,0.0,0.0,-3.5134,-3.2171,-3.0556,-3.0483,-3.3049,0.0,0.0,0.0,0.0,0.0,0.0,0.0,0.0,0.0,0.0,0.0,0.0,0.0,0.0,0.361,0.0,0.3213,0.0,0.0,0.0,0.0,0.0,0.0,0.0,0.0,-0.2902,-0.4279,-0.513,-0.7883,-0.8954,0.0,-0.8941,-0.8515,0.0,0.0,0.0,0.0,0.0,0.0,0.0,0.0,-1.0246,-1.1305,-1.3742,-1.5054,-1.5386,-1.6191,-1.6817,-1.7389,-1.8655,-1.905,-1.8487,-1.7258,-1.6065,0.0,0.0,0.0,0.0,0.0,0.0,0.0,0.0,0.0,0.0,0.0,0.0,0.0,0.0,0.0,0.0,0.0,0.0,0.0,0.0,0.0,0.0,0.0,-1.2009,0.0,0.0,0.0,0.0,0.0,0.0,0.0,0.0,0.0,-1.6702,-1.7182,-1.7928,-1.8927,-2.1034,-2.2484,-2.3055,0.0,0.0,0.0,0.0,0.0,0.0,0.0,-2.8438,-3.0081,-3.081,-3.1861,-3.4039,-3.6489,-3.8116,-3.7922,0.0,0.0,-3.5055,-3.3526,-3.3702,-3.6398,-3.7966,-3.919,-4.0537,-4.2724,-4.5754,0.0,0.0,0.0,0.0,0.0,0.0,0.0,0.0,0.3412,0.33,0.0,0.2776,0.0,0.0,0.0,0.0,0.0,-0.04,0.0,0.0,-0.5748,-0.7578,-0.707,-0.8531,-0.9794,-1.0906,-1.062,-1.0616,-1.0537,-0.963,0.0,0.0,0.0,0.0,0.0,0.0,-1.1062,-1.2251,-1.453,-1.5933,-1.6402,-1.6827,-1.7596,-1.8735,-1.9884,-2.0355,-2.0279,-1.8889,-1.7847,-1.7288,-1.4871,0.0,0.0,0.0,0.0,0.0,0.0,0.0,0.0,0.0,0.0,0.0,0.0,0.0,0.0,0.0,0.0,0.0,0.0,0.0,0.0,-1.3774,0.0,0.0,0.0,0.0,0.0,0.0,0.0,0.0,0.0,0.0,-1.8106,-1.8304,-1.8988,-2.0243,0.0,0.0,0.0,0.0,-2.5499,-2.6348,-2.5985,-2.633,-2.8489,-2.9181,-3.0761,-3.4332,0.0,0.0,-3.7417,-3.885,-3.9758,-3.8988,-4.0162,-4.0767,-3.9069,-3.7427,-3.714,-3.9556,-3.9951,-4.0664,-4.3405,-4.6211,-4.9273,0.2084,0.0,0.0,0.0,0.0,0.2759,0.2788,0.3002,0.2447,0.2206,0.2172,0.1986,0.0,0.0,0.0,0.0,0.0,0.0,-0.2679,-0.4101,-0.6183,-0.7731,-0.9062,-1.1247,-1.2483,-1.2832,-1.2988,-1.3293,-1.3752,-1.3078,-1.1282,-0.8472,0.0,0.0,0.0,0.0,-1.2158,-1.3296,-1.5224,-1.6225,-1.6421,-1.7266,-1.8239,-1.9363,-1.9762,-2.0107,-2.0545,-1.9951,-1.9007,-1.7859,-1.7101,0.0,0.0,0.0,0.0,0.0,0.0,0.0,0.0,0.0,0.0,0.0,0.0,0.0,0.0,0.0,0.0,0.0,0.0,0.0,-1.3468,-1.5525,-1.6253,0.0,0.0,0.0,0.0,0.0,0.0,0.0,0.0,0.0,-2.082,-1.8998,-1.7842,0.0,0.0,-2.2866,-2.346,-2.5276,-2.6491,-2.6903,-2.6813,0.0,-2.7628,-2.9663,-3.1677,-3.2921,-3.5782,-3.851,-4.0536,-4.1831,-4.2472,-4.2491,-4.2656,-4.2747,-4.2831,-4.1134,-4.0668,-4.2837,-4.4473,-4.579,-4.7391,-4.9254,-5.1785,0.0793,0.1835,0.2423,0.2723,0.2735,0.2292,0.2272,0.231,0.1944,0.1805,0.178,0.1804,0.1744,0.1624,0.1218,0.0,0.0,0.0,-0.4252,-0.6198,-0.7378,-0.8919,-1.0607,-1.2556,-1.3716,-1.4299,-1.4343,-1.4647,-1.5356,-1.4787,-1.334,-1.0954,0.0,0.0,-1.0833,-1.2048,-1.3295,-1.4428,-1.5856,-1.6728,-1.7097,-1.8301,-1.9085,-1.9701,-2.011,-2.0292,-2.0521,-2.046,-1.9951,-1.8948,-1.8475,-1.7375,0.0,0.0,0.0,0.0,0.0,0.0,0.0,0.0,0.0,0.0,0.0,-0.9057,-0.8577,0.0,0.0,0.0,-1.3217,-1.4397,-1.6124,-1.7618,0.0,0.0,0.0,0.0,0.0,0.0,0.0,-2.142,-2.1522,-2.1501,-2.2031,-2.0607,-1.9299,-1.8735,-2.1524,-2.3758,-2.4187,0.0,-2.7165,-2.7334,-2.7371,-2.7686,-2.8474,-3.0511,-3.291,-3.5748,-3.8325,-4.0667,-4.2542,-4.3554,-4.4285,-4.4435,-4.438,-4.4562,-4.5482,-4.4617,-4.4009,-4.5407,-4.7091,-4.8554,-5.0104,-5.1222,-5.3047,-0.0503,0.0383,0.2057,0.2654,0.2496,0.2268,0.2095,0.194,0.1941,0.1925,0.1904,0.1959,0.1889,0.1516,-0.0,0.0,-0.3762,-0.4681,-0.5958,-0.7656,-0.9082,-1.0254,-1.1431,-1.28,-1.4042,-1.5004,-1.4978,-1.5224,-1.5555,-1.5196,-1.4799,-1.4411,-1.383,-1.3217,-1.2696,-1.3326,-1.434,-1.5602,-1.6389,-1.7278,-1.8268,-1.9615,-2.0192,-1.9963,-2.0675,-2.0859,-2.0376,-2.0593,-2.0617,-2.0364,-1.9387,-1.836,-1.7329,0.0,0.0,0.0,0.0,0.0,0.0,0.0,0.0,0.0,0.0,0.0,0.0,0.0,0.0,0.0,-1.697,0.0,-1.9587,-1.9577,0.0,0.0,0.0,-1.9464,-2.0403,-2.0626,-2.0843,-2.154,0.0,0.0,-2.2219,-2.2813,-2.2567,-2.1159,-2.3304,-2.5136,-2.5441,-2.6576,-2.7646,-2.8029,-2.7862,-2.8335,-2.9779,-3.168,-3.503,-4.061,-4.2402,-4.2997,-4.4106,-4.4856,-4.5261,-4.5407,-4.5443,-4.5832,-4.6967,-4.7157,-4.7328,-4.7098,-4.8075,-4.9637,-5.1681,-5.245,-5.3806,-0.0769,-0.0515,0.1393,0.2259,0.2123,0.2099,0.199,0.2031,0.2033,0.2027,0.2023,0.2037,0.1387,0.0247,-0.2248,-0.3677,-0.4257,-0.5497,-0.6489,-0.7089,-0.8391,-0.9238,-0.9887,-1.2445,-1.3717,-1.4043,-1.5265,-1.5848,-1.5791,-1.5687,-1.5372,-1.4861,-1.4672,-1.4214,-1.3528,-1.4041,-1.4873,-1.6158,-1.6545,-1.7581,-1.9158,-1.9938,-2.0272,-2.0215,-2.0947,-2.1221,-2.0895,-2.1136,-2.1257,-2.1197,-2.0709,-1.9352,-1.7266,-1.5438,0.0,0.0,0.0,0.0,0.0,0.0,0.0,0.0,0.0,-1.2264,-1.129,0.0,-1.3578,0.0,-1.9204,-2.0978,-2.0756,-2.0991,0.0,0.0,-1.9219,-1.9391,-2.2484,-2.0847,-2.0212,-2.2819,-2.3258,-2.352,-2.4058,-2.5419,-2.5997,-2.5594,-2.5866,-2.6665,-2.8013,-2.8382,-2.8582,-2.8607,-2.8716,-2.8845,-2.9633,-3.2734,-3.721,-4.2493,-4.383,-4.475,-4.5659,-4.6495,-4.6827,-4.6672,-4.6672,-4.6955,-4.7487,-4.7468,-4.7548,-4.8442,-4.8904,-4.9827,-5.2669,-5.3537,-5.5146,-0.1323,-0.1606,0.04,0.0934,0.0401,0.1551,0.2056,0.2083,0.2084,0.1686,0.1031,0.0389,-0.0785,-0.2119,-0.3739,-0.4708,-0.5417,-0.6141,-0.671,-0.7119,-0.8311,-0.9049,-0.9613,-1.2337,-1.3725,-1.3734,-1.5406,-1.6169,-1.6141,-1.6141,-1.6084,-1.5971,-1.6056,-1.5782,-1.5177,-1.4828,-1.5108,-1.5878,-1.6979,-1.832,-2.0091,-2.0478,-2.0477,-2.0002,-2.072,-2.0627,-1.9992,-2.0333,-2.058,-2.0367,-1.9621,-1.8563,-1.6867,-1.4969,-1.3453,0.0,0.0,0.0,0.0,0.0,0.0,0.0,0.0,0.0,0.0,0.0,-1.6717,-1.8222,-2.1061,-2.2365,-2.1324,-2.206,-2.2553,-2.2513,-2.1447,-2.176,-2.4435,-2.1864,-2.1231,-2.4613,-2.3995,-2.3862,-2.5611,-2.6893,-2.7694,-2.7464,-2.7617,-2.8399,-2.9482,-2.943,-2.9127,-2.9139,-2.9201,-3.0386,-3.2746,-3.6059,-3.9525,-4.3515,-4.4814,-4.5517,-4.6635,-4.7011,-4.7066,-4.6837,-4.6837,-4.6892,-4.7443,-4.725,-4.7654,-4.8995,-5.0783,-5.2436,-5.3857,-5.5093,-5.6746,-0.1911,-0.265,-0.0683,-0.0549,-0.1539,0.0666,0.1576,0.1461,0.1594,0.0791,-0.0521,-0.1978,-0.336,-0.4532,-0.4818,-0.5549,-0.6741,-0.6754,-0.6898,-0.7323,-0.8384,-0.9139,-0.9433,-1.2102,-1.3452,-1.3737,-1.5203,-1.6168,-1.6481,-1.6682,-1.6692,-1.6682,-1.7,-1.6759,-1.6112,-1.4938,-1.4719,-1.5411,-1.7428,-1.9233,-2.0616,-2.0653,-2.0354,-1.958,-2.014,-1.9841,-1.8766,-1.9277,-1.9438,-1.8755,-1.7895,-1.7087,-1.6304,-1.4266,-1.2863,0.0,-1.1087,0.0,0.0,0.0,0.0,0.0,0.0,0.0,0.0,-2.0059,-2.0635,-2.0526,-2.2362,-2.3281,-2.2102,-2.3152,-2.3963,-2.4246,-2.4449,-2.4903,-2.5598,-2.3293,-2.2778,-2.6092,-2.419,-2.386,-2.6758,-2.7793,-2.8152,-2.8114,-2.9039,-2.9712,-3.0131,-2.9775,-2.9489,-2.9513,-2.9724,-3.1946,-3.713,-3.9307,-4.113,-4.4335,-4.5571,-4.6225,-4.7149,-4.702,-4.6974,-4.6764,-4.6819,-4.6892,-4.7204,-4.7277,-4.7988,-4.9645,-5.3046,-5.5733,-5.557,-5.6327,-5.7893,-0.258,-0.2759,-0.1387,-0.0982,-0.1278,-0.1114,-0.1242,-0.1522,-0.1521,-0.1658,-0.2067,-0.3592,-0.43,-0.4742,-0.5919,-0.6669,-0.6835,-0.6909,-0.6937,-0.7081,-0.7242,-0.7395,-0.7684,-0.928,-1.0868,-1.2022,-1.3738,-1.5272,-1.649,-1.7272,-1.661,-1.4826,-1.5294,-1.4539,-1.2853,0.0,0.0,0.0,-1.7643,-1.8842,-1.9584,-1.9202,-1.9062,-1.9224,-1.9837,0.0,-1.99,-2.0101,-1.967,-1.871,-1.8135,0.0,0.0,0.0,0.0,0.0,0.0,0.0,0.0,0.0,0.0,0.0,-2.0581,-2.0377,-1.9952,-2.1394,-2.2333,-2.2435,-2.3305,-2.4069,-2.427,-2.4603,-2.4915,-2.5359,-2.4557,-2.4523,-2.5759,-2.3993,-2.3185,-2.4922,-2.5095,-2.5329,-2.6545,-2.771,-2.8608,-2.8986,-2.9483,-2.9851,-3.0185,-3.0008,-3.0045,-3.0057,-3.0637,-3.3307,-3.9308,-3.9657,-4.1255,-4.4676,-4.6507,-4.7185,-4.7827,-4.7956,-4.7919,-4.7882,-4.7956,-4.7919,-4.8029,-4.8478,-4.9598,-5.179,-5.5177,-5.7725,-5.7089,-5.7078,-5.787,-0.3027,0.0,-0.254,-0.2425,0.0,-0.3605,-0.4037,-0.4318,-0.2984,-0.2837,-0.3707,-0.5244,-0.5955,-0.6136,-0.6896,-0.7208,-0.7208,-0.711,-0.699,-0.699,-0.699,-0.7015,-0.7056,-0.8654,-0.9849,-1.0645,-1.2472,-1.3877,-1.4712,-1.5351,-1.5144,-1.4239,-1.4613,-1.4349,-1.3442,-1.4291,-1.5403,-1.6312,-1.8158,-1.9611,-2.0834,-2.0506,-2.0296,-2.0251,0.0,0.0,0.0,0.0,0.0,0.0,0.0,0.0,0.0,0.0,0.0,-1.1017,-1.1632,-1.3159,-1.531,-1.6966,-1.9065,-2.1838,-2.2993,-2.3246,-2.2292,-2.3469,-2.4258,-2.4318,-2.4663,-2.5107,-2.5421,-2.5542,-2.5735,-2.5989,-2.5442,-2.5619,-2.6247,-2.4956,-2.4715,-2.6096,-2.625,-2.6433,-2.7581,-2.8469,-2.9123,-2.9307,-2.9699,-3.0105,-3.055,-3.0298,-3.0238,-3.0322,-3.3158,-3.5621,-3.8585,-4.1816,-4.3495,-4.6445,-4.7193,-4.7644,-4.8176,-4.8121,-4.7992,-4.7992,-4.8189,-4.8386,-4.8582,-4.9988,-5.1751,-5.3182,-5.7175,-5.9954,-5.8885,-5.8992,-5.9891,-0.3634,-0.4572,-0.3573,-0.4035,-0.5107,-0.5763,-0.6237,-0.6518,0.0,0.0,0.0,-0.6765,-0.7495,-0.7711,-0.7584,-0.7584,-0.757,-0.7169,-0.7027,-0.7015,-0.7031,-0.7076,-0.715,-0.8474,-0.926,-0.9799,-1.132,-1.2442,-1.2863,-1.3384,-1.3655,-1.3811,-1.4094,-1.417,-1.4365,-1.6466,-1.7376,-1.6889,-1.8671,-2.0369,-2.218,-2.1851,-2.1613,-2.1291,-2.1627,-2.1314,-2.0309,-2.043,-1.95,-1.7487,-1.599,-1.4469,-1.2706,-1.2017,-1.1665,-1.1677,-1.2701,-1.4124,-1.604,-1.6745,-1.8646,-2.2153,-2.4334,-2.5252,-2.4826,-2.5586,-2.6025,-2.5977,-2.6013,-2.6001,-2.5916,-2.6085,-2.6278,-2.6411,-2.6641,-2.6894,-2.7208,-2.6399,-2.6559,-2.7855,-2.7384,-2.7479,-2.8932,-2.9501,-2.9815,-2.9675,-2.9903,-3.0587,-3.101,-3.0732,-3.0431,-3.0527,-3.3801,-3.7525,-3.975,-4.2163,-4.6251,-4.7052,-4.7552,-4.7736,-4.8011,-4.7919,-4.7754,-4.7864,-4.8201,-4.8629,-4.8806,-5.0629,-5.287,-5.3107,-5.796,-6.1936,-6.0627,-6.1228,-6.1993,-0.4369,-0.4572,-0.443,-0.4467,-0.4813,-0.5615,-0.6385,-0.6977,-0.6651,-0.6755,-0.7272,-0.7408,-0.7702,-0.801,-0.7801,-0.7646,-0.7579,-0.7302,-0.7182,0.0,-0.719,-0.7231,-0.7243,-0.7544,-0.8445,-1.011,-1.0509,-1.1631,-1.321,-1.4075,-1.3826,-1.2695,-1.3047,-1.2642,-1.1643,-1.4841,-1.6485,-1.6477,-1.8907,-2.0439,-2.0659,-2.0328,-2.0418,-2.0921,-2.0649,-2.0715,-2.0968,-2.0647,-1.965,-1.8069,-1.6393,-1.4935,-1.3646,-1.3767,-1.3297,-1.1828,-1.4202,-1.5816,-1.604,-1.6986,-1.8442,-2.044,-2.2757,-2.4654,-2.6068,-2.6689,-2.6773,-2.6568,-2.6701,-2.6665,-2.6254,-2.623,-2.6544,-2.7135,-2.7292,-2.7498,-2.7956,-2.826,-2.8307,-2.8596,-2.88,-2.8986,-2.9622,-2.9767,-2.9936,-3.0129,-3.0431,-3.0866,-3.1486,-3.1523,-3.1267,-3.0805,-3.2493,-3.7491,-4.3457,-4.3339,-4.3862,-4.6567,-4.724,-4.7387,-4.7717,-4.7736,-4.7791,-4.8121,-4.8534,-4.8965,-4.8983,-4.9983,-5.185,-5.3325,-5.694,-5.9301,-6.0433,-6.2383,-6.3418,-0.4548,-0.4578,-0.4608,-0.4638,-0.4816,-0.5654,-0.6451,-0.7199,-0.7199,-0.7412,-0.757,-0.7715,-0.815,-0.8449,-0.8108,-0.7984,-0.7943,-0.7497,-0.7239,-0.7203,-0.7243,-0.744,-0.7638,-0.7642,-0.8274,-0.9397,-0.9751,-1.0395,-1.1183,-1.1992,-1.1842,-1.1344,-1.2605,-1.2926,-1.2567,-1.602,-1.7829,-1.8085,-2.0375,-2.164,-2.149,-2.164,-2.1961,-2.2602,-2.2133,-2.2178,-2.2613,-2.2076,-2.0836,-1.8892,-1.8077,-1.6785,-1.5302,-1.5724,-1.5307,-1.3668,-1.5326,-1.5855,-1.5202,-1.794,-2.0345,-2.2141,-2.4547,-2.627,-2.6881,-2.7172,-2.7196,-2.7075,-2.7063,-2.6991,-2.6882,-2.7003,-2.7232,-2.7582,-2.8005,-2.8318,-2.8451,-2.8898,-2.9163,-2.9091,-2.9381,-2.9719,-2.9996,-3.0141,-3.0334,-3.0588,-3.1292,-3.1929,-3.2028,-3.2583,-3.2818,-3.242,-3.4056,-3.8222,-4.4582,-4.4514,-4.4471,-4.7071,-4.7424,-4.7406,-4.7442,-4.7516,-4.7754,-4.7937,-4.8712,-4.947,-4.9489,-5.1387,-5.2912,-5.389,-5.6272,-5.8809,-6.0753,-6.2807,-6.3576,-0.4594,-0.46,-0.4643,-0.4825,-0.5005,-0.567,-0.6473,-0.7256,-0.7369,-0.7564,-0.7724,-0.8005,-0.8454,-0.8775,-0.844,-0.8336,-0.8058,-0.7574,-0.7313,-0.7145,-0.7465,-0.7663,-0.8039,-0.8198,-0.8388,-0.8929,-0.9241,-0.9412,-0.9604,-1.0003,-1.0297,-1.0628,-1.2484,-1.3505,-1.3816,-1.7389,-1.9165,-1.9485,-2.1747,-2.2754,-2.2666,-2.3022,-2.339,-2.389,-2.3401,-2.3424,-2.3804,-2.3089,-2.1883,-2.017,-1.9615,-1.8666,-1.7148,-1.7712,-1.7386,-1.6144,-1.7254,-1.7254,-1.611,-1.9311,-2.1977,-2.3185,-2.5785,-2.7262,-2.7144,-2.7613,-2.7775,-2.7618,-2.7498,-2.7461,-2.751,-2.7727,-2.792,-2.8029,-2.8596,-2.8946,-2.8946,-2.9308,-2.9586,-2.961,-2.9815,-3.0093,-3.0346,-3.0564,-3.0769,-3.1231,-3.2127,-3.2696,-3.2747,-3.3569,-3.4004,-3.4282,-3.5415,-3.8413,-4.2733,-4.379,-4.4859,-4.693,-4.7479,-4.7369,-4.7259,-4.7442,-4.7736,-4.8042,-4.8993,-4.9693,-5.0122,-5.1617,-5.3113,-5.3515,-5.543,-5.8104,-6.0753,-6.2807,-6.3672,-0.4657,-0.4657,-0.4662,-0.5173,-0.5862,-0.5907,-0.6378,-0.7235,-0.753,-0.7733,-0.8029,-0.8155,-0.8644,-0.9329,-0.8696,-0.8145,-0.7862,-0.7577,-0.7301,-0.6938,-0.7778,-0.8136,-0.8297,-0.8608,-0.8925,-0.9246,-0.9402,-0.9615,-1.0014,-1.021,-1.0378,-1.0843,-1.2669,-1.3823,-1.4309,-1.769,-1.9676,-1.9704,-2.215,-2.3098,-2.2699,-2.2865,-2.3315,-2.3664,-2.3315,-2.3087,-2.3447,-2.3098,-2.2649,-2.1938,-2.0398,-1.9363,-1.9247,-2.0114,-1.9878,-1.8287,-2.0818,-2.1984,-2.0714,-2.0936,-2.1596,-2.175,-2.4419,-2.5939,-2.6116,-2.7926,-2.8886,-2.8343,-2.8331,-2.8234,-2.786,-2.8029,-2.827,-2.8463,-2.8837,-2.9175,-2.9586,-2.996,-3.0141,-3.0141,-3.0334,-3.0624,-3.0841,-3.095,-3.1279,-3.193,-3.2684,-3.3231,-3.3793,-3.4082,-3.4332,-3.4293,-3.4926,-3.7552,-4.1643,-4.2028,-4.3339,-4.5927,-4.6947,-4.7112,-4.7204,-4.7424,-4.7968,-4.8415,-4.9095,-4.9371,-4.9895,-5.0647,-5.1223,-5.1877,-5.3828,-5.6549,-6.0176,-6.2579,-6.3422,-0.4665,-0.4665,-0.3935,-0.414,-0.5124,-0.5982,-0.6769,-0.7321,-0.741,-0.7827,-0.8421,-0.8364,-0.877,-0.9503,-0.878,-0.8403,-0.826,-0.7778,-0.7349,-0.7321,-0.7825,-0.8315,-0.8627,-0.8934,-0.9402,-0.9719,-0.9782,-0.9998,-1.0231,-1.0416,-1.0997,-1.227,-1.4379,-1.584,-1.7032,-1.9865,-2.1351,-2.1484,-2.2449,-2.317,-2.3298,-2.3243,-2.3403,-2.3403,-2.306,-2.2987,-2.3542,-2.314,-2.2826,-2.2595,-2.1988,-2.1618,-2.1369,-2.2548,-2.2388,-2.0867,-2.1617,-2.2472,-2.2769,-2.3241,-2.4104,-2.5197,-2.6545,-2.75,-2.7453,-2.8569,-2.9019,-2.8777,-2.8789,-2.8632,-2.8174,-2.8427,-2.8669,-2.8717,-2.9127,-2.9562,-2.9767,-3.0177,-3.0443,-3.0467,-3.0672,-3.0938,-3.1179,-3.1583,-3.2139,-3.2462,-3.3121,-3.3806,-3.4332,-3.4557,-3.4557,-3.4346,-3.4557,-3.6593,-4.062,-4.1375,-4.2889,-4.5754,-4.713,-4.7112,-4.7149,-4.7204,-4.7618,-4.8211,-4.8813,-4.9299,-4.9474,-5.0048,-5.0449,-5.0968,-5.2478,-5.524,-5.8012,-6.0296,-6.1812,-0.3935,-0.3935,-0.2924,-0.3113,-0.4381,-0.5443,-0.6546,-0.7378,-0.7667,-0.7977,-0.8612,-0.8868,-0.9111,-0.9361,-0.8873,-0.8645,-0.8397,-0.7821,-0.7525,-0.7525,-0.8154,-0.8641,-0.8978,-0.9448,-0.9777,-1.0128,-1.021,-1.0286,-1.0378,-1.1168,-1.1956,-1.3515,-1.5934,-1.7733,-1.9112,-2.121,-2.2514,-2.2675,-2.274,-2.3043,-2.3512,-2.3457,-2.3369,-2.3487,-2.3021,-2.313,-2.3644,-2.3314,-2.308,-2.2946,-2.3261,-2.3219,-2.3229,-2.4162,-2.4338,-2.3732,-2.323,-2.3467,-2.464,-2.5615,-2.6599,-2.7828,-2.8717,-2.9115,-2.8946,-2.9079,-2.9175,-2.9115,-2.9115,-2.8922,-2.8572,-2.885,-2.8982,-2.8813,-2.9332,-2.9719,-2.9924,-3.0346,-3.066,-3.0805,-3.0998,-3.1203,-3.1668,-3.2287,-3.2623,-3.3048,-3.3697,-3.4346,-3.4557,-3.4768,-3.4768,-3.4134,-3.3922,-3.5727,-3.9768,-4.0716,-4.2853,-4.584,-4.7314,-4.7314,-4.7295,-4.7351,-4.785,-4.888,-4.9063,-4.928,-4.9953,-5.0219,-5.0254,-5.0751,-5.2087,-5.4112,-5.5493,-5.7935,-6.0263,-0.204,-0.2773,-0.1624,-0.2391,-0.4233,-0.4386,-0.548,-0.7395,-0.8071,-0.8536,-0.8804,-0.9501,-0.9692,-0.9371,-0.8833,-0.8416,-0.8247,-0.7715,-0.7525,-0.7681,-0.831,-0.8988,-0.956,-1.004,-1.0248,-1.0318,-1.0362,-1.0492,-1.0882,-1.2307,-1.321,-1.3687,-1.6968,-1.8967,-1.9653,-2.1587,-2.2665,-2.2729,-2.2902,-2.3042,-2.3085,-2.3257,-2.3401,-2.3764,-2.3578,-2.3321,-2.3375,-2.3386,-2.3483,-2.372,-2.3537,-2.3586,-2.3963,-2.4711,-2.5774,-2.6707,-2.6807,-2.6795,-2.7021,-2.7509,-2.802,-2.8331,-2.9091,-2.9622,-2.9369,-2.9513,-2.955,-2.9405,-2.9381,-2.926,-2.9079,-2.92,-2.926,-2.9079,-2.9272,-2.9682,-3.0165,-3.0491,-3.0829,-3.1191,-3.1336,-3.168,-3.2361,-3.2635,-3.3073,-3.3922,-3.4346,-3.4557,-3.4768,-3.4768,-3.4134,-3.371,-3.3472,-3.4426,-3.9071,-4.0357,-4.2406,-4.5681,-4.7607,-4.7644,-4.7791,-4.8134,-4.8656,-4.9207,-4.8969,-4.9377,-5.0242,-5.0566,-5.041,-5.083,-5.2107,-5.3467,-5.4234,-5.6862,-5.9082,-0.1025,-0.0738,-0.1186,-0.2102,-0.3208,-0.4281,-0.5695,-0.7476,-0.8128,-0.8664,-0.8912,-0.9591,-0.9812,-0.9713,-0.9051,-0.8664,-0.8207,-0.8015,-0.7998,-0.7998,-0.8778,-0.9266,-0.9453,-0.9928,-1.015,-1.0275,-1.0422,-1.1191,-1.2411,-1.307,-1.4395,-1.6269,-1.8035,-1.9643,-2.0578,-2.1984,-2.2751,-2.2912,-2.2659,-2.2839,-2.3261,-2.3072,-2.3176,-2.3445,-2.3203,-2.3246,-2.3397,-2.3397,-2.358,-2.3957,-2.3752,-2.3868,-2.4552,-2.5377,-2.6229,-2.6965,-2.7244,-2.7401,-2.7667,-2.7993,-2.8439,-2.8934,-2.9139,-2.9441,-2.9586,-2.9598,-2.9501,-2.9453,-2.9574,-2.9646,-2.9719,-2.9574,-2.9441,-2.9538,-2.9767,-3.0117,-3.0612,-3.095,-3.1191,-3.1372,-3.1529,-3.1923,-3.2398,-3.286,-3.3498,-3.4134,-3.4557,-3.4768,-3.4557,-3.4346,-3.3922,-3.3073,-3.286,-3.4254,-3.9296,-4.0072,-4.1655,-4.5439,-4.7882,-4.7901,-4.8011,-4.7901,-4.8349,-4.876,-4.8738,-4.9052,-4.9915,-5.0142,-5.0254,-5.0581,-5.1708,-5.2566,-5.3364,-5.5969,-5.803,0.0148,0.0896,-0.045,-0.1668,-0.2768,-0.4326,-0.591,-0.7529,-0.8063,-0.8641,-0.9064,-0.9371,-0.9577,-0.948,-0.9007,-0.8558,-0.8007,-0.7998,-0.8159,-0.8471,-0.8968,-0.9316,-0.9514,-0.9861,-1.0121,-1.0292,-1.0677,-1.1476,-1.2625,-1.3229,-1.4703,-1.7088,-1.8488,-1.9921,-2.1383,-2.2284,-2.2749,-2.2236,-2.234,-2.2547,-2.2604,-2.2764,-2.301,-2.3219,-2.3058,-2.3235,-2.3397,-2.3397,-2.358,-2.3914,-2.3903,-2.4299,-2.499,-2.5924,-2.6699,-2.716,-2.7317,-2.7534,-2.7811,-2.8137,-2.8572,-2.9103,-2.926,-2.9417,-2.9646,-2.9574,-2.9538,-2.9574,-2.9682,-2.9924,-3.0177,-3.0008,-2.9876,-3.0045,-3.0226,-3.0515,-3.0938,-3.1228,-3.1409,-3.1529,-3.1686,-3.1996,-3.266,-3.3298,-3.371,-3.4557,-3.498,-3.498,-3.4557,-3.4134,-3.371,-3.286,-3.3472,-3.5517,-3.9165,-4.0998,-4.2847,-4.6481,-4.8066,-4.8102,-4.8102,-4.7956,-4.806,-4.8452,-4.885,-4.8935,-4.9301,-4.9738,-5.0005,-5.0391,-5.0718,-5.1658,-5.3091,-5.4959,-5.6933,0.1198,0.1971,0.0613,-0.1077,-0.2779,-0.4362,-0.5952,-0.7381,-0.802,-0.8459,-0.8926,-0.8997,-0.9035,-0.9064,-0.8668,-0.8085,-0.7706,-0.7542,-0.8011,-0.8646,-0.8878,-0.9292,-0.9547,-0.9789,-0.9958,-1.0351,-1.0956,-1.1428,-1.1817,-1.2966,-1.4441,-1.6034,-1.7964,-1.9609,-2.1429,-2.1916,-2.1873,-2.1175,-2.1911,-2.188,-2.0664,-2.2282,-2.3101,-2.2936,-2.3208,-2.3386,-2.3418,-2.3397,-2.3483,-2.3731,-2.3935,-2.4635,-2.5525,-2.647,-2.7135,-2.7317,-2.7401,-2.7546,-2.7824,-2.8282,-2.856,-2.885,-2.9344,-2.9598,-2.9586,-2.967,-2.9767,-2.9803,-2.9864,-3.0045,-3.0503,-3.0588,-3.0576,-3.0612,-3.0648,-3.0781,-3.1022,-3.1252,-3.1493,-3.1722,-3.1807,-3.2222,-3.3073,-3.3498,-3.3922,-3.4768,-3.498,-3.4768,-3.4346,-3.371,-3.3286,-3.3273,-3.3883,-3.5727,-3.9018,-4.2302,-4.4783,-4.7256,-4.7835,-4.8249,-4.8231,-4.8139,-4.83,-4.8675,-4.8787,-4.8894,-4.9838,-5.0319,-5.0667,-5.1016,-5.0957,-5.1189,-5.263,-5.4381,-5.5828,0.1364,0.2147,0.0769,-0.1393,-0.3585,-0.4696,-0.5824,-0.7152,-0.7684,-0.8101,-0.8354,-0.8675,-0.868,-0.8657,-0.8371,-0.8119,-0.7619,-0.7619,-0.7935,-0.8418,-0.8763,-0.8997,-0.9244,-0.9288,-0.9613,-1.0233,-1.0988,-1.184,-1.2796,-1.3375,-1.4278,-1.569,-1.6729,-1.7455,-1.8233,-1.8576,-1.907,-2.011,-2.0203,-2.0743,-2.1549,-2.2262,-2.2697,-2.2924,-2.3304,-2.3461,-2.3612,-2.3332,-2.3289,-2.3504,-2.3938,-2.4587,-2.5658,-2.6568,-2.7063,-2.7148,-2.7329,-2.7534,-2.7799,-2.8149,-2.862,-2.9019,-2.9248,-2.9513,-2.9864,-2.9851,-2.99,-3.0069,-3.025,-3.0515,-3.0817,-3.1046,-3.1119,-3.1143,-3.1155,-3.124,-3.1457,-3.1602,-3.171,-3.1783,-3.1807,-3.2234,-3.3073,-3.3498,-3.3922,-3.498,-3.4768,-3.4346,-3.3922,-3.3286,-3.3684,-3.4702,-3.511,-3.5558,-3.89,-4.1439,-4.3549,-4.6215,-4.74,-4.8469,-4.8451,-4.8286,-4.8484,-4.8589,-4.8704,-4.9233,-5.0183,-5.0881,-5.1153,-5.1699,-5.1797,-5.2051,-5.2482,-5.3985,-5.6286,0.1843,0.2172,-0.0,-0.2178,-0.4234,-0.5195,-0.6181,-0.7031,-0.7405,-0.7653,-0.7897,-0.8182,-0.8362,-0.8543,-0.8258,-0.8033,-0.7713,-0.7713,-0.789,-0.8241,-0.8567,-0.8765,-0.9006,-0.9273,-0.9598,-1.035,-1.1073,-1.1902,-1.2686,-1.2869,-1.3571,-1.4801,-1.533,-1.6064,-1.6463,-1.7009,-1.7856,-1.8664,-1.9138,-2.0025,-2.1144,-2.2079,-2.2556,-2.3007,-2.3422,-2.3569,-2.3601,-2.3321,-2.3246,-2.3553,-2.393,-2.4977,-2.6018,-2.658,-2.7075,-2.7208,-2.7425,-2.7679,-2.7956,-2.8331,-2.8693,-2.9139,-2.9284,-2.9501,-2.9948,-2.9936,-3.0081,-3.0334,-3.0491,-3.0757,-3.1095,-3.1276,-3.1421,-3.1541,-3.1541,-3.1626,-3.1783,-3.1807,-3.1807,-3.1807,-3.202,-3.2648,-3.3286,-3.371,-3.4134,-3.498,-3.4768,-3.4134,-3.3498,-3.3073,-3.3883,-3.4702,-3.5124,-3.6425,-3.9033,-4.077,-4.231,-4.4548,-4.6575,-4.7906,-4.8799,-4.8432,-4.8286,-4.8663,-4.8871,-4.9441,-5.0179,-5.0978,-5.1465,-5.1973,-5.2441,-5.2522,-5.2994,-5.5842,-5.8133,0.2331,0.2039,-0.1254,-0.3292,-0.4559,-0.6191,-0.6879,-0.689,-0.7046,-0.7301,-0.7717,-0.7778,-0.7952,-0.8388,-0.7998,-0.7795,-0.7815,-0.7807,-0.7852,-0.8077,-0.8432,-0.8618,-0.8815,-0.9375,-1.0066,-1.0544,-1.1202,-1.1444,-1.181,-1.181,-1.2165,-1.3394,-1.3925,-1.4857,-1.5646,-1.6782,-1.6666,-1.7198,-1.8473,-1.9314,-1.9924,-2.1588,-2.2902,-2.307,-2.3593,-2.3698,-2.3558,-2.3461,-2.3418,-2.3596,-2.4508,-2.5247,-2.6182,-2.6676,-2.7184,-2.7389,-2.7667,-2.7956,-2.827,-2.8656,-2.9019,-2.9175,-2.9513,-2.9815,-2.9888,-3.0081,-3.0274,-3.0527,-3.0624,-3.0841,-3.124,-3.1421,-3.1541,-3.1747,-3.1759,-3.1783,-3.1807,-3.1807,-3.1807,-3.1807,-3.2222,-3.286,-3.3498,-3.3922,-3.4557,-3.4768,-3.4557,-3.3922,-3.3498,-3.286,-3.286,-3.3697,-3.5164,-3.655,-3.8778,-4.0003,-4.1364,-4.2548,-4.5106,-4.7094,-4.8544,-4.838,-4.8594,-4.8756,-4.9114,-4.9724,-5.0389,-5.1054,-5.1875,-5.2363,-5.2757,-5.2718,-5.422,-5.6599,-5.9004,0.1408,0.2039,-0.2506,-0.4884,-0.5881,-0.6702,-0.6941,-0.6703,-0.6654,-0.7044,-0.7462,-0.7347,-0.7693,-0.8165,-0.8036,-0.7864,-0.7946,-0.7929,-0.7946,-0.8032,-0.8269,-0.8463,-0.8844,-0.9539,-1.0194,-1.059,-1.1218,-1.1455,-1.1455,-1.1455,-1.1632,-1.1988,-1.2337,-1.2526,-1.2912,-1.328,-1.4229,-1.5988,-1.7057,-1.9045,-2.1394,-2.2515,-2.3352,-2.3849,-2.4,-2.3978,-2.3903,-2.3752,-2.4015,-2.4733,-2.4912,-2.5588,-2.6628,-2.7013,-2.7341,-2.7473,-2.7848,-2.8222,-2.8512,-2.8837,-2.9175,-2.955,-2.9719,-2.9876,-3.0093,-3.0177,-3.0346,-3.0576,-3.0769,-3.1022,-3.1348,-3.1566,-3.1722,-3.1783,-3.1807,-3.1807,-3.1807,-3.1807,-3.1807,-3.1807,-3.2222,-3.286,-3.3286,-3.3922,-3.4346,-3.4346,-3.4134,-3.3723,-3.3298,-3.3073,-3.286,-3.461,-3.5918,-3.6914,-3.8125,-3.9173,-4.0212,-4.1104,-4.327,-4.6063,-4.7147,-4.7834,-4.8398,-4.9232,-4.9771,-5.0345,-5.0968,-5.1537,-5.2282,-5.2734,-5.3086,-5.3443,-5.4283,-5.6066,-5.8749,-0.0158,-0.0628,-0.3642,-0.5575,-0.6564,-0.6616,-0.6516,-0.6557,-0.6557,-0.692,-0.7308,-0.7413,-0.7765,-0.8044,-0.7995,-0.7995,-0.8052,-0.8052,-0.8076,-0.8134,-0.8423,-0.8826,-0.9548,-1.0349,-1.1116,-1.0999,-1.1245,-1.1455,-1.1455,-1.1455,-1.1455,-1.1632,-1.1455,-1.1455,-1.1643,-1.1693,-1.2985,-1.5592,-1.668,-1.8698,-2.2121,-2.3075,-2.3473,-2.3838,-2.4043,-2.4118,-2.4086,-2.415,-2.4618,-2.515,-2.5263,-2.5669,-2.6833,-2.728,-2.7461,-2.7582,-2.7968,-2.8164,-2.8548,-2.9043,-2.9369,-2.9531,-2.9687,-3.0045,-3.0202,-3.031,-3.0491,-3.0757,-3.101,-3.1264,-3.1517,-3.1722,-3.1795,-3.1807,-3.1807,-3.1807,-3.1807,-3.1807,-3.1807,-3.202,-3.2222,-3.2648,-3.3073,-3.371,-3.3935,-3.416,-3.3935,-3.3523,-3.3311,-3.3298,-3.3361,-3.4953,-3.5937,-3.6326,-3.6986,-3.8053,-3.9285,-4.0149,-4.2611,-4.5198,-4.719,-4.8105,-4.8909,-4.9766,-5.0252,-5.0847,-5.1454,-5.2103,-5.2554,-5.3086,-5.3594,-5.4031,-5.4516,-5.589,-5.8655,-0.1744,-0.4099,-0.466,-0.5483,-0.6588,-0.6217,-0.6407,-0.67,-0.6745,-0.711,-0.7455,-0.7777,-0.7974,-0.8068,-0.8097,-0.8134,-0.8085,-0.8142,-0.8203,-0.8612,-0.9239,-0.9849,-1.0049,-1.1286,-1.1704,-1.1427,-1.1455,-1.1455,-1.1455,-1.1455,-1.1455,-1.1455,-1.1455,-1.1471,-1.1504,-1.158,-1.3245,-1.5658,-1.6795,-1.8949,-2.1777,-2.2871,-2.3289,-2.3753,-2.3849,-2.4151,-2.4151,-2.4474,-2.5001,-2.5605,-2.5365,-2.5943,-2.6893,-2.7329,-2.7582,-2.7872,-2.7984,-2.8188,-2.8386,-2.9111,-2.9375,-2.945,-2.9891,-3.0214,-3.025,-3.0383,-3.0612,-3.0926,-3.1203,-3.1421,-3.171,-3.1807,-3.1807,-3.1807,-3.1807,-3.1807,-3.1807,-3.1807,-3.1807,-3.1807,-3.2234,-3.2435,-3.286,-3.3086,-3.3723,-3.4147,-3.3948,-3.3787,-3.3838,-3.3876,-3.3992,-3.4802,-3.5376,-3.5534,-3.6219,-3.6719,-3.7934,-3.9152,-4.2234,-4.4953,-4.8247,-4.9459,-4.9772,-5.0504,-5.0972,-5.1352,-5.1865,-5.2316,-5.2949,-5.3183,-5.3737,-5.3914,-5.4234,-5.6307,-5.8638,-0.2384,-0.3868,-0.5297,-0.6114,-0.6324,-0.6735,-0.7256,-0.7569,-0.7585,-0.7797,-0.8173,-0.8132,-0.7987,-0.8064,-0.8097,-0.8113,-0.8158,-0.8203,-0.8436,-0.9284,-1.1221,-1.1148,-1.0859,-1.1223,-1.1245,-1.1455,-1.1455,-1.1455,-1.1455,-1.1455,-1.1455,-1.1455,-1.146,-1.1504,-1.159,-1.1804,-1.3126,-1.5767,-1.6872,-1.8992,-2.1605,-2.2515,-2.2984,-2.3494,-2.3536,-2.3846,-2.4301,-2.4745,-2.5112,-2.5742,-2.6017,-2.6506,-2.7121,-2.7582,-2.7836,-2.7936,-2.8368,-2.8581,-2.9087,-2.8942,-2.9214,-2.9867,-2.9951,-3.0214,-3.0214,-3.0298,-3.0552,-3.0877,-3.1071,-3.136,-3.1722,-3.1807,-3.1807,-3.1807,-3.2222,-3.2435,-3.2435,-3.202,-3.202,-3.202,-3.2234,-3.286,-3.3298,-3.3736,-3.3948,-3.4134,-3.4212,-3.4276,-3.4367,-3.4458,-3.4867,-3.5279,-3.5653,-3.6015,-3.6215,-3.7086,-3.8454,-3.9864,-4.2573,-4.5019,-4.8336,-5.0401,-5.0621,-5.0931,-5.1458,-5.1897,-5.2393,-5.2574,-5.2988,-5.3424,-5.3639,-5.3959,-5.4844,-5.6718,-5.9268,-0.3203,-0.3868,-0.5668,-0.6496,-0.634,-0.6866,-0.7374,-0.7876,-0.7909,-0.8119,-0.8497,-0.8157,-0.8023,-0.8068,-0.8109,-0.8158,-0.8211,-0.8637,-0.907,-0.9869,-1.1143,-1.1389,-1.1255,-1.1099,-1.1277,-1.146,-1.1455,-1.1455,-1.1455,-1.146,-1.1455,-1.1455,-1.146,-1.152,-1.1815,-1.2227,-1.3919,-1.6022,-1.7692,-1.9639,-2.1615,-2.2332,-2.2892,-2.3477,-2.3641,-2.4042,-2.478,-2.5084,-2.557,-2.6133,-2.6488,-2.6902,-2.7461,-2.7775,-2.7864,-2.7878,-2.8126,-2.8332,-2.859,-2.8849,-2.9096,-2.9772,-3.0011,-3.0214,-3.0298,-3.0407,-3.0684,-3.0974,-3.1228,-3.1529,-3.1771,-3.1807,-3.1807,-3.1807,-3.2222,-3.2648,-3.2648,-3.266,-3.2447,-3.2447,-3.2648,-3.286,-3.3298,-3.3774,-3.4225,-3.4238,-3.4789,-3.4854,-3.5204,-3.5323,-3.556,-3.5976,-3.6135,-3.6513,-3.6674,-3.7634,-3.9574,-4.134,-4.3676,-4.5968,-4.8424,-4.9994,-5.0973,-5.1246,-5.1735,-5.2444,-5.2924,-5.3105,-5.3286,-5.3398,-5.3776,-5.4322,-5.5684,-5.7859,-6.0805,-0.4025,-0.4168,-0.5878,-0.654,-0.6654,-0.7155,-0.7653,-0.8139,-0.8069,-0.8458,-0.8627,-0.8365,-0.8052,-0.8081,-0.8154,-0.8203,-0.8452,-0.907,-0.9693,-1.0445,-1.0864,-1.1255,-1.1282,-1.1482,-1.1498,-1.1482,-1.146,-1.146,-1.1487,-1.1465,-1.146,-1.146,-1.1487,-1.1569,-1.2034,-1.3023,-1.4186,-1.5715,-1.7141,-1.9087,-2.0866,-2.1742,-2.2288,-2.3613,-2.4005,-2.4323,-2.501,-2.5544,-2.6041,-2.6394,-2.7157,-2.7486,-2.7642,-2.7721,-2.7902,-2.7569,-2.7868,-2.8021,-2.8521,-2.8766,-2.9415,-2.9593,-3.0011,-3.025,-3.0371,-3.0612,-3.0877,-3.1167,-3.1445,-3.1747,-3.1807,-3.1807,-3.1807,-3.202,-3.2435,-3.2648,-3.286,-3.3298,-3.3498,-3.2873,-3.3073,-3.3286,-3.3374,-3.3876,-3.4102,-3.4393,-3.4971,-3.541,-3.5763,-3.6006,-3.6259,-3.6241,-3.662,-3.6907,-3.7262,-3.9019,-4.0749,-4.2635,-4.476,-4.6628,-4.8759,-4.9809,-5.0804,-5.139,-5.1811,-5.2703,-5.3463,-5.3565,-5.3683,-5.3613,-5.4643,-5.6123,-5.7445,-5.901,-6.1794,-0.3986,-0.5021,-0.5638,-0.6257,-0.7065,-0.8002,-0.8666,-0.9293,-0.9118,-0.9207,-0.9045,-0.839,-0.806,-0.8085,-0.8158,-0.8444,-0.9078,-0.9518,-1.0097,-1.0687,-1.1094,-1.1455,-1.1471,-1.1547,-1.159,-1.158,-1.1536,-1.1531,-1.1563,-1.1514,-1.1504,-1.1493,-1.1563,-1.1667,-1.1759,-1.2174,-1.3321,-1.4644,-1.5604,-1.7262,-1.9149,-2.0354,-2.1306,-2.3313,-2.3978,-2.4549,-2.5228,-2.5774,-2.611,-2.6641,-2.7421,-2.7836,-2.7805,-2.7771,-2.7842,-2.7809,-2.772,-2.781,-2.8684,-2.9427,-2.9999,-3.0023,-3.0214,-3.0346,-3.0491,-3.0648,-3.0938,-3.13,-3.159,-3.1807,-3.1807,-3.1807,-3.202,-3.2435,-3.286,-3.3498,-3.3922,-3.4346,-3.4346,-3.3723,-3.3723,-3.3736,-3.3812,-3.4167,-3.4711,-3.527,-3.5574,-3.6029,-3.6286,-3.6353,-3.6527,-3.67,-3.6861,-3.7343,-3.7839,-4.0198,-4.2327,-4.3954,-4.6001,-4.7635,-4.9049,-4.9809,-5.0579,-5.1143,-5.2135,-5.3027,-5.3526,-5.3706,-5.3447,-5.3066,-5.5221,-5.8034,-5.8815,-5.9592,-6.1705,-0.4623,-0.5474,-0.6081,-0.6705,-0.7513,-0.8558,-0.9249,-0.9435,-0.9254,-0.9188,-0.8892,-0.8399,-0.806,-0.8085,-0.8158,-0.8641,-0.949,-1.0117,-1.0687,-1.1094,-1.1455,-1.1455,-1.1476,-1.1585,-1.1672,-1.1699,-1.1672,-1.1667,-1.1721,-1.1683,-1.1634,-1.1661,-1.171,-1.1792,-1.2041,-1.2759,-1.3315,-1.4081,-1.4828,-1.592,-1.7969,-1.9009,-2.1011,-2.2072,-2.3874,-2.4999,-2.5615,-2.6142,-2.6631,-2.7152,-2.7613,-2.8041,-2.802,-2.7997,-2.7827,-2.7996,-2.7858,-2.7924,-2.8778,-2.9486,-2.9616,-3.0226,-3.0214,-3.0346,-3.0564,-3.0757,-3.1046,-3.1469,-3.1674,-3.1807,-3.1807,-3.1807,-3.202,-3.2648,-3.3073,-3.371,-3.4359,-3.4782,-3.4808,-3.4398,-3.4398,-3.4424,-3.4212,-3.4819,-3.5484,-3.5952,-3.6219,-3.6611,-3.6772,-3.6647,-3.6754,-3.7028,-3.737,-3.8748,-3.9408,-4.1333,-4.3636,-4.5481,-4.7108,-4.852,-4.9658,-5.04,-5.0667,-5.1057,-5.2141,-5.309,-5.3031,-5.3172,-5.2835,-5.3014,-5.5942,-5.8449,-5.9333,-6.0535,-6.2654,-0.5254,-0.5731,-0.668,-0.7326,-0.7819,-0.8959,-0.9352,-0.9288,-0.9071,-0.9004,-0.8729,-0.8232,-0.8072,-0.8117,-0.8386,-0.9039,-0.9907,-1.053,-1.0911,-1.1282,-1.1493,-1.1498,-1.1531,-1.1639,-1.177,-1.1851,-1.1938,-1.1895,-1.1846,-1.1803,-1.1813,-1.1808,-1.1824,-1.1889,-1.2129,-1.2817,-1.3499,-1.4061,-1.4651,-1.5568,-1.6506,-1.8425,-2.0073,-2.0774,-2.3361,-2.4953,-2.5417,-2.6662,-2.7169,-2.7709,-2.8065,-2.8318,-2.8391,-2.8188,-2.8232,-2.8273,-2.8241,-2.8498,-2.9037,-2.938,-2.9736,-3.0202,-3.0214,-3.0383,-3.0708,-3.1022,-3.1348,-3.171,-3.1807,-3.1807,-3.1807,-3.202,-3.2234,-3.286,-3.3286,-3.3948,-3.4662,-3.5139,-3.5418,-3.5205,-3.5351,-3.5165,-3.5019,-3.5204,-3.5912,-3.6179,-3.6446,-3.6593,-3.674,-3.6807,-3.6874,-3.7095,-3.8046,-4.011,-4.1422,-4.2666,-4.4725,-4.6737,-4.8211,-4.9566,-5.0252,-5.0917,-5.1238,-5.1647,-5.1967,-5.2637,-5.2737,-5.2955,-5.345,-5.4558,-5.733,-5.9352,-6.0793,-6.2153,-6.3993,-0.5347,-0.5821,-0.6605,-0.7429,-0.83,-0.887,-0.945,-0.9717,-0.8999,-0.8725,-0.8571,-0.824,-0.8113,-0.8382,-0.8874,-0.936,-0.9983,-1.0565,-1.0942,-1.1493,-1.1569,-1.1618,-1.165,-1.1851,-1.19,-1.1976,-1.215,-1.2145,-1.2015,-1.1895,-1.1851,-1.1873,-1.1944,-1.1982,-1.2004,-1.2331,-1.2151,-1.232,-1.2437,-1.3358,-1.5142,-1.7185,-1.8367,-1.9671,-2.1577,-2.3648,-2.4546,-2.6219,-2.7663,-2.8272,-2.8512,-2.8693,-2.8874,-2.8934,-2.9115,-2.8819,-2.8694,-2.8416,-2.9154,-2.9665,-2.9867,-3.0189,-3.0035,-3.0491,-3.0474,-3.0927,-3.1449,-3.1759,-3.1807,-3.1807,-3.202,-3.2234,-3.2648,-3.3311,-3.3748,-3.4515,-3.5258,-3.5378,-3.5658,-3.5738,-3.5725,-3.5698,-3.5497,-3.5925,-3.6153,-3.642,-3.6647,-3.6794,-3.6887,-3.6914,-3.7316,-3.7509,-3.8786,-4.1041,-4.3237,-4.4495,-4.6202,-4.8193,-4.9275,-5.056,-5.1127,-5.1847,-5.2099,-5.2309,-5.2574,-5.2656,-5.2734,-5.341,-5.4223,-5.5942,-5.8363,-6.0601,-6.283,-6.4273,-6.5413,-0.5335,-0.6121,-0.6953,-0.7781,-0.8313,-0.9102,-0.9366,-0.9095,-0.886,-0.8571,-0.8412,-0.829,-0.8215,-0.8519,-0.897,-0.9401,-1.0026,-1.0625,-1.1019,-1.14,-1.1672,-1.1737,-1.1775,-1.19,-1.1987,-1.2042,-1.2145,-1.2183,-1.2102,-1.2118,-1.2123,-1.2102,-1.2091,-1.2091,-1.2069,-1.202,-1.1993,-1.1971,-1.214,-1.2348,-1.3602,-1.5323,-1.6855,-1.7535,-2.0087,-2.216,-2.4034,-2.555,-2.7444,-2.8474,-2.8958,-2.9103,-2.92,-2.9248,-2.9344,-2.9574,-2.9207,-2.92,-2.9879,-3.0105,-3.0141,-2.9819,-2.9542,-2.8802,-2.8823,-2.982,-3.05,-3.0274,-3.1569,-3.2222,-3.2222,-3.2435,-3.3073,-3.3736,-3.425,-3.4833,-3.5431,-3.5819,-3.5925,-3.6019,-3.6099,-3.6072,-3.6072,-3.6219,-3.6366,-3.65,-3.67,-3.6847,-3.7135,-3.737,-3.7729,-3.8059,-3.9748,-4.1897,-4.4056,-4.5984,-4.7808,-4.9448,-5.0163,-5.1218,-5.2212,-5.2655,-5.2888,-5.2994,-5.3301,-5.3183,-5.3325,-5.3767,-5.4521,-5.6738,-5.9398,-6.1592,-6.3797,-6.5071,-6.607,-0.5501,-0.6309,-0.7156,-0.7844,-0.8219,-0.9178,-0.9259,-0.8641,-0.8536,-0.8399,-0.8261,-0.8179,-0.8326,-0.8628,-0.9022,-0.9437,-0.9857,-1.0505,-1.0901,-1.132,-1.1593,-1.1667,-1.19,-1.1976,-1.2042,-1.2036,-1.2188,-1.2227,-1.2254,-1.2275,-1.2303,-1.2308,-1.2183,-1.2167,-1.2145,-1.2096,-1.2047,-1.2047,-1.2042,-1.2267,-1.2739,-1.4019,-1.495,-1.6444,-1.834,-2.0871,-2.3071,-2.5135,-2.68,-2.7743,-2.9051,-2.9344,-2.9369,-2.9453,-2.9562,-2.9731,-2.9658,-2.9815,-3.0081,-3.0141,-3.0202,-2.9746,-2.8963,-2.8037,-2.6814,-2.8167,-2.9608,-2.9619,-3.0702,-3.1996,-3.2648,-3.286,-3.3498,-3.4225,-3.4793,-3.5151,-3.5551,-3.6019,-3.6259,-3.642,-3.6487,-3.6487,-3.65,-3.6567,-3.6633,-3.6647,-3.6754,-3.6914,-3.7149,-3.7563,-3.7867,-3.8384,-4.0498,-4.2908,-4.6085,-4.7984,-4.971,-5.0505,-5.1218,-5.1969,-5.2813,-5.3147,-5.3197,-5.3363,-5.3808,-5.4798,-5.5283,-5.4945,-5.4861,-5.8012,-6.0911,-6.2798,-6.467,-6.5751,-6.6472,-0.5212,-0.5747,-0.6705,-0.7432,-0.7897,-0.8419,-0.8645,-0.8544,-0.8223,-0.824,-0.8113,-0.8244,-0.8383,-0.8653,-0.8905,-0.9304,-0.933,-0.9964,-1.0564,-1.0826,-1.1115,-1.1589,-1.1828,-1.2074,-1.2145,-1.2161,-1.2232,-1.2292,-1.2319,-1.227,-1.2259,-1.2194,-1.2183,-1.2178,-1.2167,-1.2145,-1.2129,-1.2129,-1.2134,-1.215,-1.2433,-1.3141,-1.3715,-1.4636,-1.675,-1.894,-1.9662,-2.3163,-2.5938,-2.6507,-2.8206,-2.9453,-2.9501,-2.967,-2.9815,-2.9864,-2.9984,-3.0093,-3.0165,-3.0307,-3.0177,-3.0141,-2.9283,-2.7441,-2.5663,-2.6253,-2.7649,-2.9619,-3.0691,-3.1771,-3.306,-3.3922,-3.4134,-3.4515,-3.5138,-3.5604,-3.6032,-3.6313,-3.6553,-3.6794,-3.6834,-3.6754,-3.674,-3.6767,-3.678,-3.678,-3.6794,-3.6941,-3.7289,-3.7675,-3.8152,-3.8896,-4.1239,-4.4172,-4.828,-4.9981,-5.037,-5.1162,-5.1856,-5.2702,-5.3512,-5.3622,-5.3731,-5.4336,-5.4864,-5.6168,-5.7433,-5.7414,-5.8118,-6.0222,-6.2449,-6.4074,-6.5118,-6.6124,-6.6472,-0.5191,-0.5604,-0.6217,-0.6884,-0.76,-0.8152,-0.8365,-0.8227,-0.8232,-0.813,-0.8232,-0.8362,-0.8468,-0.8546,-0.8765,-0.9178,-0.9419,-0.9689,-1.0119,-1.0591,-1.1076,-1.1334,-1.1752,-1.1946,-1.2172,-1.2178,-1.2221,-1.2243,-1.2227,-1.2178,-1.2178,-1.215,-1.2156,-1.2172,-1.2172,-1.2178,-1.2178,-1.2172,-1.2183,-1.2389,-1.2881,-1.3006,-1.375,-1.4668,-1.5512,-1.7621,-1.9364,-2.1029,-2.3488,-2.5787,-2.7115,-2.838,-2.9459,-2.9888,-3.0008,-3.002,-3.0165,-3.0202,-3.0226,-3.0153,-2.9483,-2.783,-2.7134,-2.6306,-2.4693,-2.589,-2.7434,-2.8963,-3.0904,-3.2623,-3.3697,-3.4147,-3.4411,-3.5032,-3.5511,-3.6019,-3.6259,-3.6527,-3.6714,-3.6874,-3.6914,-3.6887,-3.6901,-3.6914,-3.6914,-3.6927,-3.6927,-3.7135,-3.7468,-3.777,-3.8027,-3.9228,-4.1347,-4.5873,-5.0251,-5.089,-5.0767,-5.1631,-5.2531,-5.3134,-5.3777,-5.4364,-5.4551,-5.5012,-5.5611,-5.6741,-5.7913,-5.9503,-6.0765,-6.2085,-6.34,-6.4687,-6.566,-6.652,-6.7027,-0.5234,-0.5322,-0.5633,-0.6295,-0.6981,-0.7702,-0.7897,-0.7897,-0.806,-0.8166,-0.8338,-0.8432,-0.8522,-0.8591,-0.8611,-0.8836,-0.9101,-0.9373,-0.9838,-1.0492,-1.0959,-1.1406,-1.1605,-1.1972,-1.215,-1.2134,-1.2112,-1.2112,-1.2058,-1.1605,-1.1615,-1.1668,-1.1726,-1.1553,-1.2183,-1.221,-1.221,-1.2183,-1.2221,-1.2444,-1.2938,-1.3433,-1.3988,-1.4915,-1.5718,-1.6474,-1.8127,-1.9573,-2.1813,-2.4347,-2.6315,-2.766,-2.9037,-3.002,-3.0177,-3.0214,-3.0214,-3.0214,-3.0441,-3.0419,-2.9582,-2.8302,-2.7941,-2.6418,-2.5231,-2.6569,-2.8091,-2.9382,-3.1759,-3.3697,-3.4147,-3.4649,-3.4966,-3.5378,-3.6006,-3.6299,-3.6446,-3.6674,-3.6794,-3.6927,-3.6941,-3.6941,-3.6941,-3.6941,-3.6941,-3.6941,-3.6941,-3.7081,-3.7359,-3.7647,-3.7902,-3.9328,-4.1256,-4.6593,-5.2091,-5.1485,-5.1092,-5.2534,-5.3191,-5.3545,-5.415,-5.4717,-5.5452,-5.6107,-5.6843,-5.7287,-5.8861,-6.0743,-6.2211,-6.3208,-6.4403,-6.5731,-6.6176,-6.6843,-6.7556,-0.5158,-0.521,-0.527,-0.5657,-0.6208,-0.7056,-0.7394,-0.7566,-0.7917,-0.8179,-0.8338,-0.8436,-0.8526,-0.8595,-0.8607,-0.866,-0.8738,-0.9011,-0.9473,-1.0128,-1.0606,-1.1217,-1.1789,-1.1962,-1.2102,-1.2015,-1.1998,-1.1971,-1.19,-0.9991,-1.0179,-1.1001,-1.0904,-1.1141,-1.2178,-1.2286,-1.2281,-1.2205,-1.2281,-1.2701,-1.3164,-1.3837,-1.4397,-1.5196,-1.5685,-1.6419,-1.7113,-1.8221,-2.024,-2.2613,-2.4967,-2.6726,-2.8919,-2.9843,-3.0202,-3.0214,-3.0214,-3.0429,-3.0871,-3.1314,-3.1022,-2.999,-2.9573,-2.8897,-2.808,-2.8522,-2.9382,-3.0453,-3.2173,-3.3485,-3.4424,-3.5431,-3.5551,-3.5845,-3.6259,-3.65,-3.6647,-3.6754,-3.6874,-3.6941,-3.6941,-3.6941,-3.6941,-3.6941,-3.6941,-3.6941,-3.6941,-3.7068,-3.7592,-3.7906,-3.8216,-3.9545,-4.1529,-4.6123,-5.072,-5.1096,-5.1411,-5.3026,-5.3815,-5.3905,-5.4365,-5.4733,-5.5686,-5.6903,-5.801,-5.8818,-6.0636,-6.2438,-6.3363,-6.4408,-6.5283,-6.6382,-6.6867,-6.7421,-6.8154,-0.5207,-0.5264,-0.5286,-0.5493,-0.5714,-0.656,-0.7059,-0.7417,-0.8017,-0.8277,-0.8358,-0.8489,-0.857,-0.8603,-0.8615,-0.8656,-0.8738,-0.8828,-0.9288,-0.9568,-1.0234,-1.0834,-1.1401,-1.1919,-1.2053,-1.2004,-1.196,-1.1568,-1.1801,-0.8668,-0.8354,-0.9377,-1.0919,-1.1747,-1.2167,-1.2221,-1.2199,-1.2183,-1.2416,-1.2679,-1.3608,-1.4067,-1.4599,-1.5658,-1.6069,-1.6137,-1.6252,-1.7297,-1.8543,-2.0682,-2.3012,-2.524,-2.7437,-2.8537,-2.9999,-3.0011,-3.0023,-2.9986,-3.0648,-3.1255,-3.2299,-3.1421,-3.0941,-3.0453,-2.8726,-2.9811,-3.0881,-3.196,-3.3035,-3.4186,-3.5272,-3.5551,-3.5725,-3.6153,-3.65,-3.6633,-3.6767,-3.6847,-3.6941,-3.6941,-3.6941,-3.6941,-3.6941,-3.6941,-3.6941,-3.6941,-3.6941,-3.774,-3.8335,-3.8431,-3.8757,-4.0169,-4.2465,-4.6324,-4.9314,-5.0152,-5.2056,-5.3862,-5.4177,-5.3944,-5.4365,-5.5184,-5.6373,-5.758,-5.9065,-6.0505,-6.1727,-6.2997,-6.4341,-6.5353,-6.6076,-6.6472,-6.6682,-6.7653,-6.9007,-0.5226,-0.5264,-0.5308,-0.5349,-0.5549,-0.6392,-0.7059,-0.7592,-0.8081,-0.8334,-0.8375,-0.8526,-0.8607,-0.8607,-0.8615,-0.8652,-0.8738,-0.8828,-0.9288,-0.9568,-1.0229,-1.1028,-1.139,-1.1512,-1.0899,-1.0664,-1.0018,-0.9793,-0.9829,-0.6592,-0.6644,-0.8633,-1.0973,-1.1741,-1.2161,-1.221,-1.2221,-1.2227,-1.2455,-1.3124,-1.3795,-1.4261,-1.497,-1.573,-1.6001,-1.6035,-1.6069,-1.6488,-1.712,-1.9219,-2.1195,-2.3039,-2.5245,-2.6884,-2.8133,-2.8144,-2.8677,-2.8471,-2.8994,-2.9909,-3.0716,-3.1082,-3.1674,-3.1735,-3.1095,-3.2173,-3.2823,-3.3472,-3.4557,-3.4953,-3.5578,-3.5645,-3.5992,-3.642,-3.6647,-3.678,-3.6834,-3.6927,-3.6941,-3.6941,-3.6941,-3.6941,-3.6941,-3.6941,-3.6941,-3.6941,-3.7176,-3.7989,-3.882,-3.8958,-3.9316,-4.0724,-4.2221,-4.5649,-4.8295,-4.9915,-5.1972,-5.47,-5.4785,-5.4639,-5.5606,-5.6635,-5.7352,-5.8197,-5.968,-6.1141,-6.2176,-6.3335,-6.4648,-6.5561,-6.619,-6.6424,-6.6472,-6.8021,-6.9732,-0.5199,-0.5221,-0.533,-0.5379,-0.5552,-0.6392,-0.7227,-0.8081,-0.8256,-0.8334,-0.8346,-0.853,-0.8425,-0.8429,-0.8429,-0.8106,-0.8186,-0.827,-0.8901,-0.9559,-0.9651,-1.0645,-1.1217,-1.1334,-1.0151,-0.7828,-0.646,-0.6769,-0.6942,-0.6602,-0.6666,-0.8043,-1.0727,-1.172,-1.2183,-1.2232,-1.2237,-1.2422,-1.2707,-1.3345,-1.3951,-1.4417,-1.5133,-1.5649,-1.59,-1.5967,-1.6029,-1.6282,-1.7421,-1.8761,-1.993,-2.1377,-2.2793,-2.3981,-2.4412,-2.4903,-2.6099,-2.6546,-2.6797,-2.7887,-2.955,-3.0988,-3.3434,-3.4544,-3.4768,-3.4332,-3.4332,-3.4583,-3.5046,-3.5232,-3.5618,-3.5912,-3.6206,-3.6513,-3.6767,-3.6861,-3.6914,-3.6941,-3.6941,-3.6941,-3.6941,-3.6941,-3.6941,-3.6941,-3.6954,-3.7202,-3.7672,-3.8211,-3.9042,-3.9475,-3.9878,-4.0824,-4.2583,-4.4711,-4.7033,-4.9084,-5.1454,-5.39,-5.5425,-5.5743,-5.672,-5.7854,-5.9113,-6.0113,-6.0771,-6.1827,-6.2911,-6.3852,-6.4599,-6.5508,-6.6352,-6.677,-6.7027,-6.9014,-7.0758,-0.5164,-0.521,-0.5289,-0.551,-0.605,-0.6892,-0.7562,-0.8085,-0.8252,-0.8334,-0.8346,-0.853,-0.7706,-0.663,-0.6451,-0.5747,-0.561,-0.6036,-0.6826,-0.7456,-0.8109,-0.9349,-0.9733,-0.9471,-0.9044,-0.8218,-0.6466,-0.4381,-0.4944,-0.571,-0.725,-0.8057,-1.0746,-1.1752,-1.2167,-1.221,-1.2205,-1.2422,-1.2927,-1.3519,-1.392,-1.4385,-1.5107,-1.5596,-1.544,-1.5723,-1.6035,-1.6076,-1.6806,-1.7343,-1.9088,-2.0493,-2.0875,-2.3091,-2.4451,-2.529,-2.5909,-2.6354,-2.5506,-2.8272,-3.0372,-3.0419,-3.3035,-3.4768,-3.5204,-3.5204,-3.5204,-3.5231,-3.5378,-3.5578,-3.5832,-3.6126,-3.642,-3.6687,-3.6874,-3.6901,-3.6941,-3.6941,-3.6941,-3.6941,-3.6941,-3.6941,-3.6941,-3.6941,-3.7176,-3.7451,-3.7948,-3.8681,-3.9278,-3.9712,-4.0553,-4.1488,-4.2437,-4.4458,-4.6599,-4.8643,-5.1005,-5.3102,-5.4796,-5.6477,-5.758,-5.8937,-6.0849,-6.1727,-6.2144,-6.286,-6.4038,-6.4648,-6.514,-6.5699,-6.6472,-6.7212,-6.7922,-6.9761,-7.1801,-0.5169,-0.5215,-0.5488,-0.6056,-0.6765,-0.7274,-0.7612,-0.7808,-0.8101,-0.7999,-0.7349,-0.7296,-0.6451,-0.4838,-0.448,-0.4124,-0.3411,-0.4185,-0.4963,-0.5377,-0.6008,-0.6835,-0.7233,-0.8156,-0.8293,-0.7483,-0.5567,-0.3308,-0.3868,-0.6131,-0.8068,-0.7928,-1.063,-1.1784,-1.2188,-1.2232,-1.2449,-1.2656,-1.3078,-1.368,-1.4112,-1.4354,-1.5041,-1.5549,-1.5185,-1.5493,-1.6056,-1.6083,-1.6191,-1.6354,-1.8112,-1.8663,-1.9251,-2.1285,-2.2662,-2.3271,-2.3685,-2.4306,-2.4718,-2.6653,-2.8468,-3.0239,-3.2173,-3.3684,-3.498,-3.5204,-3.5204,-3.5231,-3.5485,-3.5738,-3.6032,-3.6326,-3.662,-3.6901,-3.6914,-3.6927,-3.6941,-3.6941,-3.6941,-3.6941,-3.6941,-3.6941,-3.6941,-3.7162,-3.7397,-3.7866,-3.8335,-3.9039,-3.9458,-3.9949,-4.1236,-4.2689,-4.3118,-4.4286,-4.6352,-4.86,-5.0715,-5.3006,-5.5096,-5.6737,-5.8147,-5.9897,-6.1839,-6.2652,-6.3058,-6.394,-6.4413,-6.4953,-6.5472,-6.6315,-6.7358,-6.8425,-6.9289,-7.0171,-7.2388,-0.5032,-0.5207,-0.6056,-0.6802,-0.734,-0.7337,-0.7177,-0.7366,-0.7446,-0.6989,-0.5822,-0.5533,-0.4487,-0.2868,-0.2688,-0.233,-0.1978,-0.2358,-0.3116,-0.3506,-0.4483,-0.548,-0.722,-0.8323,-0.6025,-0.3936,-0.2983,-0.2958,-0.3713,-0.5978,-0.791,-0.7795,-1.0649,-1.2183,-1.2227,-1.2477,-1.2729,-1.338,-1.374,-1.4304,-1.4476,-1.468,-1.4924,-1.5428,-1.5314,-1.5205,-1.581,-1.6137,-1.6232,-1.6422,-1.6783,-1.7106,-1.8314,-1.9307,-2.0248,-2.1255,-2.23,-2.334,-2.4589,-2.6488,-2.8693,-3.0453,-3.196,-3.3472,-3.4768,-3.5204,-3.5204,-3.5378,-3.5618,-3.5912,-3.6206,-3.6473,-3.6754,-3.6901,-3.6927,-3.6941,-3.6941,-3.6941,-3.6941,-3.6941,-3.6941,-3.6941,-3.6941,-3.7162,-3.7604,-3.8059,-3.8734,-3.9423,-3.9991,-4.0515,-4.1784,-4.3278,-4.358,-4.4363,-4.7171,-4.9372,-5.0827,-5.2908,-5.5243,-5.7771,-5.9702,-6.1453,-6.3035,-6.3272,-6.3485,-6.4033,-6.4624,-6.5259,-6.5919,-6.7407,-6.8559,-7.0003,-7.0884,-7.1523,-7.3883,-0.385,-0.4339,-0.6266,-0.7198,-0.726,-0.6296,-0.5833,-0.5882,-0.4546,-0.4399,-0.4774,-0.3947,-0.2525,-0.0897,-0.0717,-0.0179,0.0719,-0.0362,-0.1097,-0.1477,-0.2239,-0.3957,-0.5702,-0.3972,-0.2448,-0.2999,-0.2987,-0.3168,-0.3934,-0.5826,-0.7726,-0.7981,-1.0659,-1.2216,-1.2292,-1.2746,-1.3216,-1.3703,-1.4261,-1.4546,-1.4661,-1.5028,-1.5159,-1.5327,-1.5341,-1.5473,-1.5857,-1.6205,-1.6334,-1.6497,-1.6639,-1.7411,-1.8417,-1.9174,-1.9969,-2.0996,-2.243,-2.3888,-2.5547,-2.7597,-3.0216,-3.1521,-3.3035,-3.4332,-3.498,-3.5204,-3.5297,-3.5525,-3.5778,-3.6072,-3.6353,-3.662,-3.6834,-3.6887,-3.6941,-3.6941,-3.6941,-3.6941,-3.6941,-3.6941,-3.6941,-3.6941,-3.7162,-3.7383,-3.8046,-3.8486,-3.9146,-3.9818,-4.0693,-4.1323,-4.2334,-4.3535,-4.3348,-4.4569,-4.7639,-5.0179,-5.1667,-5.3858,-5.6233,-5.874,-6.1304,-6.2551,-6.3623,-6.3531,-6.3676,-6.4789,-6.5189,-6.5189,-6.6128,-6.8119,-6.9621,-7.0932,-7.2982,-7.4032,-7.6331,-0.2555,-0.2883,-0.4276,-0.519,-0.5084,-0.4473,-0.416,-0.3657,-0.2127,-0.1784,-0.2312,-0.1617,-0.0541,0.1077,0.1256,0.1615,0.2697,0.1804,0.1095,0.0739,-0.0186,-0.1129,-0.0945,-0.1136,-0.1706,-0.2456,-0.3016,-0.3395,-0.417,-0.6055,-0.7771,-0.8755,-1.1067,-1.2286,-1.2565,-1.3023,-1.3509,-1.4177,-1.4756,-1.5041,-1.4898,-1.5035,-1.5334,-1.5301,-1.5387,-1.5532,-1.5877,-1.6225,-1.6374,-1.6756,-1.7134,-1.8157,-1.8941,-1.9891,-2.0293,-2.1548,-2.2991,-2.5058,-2.693,-2.9371,-3.2173,-3.3248,-3.4108,-3.498,-3.5191,-3.5217,-3.5338,-3.5565,-3.5845,-3.6139,-3.642,-3.67,-3.6834,-3.6927,-3.6941,-3.6941,-3.6941,-3.6941,-3.6941,-3.6941,-3.6941,-3.7162,-3.7383,-3.8046,-3.8486,-3.9146,-3.9585,-4.0037,-4.0912,-4.2187,-4.3177,-4.4305,-4.4409,-4.5843,-4.8948,-5.1233,-5.2756,-5.4961,-5.7194,-6.0353,-6.3139,-6.3729,-6.4212,-6.4571,-6.5189,-6.6052,-6.631,-6.6622,-6.7625,-6.9646,-7.083,-7.209,-7.4077,-7.6385,-7.8762,-0.1121,-0.1292,-0.1992,-0.2197,-0.2566,-0.2441,-0.21,-0.1572,-0.0358,0.0542,0.0717,0.0359,0.1436,0.2335,0.3233,0.3233,0.3237,0.3609,0.3466,0.2389,0.1665,-0.0,-0.113,-0.1326,-0.1893,-0.2277,-0.2849,-0.4006,-0.5179,-0.6865,-0.836,-0.991,-1.1312,-1.2362,-1.2632,-1.3143,-1.3857,-1.4434,-1.499,-1.5314,-1.5241,-1.5202,-1.5255,-1.5321,-1.5407,-1.5552,-1.5904,-1.6252,-1.6402,-1.7221,-1.7869,-1.8896,-1.9492,-2.0245,-2.0634,-2.1682,-2.4149,-2.6203,-2.8038,-3.0667,-3.3035,-3.4544,-3.498,-3.5204,-3.5204,-3.5311,-3.5431,-3.5672,-3.5952,-3.6233,-3.6527,-3.6727,-3.6861,-3.6941,-3.6941,-3.6941,-3.6941,-3.6941,-3.6941,-3.6941,-3.7162,-3.7383,-3.7825,-3.8266,-3.8926,-3.9585,-4.0037,-4.0256,-4.0912,-4.2836,-4.4178,-4.5712,-4.6711,-4.8614,-5.0444,-5.2138,-5.3683,-5.6131,-5.867,-6.2103,-6.4553,-6.4518,-6.5297,-6.6488,-6.7236,-6.7786,-6.8782,-6.968,-7.0594,-7.1576,-7.3328,-7.4752,-7.5943,-7.8231,-8.0757,-0.0162,-0.1166,-0.201,-0.1859,-0.1197,-0.0693,-0.0348,-0.0,0.1604,0.2337,0.2335,0.2334,0.2694,0.3053,0.4126,0.4485,0.4491,0.5231,0.435,0.2921,0.2024,0.0185,-0.1309,-0.227,-0.2817,-0.3024,-0.3242,-0.4009,-0.5756,-0.7065,-0.8375,-1.0099,-1.1724,-1.2598,-1.3291,-1.3816,-1.4515,-1.4896,-1.5257,-1.5784,-1.5791,-1.575,-1.5716,-1.5791,-1.59,-1.6083,-1.6259,-1.6402,-1.6756,-1.7569,-1.8634,-1.9446,-2.0025,-2.0618,-2.1019,-2.1991,-2.4467,-2.6478,-2.85,-3.1095,-3.3248,-3.4332,-3.4557,-3.4768,-3.4834,-3.5219,-3.5391,-3.5872,-3.6153,-3.6393,-3.666,-3.6807,-3.6941,-3.6941,-3.6941,-3.6941,-3.6941,-3.6941,-3.6941,-3.7162,-3.7383,-3.7604,-3.7825,-3.8486,-3.9366,-3.9818,-4.0256,-4.049,-4.1115,-4.3037,-4.5169,-4.6872,-4.8368,-4.953,-5.0791,-5.3032,-5.4901,-5.7331,-5.9743,-6.2606,-6.4473,-6.4828,-6.5833,-6.7458,-6.8656,-6.935,-7.0631,-7.2193,-7.3585,-7.4796,-7.6577,-7.8093,-7.8733,-7.964,-8.1546]},{"header":{"parameterUnit":"m.s-1","parameterCategory":1,"la1":31.0,"la2":29.5877,"lo1":-88.7671,"lo2":-86.6584,"dx":0.0162,"dy":0.0185,"nx":115,"ny":88,"refTime":"2023-01-03T18:00:00:Z","depth":0,"parameterNumber":3,"parameterNumberName":"V-component_of_WINDS"},"data":[0.0,0.0,0.0,0.0,0.0,0.0,0.0,0.0,0.0,0.0,0.0,0.0,0.0,0.0,0.0,0.0,0.0,0.0,0.0,0.0,0.0,0.0,0.0,0.0,0.0,0.0,0.0,0.0,0.0,0.0,0.0,0.0,0.0,0.0,0.0,0.0,0.0,0.0,0.0,0.0,0.0,0.0,0.0,0.0,0.0,0.0,0.0,0.0,0.0,0.0,0.0,0.0,0.0,0.0,0.0,0.0,0.0,0.0,0.0,0.0,0.0,0.0,0.0,0.0,0.0,0.0,0.0,0.0,0.0,0.0,0.0,0.0,0.0,0.0,0.0,0.0,0.0,0.0,0.0,0.0,0.0,0.0,0.0,0.0,0.0,0.0,0.0,0.0,0.0,0.0,0.0,0.0,0.0,0.0,0.0,0.0,0.0,0.0,0.0,0.0,0.0,0.0,0.0,0.0,0.0,0.0,0.0,0.0,0.0,0.0,0.0,0.0,0.0,0.0,0.0,0.0,0.0,0.0,0.0,0.0,0.0,0.0,0.0,0.0,0.0,0.0,0.0,0.0,0.0,0.0,0.0,0.0,0.0,0.0,0.0,0.0,0.0,0.0,0.0,0.0,0.0,0.0,0.0,0.0,0.0,0.0,0.0,0.0,0.0,0.0,0.0,0.0,0.0,0.0,0.0,0.0,0.0,0.0,0.0,0.0,0.0,0.0,0.0,0.0,0.0,0.0,0.0,0.0,0.0,0.0,0.0,0.0,0.0,0.0,0.0,0.0,0.0,0.0,0.0,0.0,0.0,0.0,0.0,0.0,0.0,0.0,0.0,0.0,0.0,0.0,0.0,0.0,0.0,0.0,0.0,0.0,0.0,0.0,0.0,0.0,0.0,0.0,0.0,0.0,0.0,0.0,0.0,0.0,0.0,0.0,0.0,0.0,0.0,0.0,0.0,0.0,0.0,0.0,0.0,0.0,0.0,0.0,0.0,0.0,0.0,0.0,0.0,0.0,0.0,0.0,0.0,0.0,0.0,0.0,0.0,0.0,0.0,0.0,0.0,0.0,0.0,0.0,0.0,0.0,0.0,0.0,0.0,0.0,0.0,0.0,0.0,0.0,0.0,0.0,0.0,0.0,0.0,0.0,0.0,0.0,0.0,0.0,0.0,0.0,0.0,0.0,0.0,0.0,0.0,0.0,0.0,0.0,0.0,0.0,0.0,0.0,0.0,0.0,0.0,0.0,0.0,0.0,0.0,0.0,0.0,0.0,0.0,0.0,0.0,0.0,0.0,0.0,0.0,0.0,0.0,0.0,0.0,0.0,0.0,0.0,0.0,0.0,0.0,0.0,0.0,0.0,0.0,0.0,0.0,0.0,0.0,0.0,0.0,0.0,0.0,0.0,0.0,0.0,0.0,0.0,0.0,0.0,0.0,0.0,0.0,0.0,0.0,0.0,0.0,0.0,0.0,0.0,0.0,0.0,0.0,0.0,0.0,0.0,0.0,0.0,0.0,0.0,0.0,0.0,0.0,0.0,0.0,0.0,0.0,0.0,0.0,0.0,0.0,0.0,0.0,0.0,0.0,0.0,0.0,0.0,0.0,0.0,0.0,0.0,0.0,0.0,0.0,0.0,0.0,0.0,0.0,0.0,0.0,0.0,0.0,0.0,0.0,0.0,0.0,0.0,0.0,0.0,0.0,0.0,0.0,0.0,0.0,0.0,0.0,0.0,0.0,0.0,0.0,0.0,0.0,0.0,0.0,0.0,0.0,0.0,0.0,0.0,0.0,0.0,0.0,0.0,0.0,0.0,0.0,0.0,0.0,0.0,0.0,0.0,0.0,0.0,0.0,0.0,0.0,0.0,0.0,0.0,0.0,0.0,0.0,0.0,0.0,0.0,0.0,0.0,0.0,0.0,0.0,0.0,0.0,0.0,0.0,0.0,0.0,0.0,0.0,0.0,0.0,0.0,0.0,0.0,0.0,0.0,0.0,0.0,0.0,0.0,0.0,0.0,0.0,0.0,0.0,0.0,0.0,0.0,0.0,0.0,0.0,0.0,0.0,0.0,0.0,0.0,0.0,0.0,0.0,0.0,0.0,0.0,0.0,0.0,0.0,0.0,0.0,0.0,0.0,0.0,0.0,0.0,0.0,0.0,0.0,0.0,0.0,0.0,0.0,0.0,0.0,0.0,0.0,0.0,0.0,0.0,0.0,0.0,0.0,0.0,0.0,0.0,0.0,0.0,0.0,0.0,0.0,0.0,0.0,0.0,0.0,0.0,0.0,0.0,0.0,0.0,0.0,0.0,0.0,0.0,0.0,0.0,0.0,0.0,0.0,0.0,0.0,0.0,0.0,0.0,0.0,0.0,0.0,0.0,0.0,0.0,0.0,0.0,0.0,0.0,0.0,0.0,0.0,0.0,0.0,0.0,0.0,0.0,0.0,0.0,0.0,0.0,0.0,0.0,0.0,0.0,0.0,0.0,0.0,0.0,0.0,0.0,0.0,0.0,0.0,0.0,0.0,0.0,0.0,0.0,0.0,0.0,0.0,0.0,0.0,0.0,0.0,0.0,0.0,0.0,0.0,0.0,0.0,0.0,0.0,0.0,0.0,0.0,0.0,0.0,0.0,0.0,0.0,0.0,0.0,0.0,0.0,0.0,0.0,0.0,0.0,0.0,0.0,0.0,0.0,0.0,0.0,0.0,0.0,0.0,0.0,0.0,0.0,0.0,0.0,0.0,0.0,0.0,0.0,0.0,0.0,0.0,0.0,0.0,0.0,0.0,0.0,0.0,0.0,0.0,0.0,0.0,0.0,0.0,0.0,0.0,0.0,0.0,0.0,0.0,0.0,0.0,0.0,0.0,0.0,0.0,0.0,0.0,0.0,0.0,0.0,0.0,0.0,0.0,0.0,0.0,0.0,0.0,0.0,0.0,0.0,0.0,0.0,0.0,0.0,0.0,0.0,0.0,0.0,0.0,0.0,0.0,0.0,0.0,0.0,0.0,0.0,0.0,0.0,0.0,0.0,0.0,0.0,0.0,0.0,0.0,0.0,0.0,0.0,0.0,0.0,0.0,0.0,0.0,0.0,0.0,0.0,0.0,0.0,0.0,0.0,0.0,0.0,0.0,0.0,0.0,0.0,0.0,0.0,0.0,0.0,0.0,0.0,0.0,0.0,0.0,0.0,0.0,0.0,0.0,0.0,0.0,0.0,0.0,0.0,0.0,0.0,0.0,0.0,0.0,0.0,0.0,0.0,0.0,0.0,0.0,0.0,0.0,0.0,0.0,0.0,0.0,0.0,0.0,0.0,0.0,0.0,0.0,0.0,0.0,0.0,0.0,0.0,0.0,0.0,0.0,0.0,0.0,0.0,0.0,0.0,0.0,0.0,0.0,0.0,0.0,0.0,0.0,0.0,0.0,0.0,0.0,0.0,0.0,0.0,0.0,0.0,0.0,0.0,0.0,0.0,0.0,0.0,0.0,0.0,0.0,0.0,0.0,0.0,0.0,0.0,0.0,0.0,0.0,0.0,0.0,0.0,0.0,0.0,0.0,0.0,0.0,0.0,0.0,0.0,0.0,0.0,0.0,0.0,0.0,0.0,0.0,0.0,0.0,0.0,0.0,0.0,0.0,0.0,0.0,0.0,0.0,0.0,0.0,0.0,0.0,0.0,0.0,0.0,0.0,0.0,0.0,0.0,0.0,0.0,0.0,0.0,0.0,0.0,0.0,0.0,0.0,0.0,0.0,0.0,0.0,0.0,0.0,0.0,0.0,0.0,0.0,0.0,0.0,0.0,0.0,0.0,0.0,0.0,0.0,0.0,0.0,0.0,0.0,0.0,0.0,0.0,0.0,0.0,0.0,0.0,0.0,0.0,0.0,0.0,0.0,0.0,0.0,0.0,0.0,0.0,0.0,0.0,0.0,0.0,0.0,0.0,0.0,0.0,0.0,0.0,0.0,0.0,0.0,0.0,0.0,0.0,0.0,0.0,0.0,0.0,0.0,0.0,0.0,0.0,0.0,0.0,0.0,0.0,0.0,0.0,0.0,0.0,0.0,0.0,0.0,0.0,0.0,0.0,0.0,0.0,0.0,0.0,0.0,0.0,0.0,0.0,0.0,0.0,0.0,0.0,0.0,0.0,0.0,0.0,0.0,0.0,0.0,0.0,0.0,0.0,0.0,0.0,0.0,0.0,0.0,0.0,0.0,0.0,0.0,0.0,0.0,0.0,0.0,0.0,0.0,0.0,0.0,0.0,0.0,-3.5431,0.0,0.0,0.0,-3.5898,0.0,0.0,0.0,0.0,0.0,0.0,0.0,0.0,0.0,0.0,0.0,0.0,0.0,0.0,0.0,0.0,0.0,0.0,0.0,0.0,0.0,0.0,0.0,0.0,0.0,0.0,0.0,0.0,0.0,0.0,0.0,0.0,0.0,0.0,0.0,0.0,0.0,0.0,0.0,0.0,0.0,0.0,0.0,0.0,0.0,0.0,0.0,0.0,0.0,0.0,0.0,0.0,0.0,0.0,0.0,0.0,0.0,0.0,0.0,0.0,0.0,0.0,0.0,0.0,0.0,0.0,0.0,0.0,0.0,0.0,0.0,0.0,0.0,0.0,0.0,0.0,0.0,0.0,0.0,0.0,0.0,0.0,0.0,0.0,0.0,0.0,0.0,0.0,0.0,0.0,0.0,0.0,0.0,0.0,0.0,0.0,0.0,0.0,0.0,0.0,0.0,0.0,0.0,0.0,0.0,0.0,0.0,0.0,0.0,0.0,-3.5727,-3.5342,-3.5689,-3.5937,-3.5934,0.0,0.0,0.0,0.0,0.0,0.0,0.0,0.0,0.0,0.0,0.0,0.0,0.0,0.0,0.0,0.0,0.0,0.0,0.0,0.0,0.0,0.0,0.0,0.0,0.0,0.0,0.0,0.0,0.0,0.0,0.0,0.0,0.0,0.0,0.0,0.0,0.0,0.0,0.0,0.0,0.0,0.0,0.0,0.0,0.0,0.0,0.0,0.0,0.0,0.0,0.0,0.0,0.0,0.0,0.0,0.0,0.0,0.0,0.0,0.0,0.0,0.0,0.0,0.0,0.0,0.0,0.0,0.0,0.0,0.0,0.0,0.0,0.0,0.0,0.0,0.0,0.0,0.0,0.0,0.0,0.0,0.0,0.0,0.0,0.0,0.0,0.0,0.0,0.0,0.0,0.0,0.0,0.0,0.0,0.0,0.0,0.0,0.0,0.0,0.0,0.0,0.0,0.0,0.0,0.0,0.0,0.0,0.0,0.0,0.0,0.0,0.0,-3.6204,-3.621,-3.6231,0.0,0.0,0.0,0.0,0.0,0.0,0.0,0.0,0.0,0.0,0.0,0.0,0.0,0.0,0.0,0.0,0.0,0.0,0.0,0.0,0.0,0.0,0.0,0.0,0.0,0.0,0.0,0.0,0.0,0.0,0.0,0.0,0.0,0.0,0.0,0.0,0.0,0.0,0.0,0.0,0.0,0.0,0.0,0.0,0.0,0.0,0.0,0.0,0.0,0.0,0.0,0.0,0.0,0.0,0.0,0.0,0.0,0.0,0.0,0.0,0.0,0.0,0.0,0.0,0.0,0.0,0.0,0.0,0.0,0.0,0.0,0.0,0.0,0.0,0.0,0.0,0.0,0.0,0.0,0.0,0.0,0.0,0.0,0.0,0.0,0.0,0.0,0.0,0.0,0.0,0.0,0.0,0.0,0.0,0.0,0.0,0.0,0.0,0.0,0.0,0.0,0.0,0.0,0.0,0.0,0.0,0.0,0.0,0.0,0.0,-3.6265,-3.7042,-3.7068,0.0,-3.6995,0.0,0.0,0.0,0.0,0.0,0.0,0.0,0.0,0.0,0.0,0.0,0.0,0.0,0.0,0.0,0.0,0.0,0.0,0.0,0.0,0.0,0.0,0.0,0.0,0.0,0.0,0.0,0.0,0.0,0.0,0.0,0.0,0.0,0.0,0.0,0.0,0.0,0.0,0.0,0.0,0.0,0.0,0.0,0.0,0.0,0.0,0.0,0.0,0.0,0.0,0.0,0.0,0.0,0.0,0.0,0.0,0.0,0.0,0.0,0.0,0.0,0.0,0.0,0.0,0.0,0.0,0.0,0.0,0.0,0.0,0.0,0.0,0.0,0.0,0.0,0.0,0.0,0.0,0.0,0.0,0.0,0.0,0.0,0.0,0.0,0.0,0.0,0.0,0.0,0.0,0.0,0.0,0.0,0.0,0.0,0.0,0.0,0.0,0.0,0.0,0.0,0.0,0.0,0.0,0.0,0.0,0.0,0.0,0.0,0.0,-3.6832,-3.7187,-3.7214,-3.7162,0.0,0.0,0.0,0.0,0.0,0.0,0.0,0.0,0.0,0.0,0.0,0.0,0.0,0.0,0.0,0.0,0.0,0.0,0.0,0.0,0.0,0.0,0.0,0.0,0.0,0.0,0.0,0.0,0.0,0.0,0.0,0.0,0.0,0.0,0.0,0.0,0.0,0.0,0.0,0.0,0.0,0.0,0.0,0.0,0.0,0.0,0.0,0.0,0.0,0.0,0.0,0.0,0.0,0.0,0.0,0.0,0.0,0.0,0.0,0.0,0.0,0.0,0.0,0.0,0.0,0.0,0.0,0.0,0.0,0.0,0.0,0.0,0.0,0.0,0.0,0.0,0.0,0.0,0.0,0.0,0.0,0.0,0.0,0.0,0.0,0.0,0.0,0.0,0.0,0.0,0.0,0.0,0.0,0.0,0.0,0.0,0.0,0.0,0.0,0.0,0.0,0.0,0.0,0.0,0.0,0.0,0.0,0.0,0.0,0.0,-3.6684,-3.7315,-3.7533,-3.7513,-3.7396,-3.713,0.0,0.0,0.0,0.0,0.0,0.0,0.0,0.0,0.0,0.0,0.0,0.0,0.0,0.0,0.0,0.0,0.0,0.0,0.0,0.0,0.0,0.0,0.0,0.0,0.0,0.0,0.0,0.0,0.0,0.0,0.0,0.0,0.0,0.0,0.0,0.0,0.0,0.0,0.0,0.0,0.0,0.0,0.0,0.0,0.0,0.0,0.0,0.0,0.0,0.0,0.0,0.0,0.0,0.0,0.0,0.0,0.0,0.0,0.0,0.0,0.0,0.0,0.0,0.0,0.0,0.0,0.0,0.0,0.0,0.0,0.0,0.0,0.0,0.0,0.0,0.0,0.0,0.0,0.0,0.0,0.0,0.0,0.0,0.0,0.0,0.0,0.0,0.0,0.0,0.0,0.0,0.0,0.0,0.0,0.0,0.0,0.0,0.0,0.0,0.0,0.0,0.0,0.0,0.0,0.0,0.0,0.0,0.0,-3.8131,-3.7576,-3.7561,-3.827,-3.8338,-3.7925,0.0,0.0,0.0,0.0,0.0,0.0,0.0,0.0,0.0,0.0,0.0,0.0,0.0,0.0,0.0,0.0,0.0,0.0,0.0,0.0,0.0,0.0,0.0,0.0,0.0,0.0,0.0,0.0,0.0,0.0,0.0,0.0,0.0,0.0,0.0,0.0,0.0,0.0,0.0,0.0,0.0,0.0,0.0,0.0,0.0,0.0,0.0,0.0,0.0,0.0,0.0,0.0,0.0,0.0,0.0,0.0,0.0,0.0,0.0,0.0,0.0,0.0,0.0,0.0,0.0,0.0,0.0,0.0,0.0,0.0,0.0,0.0,0.0,0.0,0.0,0.0,0.0,0.0,0.0,0.0,0.0,0.0,0.0,0.0,0.0,0.0,0.0,0.0,0.0,0.0,0.0,0.0,0.0,0.0,0.0,0.0,0.0,0.0,0.0,0.0,0.0,0.0,0.0,0.0,0.0,0.0,0.0,0.0,0.0,-3.6036,-3.6827,-3.7616,-3.8341,-3.7375,-3.6595,0.0,0.0,0.0,0.0,0.0,0.0,0.0,0.0,0.0,0.0,0.0,0.0,0.0,0.0,0.0,0.0,0.0,0.0,0.0,0.0,0.0,0.0,0.0,0.0,0.0,0.0,0.0,0.0,0.0,0.0,0.0,0.0,0.0,0.0,0.0,0.0,0.0,0.0,0.0,0.0,0.0,0.0,0.0,0.0,0.0,0.0,0.0,0.0,0.0,0.0,0.0,0.0,0.0,0.0,0.0,0.0,0.0,0.0,0.0,0.0,0.0,0.0,0.0,0.0,0.0,0.0,0.0,0.0,0.0,0.0,0.0,0.0,0.0,0.0,0.0,0.0,0.0,0.0,0.0,0.0,0.0,0.0,0.0,0.0,0.0,0.0,0.0,0.0,0.0,0.0,0.0,0.0,0.0,0.0,0.0,0.0,0.0,0.0,0.0,0.0,0.0,0.0,0.0,0.0,0.0,0.0,0.0,0.0,0.0,-3.5486,-3.7148,-3.8026,-3.7878,-3.6826,-3.5757,0.0,0.0,0.0,0.0,0.0,0.0,0.0,0.0,0.0,0.0,0.0,0.0,0.0,0.0,0.0,0.0,0.0,0.0,0.0,0.0,0.0,0.0,0.0,0.0,0.0,0.0,0.0,0.0,0.0,0.0,0.0,0.0,0.0,0.0,0.0,0.0,0.0,0.0,0.0,0.0,0.0,0.0,0.0,0.0,0.0,0.0,0.0,0.0,0.0,0.0,0.0,0.0,0.0,0.0,0.0,0.0,0.0,0.0,0.0,0.0,0.0,0.0,0.0,0.0,0.0,0.0,0.0,0.0,0.0,0.0,0.0,0.0,0.0,0.0,0.0,0.0,0.0,0.0,0.0,0.0,0.0,0.0,0.0,0.0,0.0,0.0,0.0,0.0,0.0,0.0,0.0,0.0,0.0,0.0,0.0,0.0,0.0,0.0,0.0,0.0,0.0,0.0,0.0,0.0,0.0,0.0,0.0,0.0,-3.5476,-3.71,-3.8749,-3.8717,-3.7,-3.6891,-3.5608,0.0,0.0,0.0,0.0,0.0,0.0,0.0,0.0,0.0,0.0,0.0,0.0,0.0,0.0,0.0,0.0,0.0,0.0,0.0,0.0,0.0,0.0,0.0,0.0,0.0,0.0,0.0,0.0,0.0,0.0,0.0,0.0,0.0,0.0,0.0,0.0,0.0,0.0,0.0,0.0,0.0,0.0,0.0,0.0,0.0,0.0,0.0,0.0,0.0,0.0,0.0,0.0,0.0,0.0,0.0,0.0,0.0,0.0,0.0,0.0,0.0,0.0,0.0,0.0,0.0,0.0,0.0,0.0,0.0,0.0,0.0,0.0,0.0,0.0,0.0,0.0,0.0,0.0,0.0,0.0,0.0,0.0,0.0,0.0,0.0,0.0,0.0,0.0,0.0,0.0,0.0,0.0,0.0,0.0,0.0,0.0,0.0,0.0,0.0,0.0,0.0,0.0,0.0,0.0,0.0,0.0,0.0,0.0,0.0,-3.6327,-3.7956,-3.8477,-3.7704,-3.6549,-3.5445,0.0,0.0,0.0,0.0,0.0,0.0,0.0,0.0,0.0,0.0,0.0,0.0,0.0,0.0,0.0,0.0,0.0,0.0,0.0,0.0,0.0,0.0,0.0,0.0,0.0,0.0,0.0,0.0,0.0,0.0,0.0,0.0,0.0,0.0,0.0,0.0,0.0,0.0,0.0,0.0,0.0,0.0,0.0,0.0,0.0,0.0,0.0,0.0,0.0,0.0,0.0,0.0,0.0,0.0,0.0,0.0,0.0,0.0,0.0,0.0,0.0,0.0,0.0,0.0,0.0,0.0,0.0,0.0,0.0,0.0,0.0,0.0,0.0,0.0,0.0,0.0,0.0,0.0,0.0,0.0,0.0,0.0,0.0,0.0,0.0,0.0,0.0,0.0,0.0,0.0,0.0,0.0,0.0,0.0,0.0,0.0,0.0,0.0,0.0,0.0,0.0,0.0,0.0,0.0,0.0,0.0,0.0,0.0,0.0,-3.7324,-3.8922,-3.9357,-3.8453,-3.7411,-3.6128,-3.4653,0.0,0.0,0.0,0.0,0.0,0.0,0.0,0.0,0.0,0.0,0.0,0.0,0.0,0.0,0.0,0.0,0.0,0.0,0.0,0.0,0.0,0.0,0.0,0.0,0.0,0.0,0.0,0.0,0.0,0.0,0.0,0.0,0.0,0.0,0.0,0.0,0.0,0.0,0.0,0.0,0.0,0.0,0.0,0.0,0.0,0.0,0.0,0.0,0.0,0.0,0.0,0.0,0.0,0.0,0.0,0.0,0.0,0.0,0.0,0.0,0.0,0.0,0.0,0.0,0.0,0.0,0.0,0.0,0.0,0.0,0.0,0.0,0.0,0.0,0.0,0.0,0.0,0.0,0.0,0.0,0.0,0.0,0.0,0.0,0.0,0.0,0.0,0.0,0.0,0.0,0.0,0.0,0.0,0.0,0.0,0.0,0.0,0.0,0.0,0.0,0.0,0.0,0.0,0.0,0.0,0.0,0.0,0.0,-3.963,-4.1293,-4.123,-3.9287,-3.9095,-3.7462,0.0,0.0,0.0,0.0,0.0,0.0,0.0,0.0,0.0,0.0,0.0,0.0,0.0,0.0,0.0,0.0,0.0,0.0,0.0,0.0,0.0,0.0,0.0,0.0,0.0,0.0,0.0,0.0,0.0,0.0,0.0,0.0,0.0,0.0,0.0,0.0,0.0,0.0,0.0,0.0,0.0,0.0,0.0,0.0,0.0,0.0,0.0,0.0,0.0,0.0,0.0,0.0,0.0,0.0,0.0,0.0,0.0,0.0,0.0,0.0,0.0,0.0,0.0,0.0,0.0,0.0,0.0,0.0,0.0,0.0,0.0,0.0,0.0,0.0,0.0,0.0,0.0,0.0,0.0,0.0,0.0,0.0,0.0,0.0,0.0,0.0,0.0,0.0,0.0,0.0,0.0,0.0,0.0,0.0,0.0,0.0,0.0,0.0,0.0,0.0,0.0,0.0,0.0,0.0,0.0,0.0,0.0,0.0,0.0,-4.1094,-4.2656,-4.2898,-4.159,-3.9637,-3.8184,0.0,0.0,0.0,0.0,0.0,0.0,0.0,0.0,0.0,0.0,0.0,0.0,0.0,0.0,0.0,0.0,0.0,0.0,0.0,0.0,0.0,0.0,0.0,0.0,0.0,0.0,0.0,0.0,0.0,0.0,0.0,0.0,0.0,0.0,0.0,0.0,0.0,0.0,0.0,0.0,0.0,0.0,0.0,0.0,0.0,0.0,0.0,0.0,0.0,0.0,0.0,0.0,0.0,0.0,0.0,0.0,0.0,0.0,0.0,0.0,0.0,0.0,0.0,0.0,0.0,0.0,0.0,0.0,0.0,0.0,0.0,0.0,0.0,0.0,0.0,0.0,0.0,0.0,0.0,0.0,0.0,0.0,0.0,0.0,0.0,0.0,0.0,0.0,0.0,0.0,0.0,0.0,0.0,0.0,0.0,0.0,0.0,0.0,0.0,0.0,0.0,0.0,0.0,0.0,0.0,0.0,0.0,0.0,-4.1374,-4.2656,-4.3618,-4.3824,-4.3275,-4.1501,-3.9928,0.0,0.0,0.0,0.0,0.0,0.0,0.0,0.0,0.0,0.0,0.0,0.0,0.0,0.0,0.0,0.0,0.0,0.0,0.0,0.0,0.0,0.0,0.0,0.0,0.0,0.0,0.0,0.0,0.0,0.0,0.0,0.0,0.0,0.0,0.0,0.0,0.0,0.0,0.0,0.0,0.0,0.0,0.0,0.0,0.0,0.0,0.0,0.0,0.0,0.0,0.0,0.0,0.0,0.0,0.0,0.0,0.0,0.0,0.0,0.0,0.0,0.0,0.0,0.0,0.0,0.0,0.0,0.0,0.0,0.0,0.0,0.0,0.0,0.0,0.0,0.0,0.0,0.0,0.0,0.0,0.0,0.0,0.0,0.0,0.0,0.0,0.0,0.0,0.0,0.0,0.0,0.0,0.0,0.0,0.0,0.0,0.0,0.0,0.0,0.0,0.0,0.0,0.0,0.0,0.0,0.0,0.0,0.0,-4.2981,-4.4268,-4.4325,-4.439,-4.4466,-4.3713,-4.1831,0.0,0.0,0.0,0.0,0.0,0.0,0.0,0.0,0.0,0.0,0.0,0.0,0.0,0.0,0.0,0.0,0.0,0.0,0.0,0.0,0.0,0.0,0.0,0.0,0.0,0.0,0.0,0.0,0.0,0.0,0.0,0.0,0.0,0.0,0.0,0.0,0.0,0.0,0.0,0.0,0.0,0.0,0.0,0.0,0.0,0.0,0.0,0.0,0.0,0.0,0.0,0.0,0.0,0.0,0.0,0.0,0.0,0.0,0.0,0.0,0.0,0.0,0.0,0.0,0.0,0.0,0.0,0.0,0.0,0.0,0.0,0.0,0.0,0.0,0.0,0.0,0.0,0.0,0.0,0.0,0.0,0.0,0.0,0.0,0.0,0.0,0.0,0.0,0.0,0.0,0.0,0.0,0.0,0.0,0.0,0.0,0.0,0.0,0.0,0.0,0.0,0.0,0.0,0.0,0.0,0.0,0.0,0.0,-4.3659,-4.4879,-4.5166,-4.5536,-4.6015,-4.3082,-4.0762,0.0,0.0,0.0,0.0,0.0,0.0,0.0,0.0,0.0,0.0,0.0,0.0,0.0,0.0,0.0,0.0,0.0,0.0,0.0,0.0,0.0,0.0,0.0,0.0,0.0,0.0,0.0,0.0,0.0,0.0,0.0,0.0,0.0,0.0,0.0,0.0,0.0,0.0,0.0,0.0,0.0,0.0,0.0,0.0,0.0,0.0,0.0,0.0,-4.3892,0.0,0.0,0.0,0.0,0.0,0.0,0.0,0.0,0.0,0.0,0.0,0.0,0.0,0.0,0.0,0.0,0.0,0.0,0.0,0.0,0.0,0.0,0.0,0.0,0.0,0.0,0.0,0.0,0.0,0.0,0.0,0.0,0.0,0.0,0.0,0.0,0.0,0.0,0.0,0.0,0.0,0.0,0.0,0.0,0.0,0.0,0.0,0.0,0.0,0.0,0.0,0.0,0.0,0.0,0.0,0.0,0.0,0.0,0.0,-4.3893,-4.551,-4.579,-4.6015,-4.62,-4.4667,-4.2622,0.0,0.0,0.0,0.0,0.0,0.0,0.0,0.0,0.0,0.0,0.0,0.0,0.0,0.0,0.0,0.0,0.0,0.0,0.0,0.0,0.0,0.0,0.0,0.0,0.0,0.0,0.0,0.0,0.0,0.0,0.0,0.0,0.0,0.0,0.0,0.0,0.0,0.0,0.0,0.0,0.0,0.0,0.0,0.0,0.0,0.0,0.0,0.0,0.0,0.0,0.0,0.0,0.0,0.0,0.0,0.0,0.0,0.0,0.0,0.0,0.0,0.0,0.0,0.0,0.0,0.0,0.0,0.0,0.0,0.0,0.0,0.0,0.0,0.0,0.0,0.0,0.0,0.0,0.0,0.0,0.0,0.0,0.0,0.0,0.0,0.0,0.0,0.0,0.0,0.0,0.0,0.0,0.0,0.0,0.0,0.0,0.0,0.0,0.0,0.0,0.0,0.0,0.0,0.0,0.0,0.0,0.0,-4.2468,-4.4151,-4.6359,-4.6555,-4.6604,-4.6616,-4.7206,-4.5463,-4.1247,0.0,0.0,0.0,0.0,0.0,0.0,0.0,0.0,0.0,0.0,0.0,0.0,0.0,0.0,0.0,0.0,0.0,0.0,0.0,0.0,0.0,0.0,0.0,0.0,0.0,0.0,0.0,0.0,0.0,0.0,0.0,0.0,0.0,0.0,0.0,0.0,0.0,0.0,-4.2472,-4.4996,0.0,0.0,0.0,0.0,0.0,0.0,0.0,0.0,-4.7438,0.0,0.0,0.0,0.0,0.0,0.0,0.0,0.0,0.0,0.0,0.0,0.0,0.0,0.0,0.0,0.0,0.0,0.0,0.0,0.0,0.0,0.0,0.0,0.0,0.0,0.0,0.0,0.0,0.0,0.0,0.0,0.0,0.0,0.0,0.0,0.0,0.0,0.0,0.0,0.0,0.0,0.0,0.0,0.0,0.0,0.0,0.0,0.0,0.0,0.0,0.0,0.0,0.0,0.0,0.0,0.0,-4.399,-4.395,-4.5292,-4.8099,-4.834,-4.8704,-4.9414,-4.9307,-4.7126,-4.2843,0.0,0.0,0.0,0.0,0.0,0.0,0.0,0.0,0.0,0.0,0.0,0.0,0.0,0.0,0.0,0.0,0.0,0.0,0.0,0.0,0.0,0.0,0.0,0.0,0.0,0.0,0.0,0.0,0.0,0.0,0.0,0.0,0.0,0.0,0.0,0.0,0.0,0.0,0.0,-4.8551,-4.9298,0.0,0.0,0.0,0.0,0.0,0.0,0.0,0.0,-5.0189,0.0,0.0,0.0,0.0,0.0,0.0,0.0,0.0,0.0,0.0,0.0,0.0,0.0,0.0,0.0,0.0,0.0,0.0,0.0,0.0,0.0,0.0,0.0,0.0,0.0,0.0,0.0,0.0,0.0,0.0,0.0,0.0,0.0,0.0,0.0,0.0,0.0,0.0,0.0,0.0,0.0,0.0,0.0,0.0,0.0,0.0,0.0,0.0,0.0,0.0,0.0,0.0,0.0,0.0,0.0,-4.3136,-4.4935,-4.692,-4.9094,-4.937,-4.9821,-5.0454,-5.0121,-4.7826,0.0,0.0,0.0,0.0,0.0,0.0,0.0,0.0,0.0,0.0,0.0,0.0,0.0,0.0,0.0,0.0,0.0,0.0,0.0,0.0,0.0,0.0,0.0,0.0,0.0,0.0,0.0,0.0,0.0,0.0,0.0,0.0,0.0,0.0,0.0,0.0,0.0,0.0,0.0,0.0,-5.0185,-5.1201,-5.3867,0.0,0.0,0.0,0.0,0.0,0.0,-5.2272,-5.174,0.0,0.0,0.0,0.0,0.0,0.0,0.0,0.0,0.0,0.0,0.0,0.0,0.0,0.0,0.0,0.0,0.0,0.0,0.0,0.0,0.0,0.0,0.0,0.0,0.0,0.0,0.0,0.0,0.0,0.0,0.0,0.0,0.0,0.0,0.0,0.0,0.0,0.0,0.0,0.0,0.0,0.0,0.0,0.0,0.0,0.0,0.0,0.0,0.0,0.0,0.0,0.0,0.0,0.0,0.0,-4.2215,-4.5803,-4.8399,-4.9843,-5.0322,-5.075,-5.1228,-5.0602,-4.827,0.0,0.0,0.0,0.0,0.0,0.0,0.0,0.0,0.0,0.0,0.0,0.0,0.0,0.0,0.0,0.0,0.0,0.0,0.0,0.0,0.0,0.0,0.0,0.0,0.0,0.0,0.0,0.0,0.0,0.0,0.0,0.0,0.0,0.0,0.0,0.0,0.0,0.0,0.0,0.0,0.0,-5.3256,-5.5468,-5.4683,0.0,0.0,0.0,0.0,-5.5866,-5.5274,0.0,0.0,0.0,0.0,0.0,0.0,0.0,0.0,0.0,0.0,0.0,0.0,0.0,0.0,0.0,0.0,0.0,0.0,0.0,0.0,0.0,0.0,0.0,0.0,0.0,0.0,0.0,0.0,0.0,0.0,0.0,0.0,0.0,0.0,0.0,0.0,0.0,0.0,0.0,0.0,0.0,0.0,0.0,0.0,0.0,0.0,0.0,0.0,0.0,0.0,0.0,0.0,0.0,0.0,0.0,0.0,-4.2883,-4.6656,-4.9265,-5.0466,-5.149,-5.2119,-5.2345,-5.1302,-4.8938,0.0,0.0,0.0,0.0,0.0,0.0,0.0,0.0,0.0,0.0,0.0,0.0,0.0,0.0,0.0,0.0,0.0,0.0,0.0,0.0,0.0,0.0,0.0,0.0,0.0,0.0,0.0,0.0,0.0,0.0,0.0,0.0,0.0,0.0,0.0,0.0,0.0,0.0,0.0,0.0,0.0,-5.5421,-5.7788,-5.6792,-5.6392,0.0,0.0,-5.9775,-6.095,-6.18,0.0,0.0,0.0,0.0,0.0,0.0,0.0,0.0,0.0,0.0,0.0,0.0,0.0,0.0,0.0,0.0,0.0,0.0,0.0,0.0,0.0,0.0,0.0,0.0,0.0,0.0,0.0,0.0,0.0,0.0,0.0,0.0,0.0,0.0,0.0,0.0,0.0,0.0,0.0,0.0,0.0,0.0,0.0,0.0,0.0,0.0,0.0,0.0,0.0,0.0,0.0,0.0,0.0,0.0,0.0,-4.2579,-4.4483,-4.8275,-5.0694,-5.1728,-5.2716,-5.3159,-5.3003,-5.2229,-4.9972,0.0,0.0,0.0,0.0,0.0,0.0,0.0,0.0,0.0,0.0,0.0,0.0,0.0,0.0,0.0,0.0,0.0,0.0,0.0,0.0,0.0,0.0,0.0,0.0,0.0,0.0,0.0,0.0,0.0,0.0,0.0,0.0,0.0,0.0,0.0,0.0,0.0,0.0,0.0,0.0,0.0,0.0,-5.9785,-5.8995,0.0,0.0,0.0,-6.181,-6.2277,0.0,0.0,0.0,0.0,0.0,0.0,0.0,0.0,0.0,0.0,0.0,0.0,0.0,0.0,0.0,0.0,0.0,0.0,0.0,0.0,0.0,0.0,0.0,0.0,0.0,0.0,0.0,0.0,0.0,0.0,0.0,0.0,0.0,0.0,0.0,0.0,0.0,0.0,0.0,0.0,0.0,0.0,0.0,0.0,0.0,0.0,0.0,0.0,0.0,0.0,0.0,0.0,0.0,0.0,0.0,0.0,0.0,-4.5571,-4.9987,-5.2504,-5.3008,-5.3535,-5.379,-5.3776,-5.308,0.0,0.0,0.0,0.0,0.0,0.0,0.0,0.0,0.0,0.0,0.0,0.0,0.0,0.0,0.0,0.0,0.0,0.0,0.0,0.0,0.0,0.0,0.0,0.0,0.0,0.0,0.0,-3.7786,0.0,0.0,0.0,0.0,0.0,0.0,0.0,0.0,0.0,0.0,0.0,0.0,0.0,0.0,-5.9085,-6.1027,-6.1018,-6.188,0.0,0.0,-6.4458,-6.5101,-6.6722,-6.6479,0.0,0.0,0.0,0.0,0.0,0.0,0.0,0.0,0.0,0.0,0.0,0.0,0.0,0.0,0.0,0.0,0.0,0.0,0.0,0.0,0.0,0.0,0.0,0.0,0.0,0.0,0.0,0.0,0.0,0.0,0.0,0.0,0.0,0.0,0.0,0.0,0.0,0.0,0.0,0.0,0.0,0.0,0.0,0.0,0.0,0.0,0.0,0.0,0.0,0.0,0.0,0.0,0.0,0.0,0.0,-4.5431,-5.165,-5.4658,-5.4196,-5.3565,-5.3817,-5.4986,-5.3813,-5.1078,0.0,0.0,0.0,0.0,0.0,0.0,0.0,0.0,0.0,0.0,0.0,0.0,0.0,0.0,0.0,0.0,0.0,0.0,0.0,0.0,0.0,0.0,0.0,0.0,0.0,0.0,0.0,0.0,0.0,0.0,0.0,0.0,0.0,0.0,0.0,0.0,0.0,0.0,0.0,0.0,0.0,-5.9424,-6.1069,-6.293,-6.5388,0.0,0.0,-6.9247,-7.1794,-7.3093,-7.1779,-6.5809,0.0,0.0,0.0,0.0,0.0,0.0,0.0,0.0,0.0,0.0,0.0,0.0,0.0,0.0,0.0,0.0,0.0,0.0,0.0,0.0,0.0,0.0,0.0,0.0,0.0,0.0,0.0,0.0,0.0,0.0,0.0,0.0,0.0,0.0,0.0,0.0,0.0,0.0,0.0,0.0,0.0,0.0,0.0,0.0,0.0,0.0,0.0,0.0,0.0,0.0,0.0,0.0,0.0,-4.5532,-4.7631,-5.203,-5.4503,-5.4872,-5.5212,-5.5546,-5.5842,-5.6395,-5.4801,0.0,0.0,0.0,0.0,0.0,0.0,0.0,0.0,0.0,0.0,0.0,0.0,0.0,0.0,0.0,0.0,0.0,0.0,0.0,0.0,0.0,0.0,0.0,0.0,0.0,0.0,0.0,0.0,-4.6838,-4.7462,-4.663,0.0,0.0,0.0,0.0,0.0,0.0,0.0,0.0,0.0,0.0,-6.2636,-6.5515,-6.6796,0.0,0.0,-7.22,-7.2456,-7.2733,-7.2932,-7.1354,-6.6353,-6.3982,0.0,0.0,0.0,0.0,0.0,0.0,0.0,0.0,0.0,0.0,0.0,0.0,0.0,0.0,0.0,0.0,0.0,0.0,0.0,0.0,0.0,0.0,0.0,0.0,0.0,0.0,0.0,0.0,0.0,0.0,0.0,0.0,0.0,0.0,0.0,0.0,0.0,0.0,0.0,0.0,0.0,0.0,0.0,0.0,0.0,0.0,0.0,0.0,0.0,0.0,0.0,0.0,-4.6181,-4.9074,-5.2954,-5.5458,-5.6515,-5.689,-5.723,-5.7525,-5.8681,-5.7528,0.0,0.0,0.0,0.0,0.0,0.0,0.0,0.0,0.0,0.0,0.0,0.0,0.0,0.0,0.0,0.0,0.0,0.0,0.0,0.0,0.0,0.0,0.0,0.0,0.0,0.0,0.0,0.0,-4.8857,-4.8986,-4.8136,0.0,0.0,0.0,0.0,0.0,0.0,0.0,0.0,0.0,0.0,-6.5049,-6.7831,-6.8668,-6.9985,-7.2686,-7.3005,-7.2918,-7.2875,-7.272,-7.1227,-6.7101,0.0,0.0,0.0,0.0,0.0,0.0,0.0,0.0,0.0,0.0,0.0,0.0,0.0,0.0,0.0,0.0,0.0,0.0,0.0,0.0,0.0,0.0,0.0,0.0,0.0,0.0,0.0,0.0,0.0,0.0,-3.4369,0.0,0.0,0.0,0.0,0.0,0.0,0.0,0.0,0.0,0.0,0.0,0.0,0.0,0.0,0.0,0.0,0.0,0.0,0.0,0.0,0.0,0.0,-4.6717,-4.9029,-5.4585,-5.8122,-5.9351,-5.839,-5.8653,-6.0379,-6.014,-5.8452,-5.5434,0.0,0.0,0.0,0.0,0.0,0.0,0.0,0.0,0.0,0.0,0.0,0.0,0.0,0.0,0.0,0.0,0.0,0.0,0.0,0.0,0.0,0.0,0.0,0.0,0.0,0.0,-4.4296,-4.5687,-4.6899,0.0,0.0,0.0,0.0,0.0,0.0,0.0,0.0,0.0,0.0,-6.2586,-6.6123,-6.6938,-6.7937,-6.9751,-7.2149,-7.0696,-7.0218,-7.2931,-7.3341,-7.2177,0.0,0.0,0.0,0.0,0.0,0.0,0.0,0.0,0.0,0.0,0.0,0.0,0.0,0.0,0.0,0.0,0.0,0.0,0.0,0.0,0.0,0.0,0.0,0.0,0.0,0.0,0.0,-3.5408,-3.493,0.0,0.0,0.0,0.0,0.0,0.0,0.0,0.0,0.0,0.0,0.0,-4.6505,-4.7172,0.0,0.0,0.0,0.0,0.0,0.0,0.0,0.0,0.0,0.0,0.0,0.0,-4.7465,-4.9977,-5.5427,-5.8818,-5.9782,-5.9845,-6.0415,-6.1581,-6.1801,-6.0369,-5.7155,0.0,0.0,0.0,0.0,0.0,0.0,0.0,0.0,0.0,0.0,0.0,0.0,0.0,0.0,0.0,0.0,0.0,0.0,0.0,0.0,0.0,0.0,0.0,0.0,0.0,-4.8356,0.0,0.0,0.0,0.0,0.0,0.0,0.0,0.0,0.0,0.0,0.0,-5.91,-6.2653,-6.5672,-6.8271,-7.0252,-7.1727,-7.3553,0.0,0.0,0.0,0.0,0.0,0.0,0.0,0.0,0.0,0.0,0.0,0.0,0.0,0.0,-6.5731,-5.9562,-5.8386,-5.8248,-5.7823,0.0,0.0,0.0,0.0,0.0,0.0,0.0,0.0,0.0,0.0,0.0,0.0,0.0,0.0,-3.9288,0.0,-3.9714,0.0,0.0,0.0,0.0,0.0,0.0,0.0,0.0,-4.745,-4.8915,-4.9854,-5.0482,-5.0779,0.0,-5.0067,-4.7683,0.0,0.0,0.0,0.0,0.0,0.0,0.0,0.0,-4.9258,-5.2068,-5.7241,-6.0378,-6.1141,-6.1498,-6.222,-6.3239,-6.3488,-6.2309,-5.9539,-5.6893,-5.4233,0.0,0.0,0.0,0.0,0.0,0.0,0.0,0.0,0.0,0.0,0.0,0.0,0.0,0.0,0.0,0.0,0.0,0.0,0.0,0.0,0.0,0.0,0.0,-5.0506,0.0,0.0,0.0,0.0,0.0,0.0,0.0,0.0,0.0,-5.7303,-6.0417,-6.4103,-6.7676,-6.9341,-7.0772,-7.2025,0.0,0.0,0.0,0.0,0.0,0.0,0.0,-6.9948,-6.9597,-6.7607,-6.6426,-6.7531,-7.0094,-7.2064,-7.2078,0.0,0.0,-6.5241,-6.4062,-6.4058,-6.4007,-6.4454,-6.4267,-6.2124,-6.2163,-6.2116,0.0,0.0,0.0,0.0,0.0,0.0,0.0,0.0,-4.4596,-4.4409,0.0,-4.5384,0.0,0.0,0.0,0.0,0.0,-4.5779,0.0,0.0,-5.356,-5.4791,-5.4622,-5.386,-5.4161,-5.5461,-5.4005,-5.2771,-5.179,-4.9541,0.0,0.0,0.0,0.0,0.0,0.0,-5.204,-5.526,-5.9944,-6.2735,-6.3421,-6.335,-6.3992,-6.5336,-6.5036,-6.4071,-6.2413,-5.9454,-5.7038,-5.5249,-4.9412,0.0,0.0,0.0,0.0,0.0,0.0,0.0,0.0,0.0,0.0,0.0,0.0,0.0,0.0,0.0,0.0,0.0,0.0,0.0,0.0,-5.2319,0.0,0.0,0.0,0.0,0.0,0.0,0.0,0.0,0.0,0.0,-6.1125,-6.4362,-6.847,-7.2379,0.0,0.0,0.0,0.0,-7.3019,-7.2884,-7.1394,-7.0893,-7.1863,-7.3144,-7.3807,-7.3209,0.0,0.0,-7.2649,-7.3841,-7.4774,-7.3326,-7.5533,-7.6671,-7.4652,-7.1896,-7.0591,-7.173,-7.0255,-6.835,-6.748,-6.7871,-6.7818,-4.546,0.0,0.0,0.0,0.0,-4.3545,-4.5579,-4.9088,-4.8728,-4.8113,-4.7372,-4.7888,0.0,0.0,0.0,0.0,0.0,0.0,-4.9067,-5.2104,-5.3236,-5.5006,-5.7216,-5.7862,-5.8727,-5.9731,-5.9817,-5.935,-5.8403,-5.7797,-5.2513,-4.3081,0.0,0.0,0.0,0.0,-5.484,-5.7025,-6.106,-6.3305,-6.3497,-6.3879,-6.4136,-6.4337,-6.3643,-6.3289,-6.323,-6.1862,-5.9827,-5.7076,-5.4653,0.0,0.0,0.0,0.0,0.0,0.0,0.0,0.0,0.0,0.0,0.0,0.0,0.0,0.0,0.0,0.0,0.0,0.0,0.0,-5.2076,-5.4593,-5.487,0.0,0.0,0.0,0.0,0.0,0.0,0.0,0.0,0.0,-6.8099,-6.9683,-7.1559,0.0,0.0,-7.3641,-7.329,-7.446,-7.5859,-7.7039,-7.6781,0.0,-7.8565,-7.6773,-7.5541,-7.6626,-7.7618,-7.8091,-7.7456,-7.8672,-7.9879,-7.9913,-8.0224,-8.0396,-8.0131,-7.8598,-7.7298,-7.7281,-7.7029,-7.6207,-7.439,-7.4063,-7.3274,-5.1947,-4.9458,-4.6226,-4.617,-4.8164,-4.7718,-4.9557,-5.2918,-5.2386,-5.1687,-5.0984,-5.1648,-4.993,-4.6495,-4.6507,0.0,0.0,0.0,-5.2563,-5.5475,-5.604,-5.712,-5.8658,-5.971,-6.0616,-6.1324,-6.1514,-6.1603,-6.1591,-6.1007,-5.6654,-4.8905,0.0,0.0,-4.9892,-5.4344,-5.7587,-5.9526,-6.2432,-6.4103,-6.4369,-6.489,-6.4949,-6.4438,-6.378,-6.3394,-6.3156,-6.297,-6.1862,-5.964,-5.8151,-5.5958,0.0,0.0,0.0,0.0,0.0,0.0,0.0,0.0,0.0,0.0,0.0,-4.7146,-4.3618,0.0,0.0,0.0,-5.3509,-5.5668,-5.6697,-5.8539,0.0,0.0,0.0,0.0,0.0,0.0,0.0,-6.4958,-6.9313,-7.2585,-7.3202,-7.4305,-7.53,-7.5845,-7.632,-7.6513,-7.6133,0.0,-7.8892,-7.9949,-8.0059,-8.0406,-8.1538,-8.0004,-7.8963,-7.9822,-8.0351,-8.0682,-8.0859,-8.1914,-8.2852,-8.3569,-8.3466,-8.3369,-8.4205,-8.3472,-8.2335,-8.1081,-8.0748,-8.0014,-7.7523,-7.7023,-7.6111,-5.7654,-5.8553,-5.2342,-5.0634,-5.1971,-5.1943,-5.3318,-5.5552,-5.5591,-5.5123,-5.4537,-5.6098,-5.4108,-4.9625,-4.9687,0.0,-5.5537,-5.6329,-5.7897,-6.0179,-6.077,-6.0465,-5.9498,-6.0217,-6.0822,-6.1316,-6.0638,-6.106,-6.2387,-6.0947,-5.9355,-5.7801,-5.7059,-5.6683,-5.6681,-5.8301,-6.0311,-6.2576,-6.3949,-6.5049,-6.5873,-6.6218,-6.6045,-6.5298,-6.5076,-6.4196,-6.271,-6.3379,-6.3453,-6.2673,-6.0566,-5.9129,-5.8503,0.0,0.0,0.0,0.0,0.0,0.0,0.0,0.0,0.0,0.0,0.0,0.0,0.0,0.0,0.0,-6.0679,0.0,-6.4065,-6.3537,0.0,0.0,0.0,-6.1731,-6.422,-6.7464,-6.9806,-7.0453,0.0,0.0,-7.6852,-7.8266,-7.9353,-7.966,-8.0605,-8.0953,-8.0079,-8.119,-8.2029,-8.1981,-8.2079,-8.2289,-8.2941,-8.307,-8.303,-8.2804,-8.3218,-8.3484,-8.339,-8.392,-8.4678,-8.5397,-8.5466,-8.5746,-8.6954,-8.6852,-8.6268,-8.367,-8.2435,-8.1001,-7.8826,-7.8128,-7.7201,-5.8745,-5.9021,-5.803,-5.7495,-5.7226,-5.6563,-5.6996,-5.8168,-5.8207,-5.805,-5.7933,-5.8324,-5.7796,-5.6601,-5.7221,-5.8048,-5.9026,-5.9826,-6.0473,-6.1035,-6.1658,-6.1813,-6.1555,-6.2563,-6.3176,-6.3345,-6.3584,-6.3562,-6.3334,-6.2917,-6.2231,-6.131,-6.1115,-5.9779,-5.7452,-6.022,-6.2553,-6.4209,-6.4554,-6.5615,-6.7368,-6.6774,-6.6306,-6.6119,-6.5932,-6.5311,-6.4308,-6.5051,-6.5422,-6.5236,-6.4696,-6.4299,-6.3879,-5.7616,0.0,0.0,0.0,0.0,0.0,0.0,0.0,0.0,0.0,-5.3655,-4.7946,0.0,-5.6557,0.0,-6.4833,-6.756,-6.5829,-6.6574,0.0,0.0,-6.7025,-6.7626,-7.0772,-7.3304,-7.4777,-7.4636,-7.7279,-7.9402,-7.9935,-8.0619,-8.1829,-8.3714,-8.3303,-8.2681,-8.2523,-8.4213,-8.5423,-8.5497,-8.6449,-8.7476,-8.7295,-8.6973,-8.6091,-8.5228,-8.5559,-8.5964,-8.6325,-8.6986,-8.7606,-8.7777,-8.7777,-8.7847,-8.7917,-8.7882,-8.7573,-8.65,-8.5565,-8.4169,-8.1492,-8.0503,-7.9124,-6.0649,-6.1346,-6.1092,-6.1126,-6.1249,-5.9237,-5.887,-5.9651,-5.969,-5.9429,-5.9092,-5.9491,-5.9995,-6.0666,-6.1136,-6.1539,-6.1912,-6.2354,-6.2531,-6.2486,-6.3127,-6.3381,-6.3376,-6.4216,-6.4573,-6.4611,-6.4795,-6.485,-6.4737,-6.4737,-6.4509,-6.4055,-6.4396,-6.3296,-6.0871,-6.2363,-6.3541,-6.4279,-6.5652,-6.7196,-6.8928,-6.804,-6.6979,-6.5939,-6.5717,-6.4927,-6.3407,-6.4488,-6.4778,-6.4108,-6.4177,-6.4206,-6.4067,-6.0037,-5.8272,0.0,0.0,0.0,0.0,0.0,0.0,0.0,0.0,0.0,0.0,0.0,-6.1317,-6.2516,-6.8352,-7.0933,-6.8148,-6.9964,-7.1529,-7.195,-7.1827,-7.2875,-7.5766,-7.7523,-7.8548,-7.8661,-8.0361,-8.1867,-8.2482,-8.3388,-8.4606,-8.6445,-8.6929,-8.6759,-8.6232,-8.7322,-8.8329,-8.8366,-8.9209,-8.9514,-8.8761,-8.7595,-8.673,-8.6333,-8.6547,-8.6973,-8.7708,-8.7951,-8.8054,-8.8088,-8.8088,-8.8191,-8.8295,-8.8399,-8.8226,-8.7936,-8.6644,-8.4736,-8.2537,-8.0915,-7.9189,-6.2549,-6.389,-6.2574,-6.2927,-6.4122,-6.1051,-6.0175,-6.0881,-6.0877,-6.0424,-5.9685,-6.0436,-6.1549,-6.2844,-6.298,-6.3429,-6.4139,-6.4255,-6.4279,-6.4272,-6.4772,-6.5025,-6.5062,-6.5294,-6.5388,-6.5329,-6.5204,-6.5454,-6.6101,-6.6292,-6.633,-6.6292,-6.6937,-6.6595,-6.5227,-6.4704,-6.4394,-6.4191,-6.6787,-6.8767,-7.0159,-6.917,-6.7628,-6.5577,-6.5366,-6.4395,-6.2354,-6.3547,-6.3579,-6.2317,-6.2407,-6.2673,-6.3043,-6.2414,-6.184,0.0,-6.0556,0.0,0.0,0.0,0.0,0.0,0.0,0.0,0.0,-6.6126,-6.6971,-6.6105,-7.1466,-7.3838,-7.1179,-7.3429,-7.5425,-7.6319,-7.6378,-7.7216,-7.9372,-8.0567,-8.1445,-8.2127,-8.2992,-8.39,-8.4866,-8.6176,-8.7291,-8.8493,-9.0042,-9.0769,-9.0053,-9.0295,-9.0759,-9.0833,-9.0806,-9.0214,-8.8545,-8.7258,-8.6717,-8.7012,-8.7077,-8.7395,-8.8674,-8.8433,-8.7882,-8.795,-8.8053,-8.8191,-8.8777,-8.8915,-8.8845,-8.8647,-8.6563,-8.4203,-8.2385,-8.0443,-7.8597,-6.2212,-6.3182,-6.3578,-6.4328,-6.5104,-6.3818,-6.3269,-6.3419,-6.338,-6.3298,-6.313,-6.3257,-6.3487,-6.3808,-6.4416,-6.4814,-6.5032,-6.5732,-6.6003,-6.5988,-6.6128,-6.619,-6.6157,-6.6031,-6.5827,-6.5666,-6.6047,-6.615,-6.6139,-6.7392,-6.788,-6.7572,-6.7588,-6.7674,-6.7697,0.0,0.0,0.0,-6.7013,-6.7943,-6.9439,-6.8086,-6.703,-6.6495,-6.6967,0.0,-6.5603,-6.5746,-6.5876,-6.579,-6.595,0.0,0.0,0.0,0.0,0.0,0.0,0.0,0.0,0.0,0.0,0.0,-6.7845,-6.7173,-6.526,-6.9435,-7.1925,-7.1156,-7.3913,-7.5761,-7.5819,-7.6287,-7.7253,-7.8629,-7.9087,-7.9589,-8.047,-8.2317,-8.3602,-8.3468,-8.4721,-8.6199,-8.7508,-8.7883,-8.8704,-9.0552,-9.1418,-9.1873,-9.2216,-9.2356,-9.2468,-9.2505,-9.2232,-9.151,-8.9865,-8.907,-8.8471,-8.8635,-8.8395,-8.8743,-8.995,-9.0192,-9.0123,-9.0054,-9.0192,-9.0123,-9.0329,-9.0222,-8.9477,-8.8363,-8.6195,-8.399,-8.2293,-8.0391,-7.8565,-6.3013,0.0,-6.4637,-6.5346,0.0,-6.6034,-6.6009,-6.5874,-6.5088,-6.4977,-6.5285,-6.4827,-6.4805,-6.522,-6.5615,-6.5817,-6.5817,-6.626,-6.6508,-6.6508,-6.6508,-6.6742,-6.713,-6.6864,-6.6896,-6.7209,-6.7291,-6.7454,-6.7757,-6.8536,-6.9022,-6.9214,-6.9496,-6.975,-6.997,-7.0241,-7.0205,-6.9959,-6.9584,-7.0122,-7.1479,-7.0353,-6.9072,-6.7822,0.0,0.0,0.0,0.0,0.0,0.0,0.0,0.0,0.0,0.0,0.0,-7.1579,-7.0452,-7.0143,-7.1264,-7.2053,-7.3061,-7.4319,-7.4624,-7.3727,-7.1242,-7.4434,-7.6356,-7.5968,-7.7047,-7.7848,-7.8239,-7.8611,-7.9205,-7.9985,-8.0693,-8.1252,-8.1995,-8.358,-8.4792,-8.5357,-8.6536,-8.7827,-8.8824,-8.961,-9.0302,-9.1556,-9.2087,-9.2653,-9.333,-9.3248,-9.3062,-9.3322,-9.2353,-9.1599,-9.09,-8.9675,-8.9177,-8.9221,-8.9225,-8.9605,-9.0605,-9.0502,-9.026,-9.026,-9.0156,-9.005,-8.9944,-8.926,-8.8295,-8.7212,-8.5166,-8.3281,-8.2174,-8.0455,-7.876,-6.3998,-6.5387,-6.5449,-6.597,-6.6758,-6.7567,-6.7878,-6.7695,0.0,0.0,0.0,-6.5746,-6.5785,-6.6389,-6.6561,-6.6561,-6.6445,-6.6804,-6.6858,-6.6742,-6.6897,-6.7324,-6.8024,-6.7793,-6.8044,-6.864,-6.8564,-6.8806,-6.9404,-6.9663,-7.0248,-7.1053,-7.1674,-7.2057,-7.2218,-7.277,-7.308,-7.3154,-7.2195,-7.2222,-7.3116,-7.2603,-7.1247,-6.9099,-6.9649,-6.9174,-6.7479,-6.8421,-6.857,-6.7619,-6.7908,-6.8808,-7.0266,-7.0863,-7.2624,-7.5864,-7.6927,-7.8108,-7.973,-8.0503,-8.0766,-8.0564,-8.0218,-7.9483,-7.8143,-7.9335,-8.0097,-7.9948,-8.0059,-8.0022,-7.9762,-8.0282,-8.0877,-8.1285,-8.1991,-8.2771,-8.3737,-8.5019,-8.6196,-8.7018,-8.819,-8.9183,-8.9708,-9.0796,-9.1762,-9.2013,-9.2719,-9.3441,-9.4042,-9.3887,-9.3657,-9.3954,-9.2868,-9.1722,-9.1419,-9.0418,-8.9322,-8.9432,-8.9433,-8.9778,-9.0295,-9.0123,-8.9812,-9.0019,-8.9706,-8.9564,-8.9423,-8.8583,-8.7127,-8.6663,-8.4728,-8.2942,-8.2308,-8.0884,-7.9706,-6.45,-6.5387,-6.5397,-6.5942,-6.6741,-6.7579,-6.7864,-6.7806,-6.7525,-6.7082,-6.64,-6.6306,-6.6312,-6.6433,-6.7166,-6.7105,-6.6523,-6.8047,-6.8334,0.0,-6.8412,-6.8801,-6.8917,-6.8885,-6.878,-6.8674,-6.9285,-6.9502,-6.9577,-7.0762,-7.1965,-7.2927,-7.3063,-7.357,-7.4565,-7.5469,-7.5926,-7.5888,-7.2456,-7.0698,-7.0879,-7.0893,-7.0623,-7.0068,-7.0271,-7.0496,-7.0788,-6.9702,-6.9096,-6.9244,-6.9619,-7.1025,-7.3629,-7.5195,-7.7381,-8.0345,-8.1585,-8.2322,-8.2518,-8.2568,-8.2335,-8.1982,-8.2059,-8.1917,-8.1437,-8.214,-8.24,-8.1768,-8.2177,-8.2066,-8.0802,-8.0728,-8.1694,-8.3514,-8.3997,-8.4629,-8.6041,-8.7626,-8.8431,-8.801,-8.9299,-9.0552,-9.1167,-9.1613,-9.2133,-9.2728,-9.3657,-9.4295,-9.479,-9.4901,-9.4821,-9.4808,-9.4367,-9.338,-9.2141,-9.1376,-9.0432,-8.8981,-8.8846,-8.9122,-8.9743,-8.9778,-8.9881,-9.0502,-9.0326,-9.0182,-9.0216,-8.971,-8.8464,-8.7445,-8.6027,-8.5084,-8.3947,-8.241,-8.1171,-6.5036,-6.5465,-6.5894,-6.6322,-6.678,-6.8047,-6.8564,-6.849,-6.849,-6.7681,-6.6445,-6.6428,-6.6376,-6.6418,-6.7247,-6.7459,-6.711,-6.8458,-6.8878,-6.8529,-6.8917,-6.9328,-6.9739,-6.9778,-6.9903,-7.0194,-7.0501,-7.0606,-7.0604,-7.166,-7.2714,-7.3702,-7.4329,-7.5225,-7.6118,-7.6185,-7.6464,-7.6806,-7.4733,-7.3644,-7.3729,-7.3644,-7.3549,-7.3355,-7.3538,-7.3688,-7.3964,-7.3351,-7.3267,-7.3711,-7.3875,-7.494,-7.693,-7.816,-7.9676,-8.1677,-8.2693,-8.3508,-8.4066,-8.4403,-8.3936,-8.2632,-8.3538,-8.3955,-8.335,-8.3626,-8.37,-8.3329,-8.3292,-8.3069,-8.2734,-8.3106,-8.3812,-8.4889,-8.6189,-8.7155,-8.7564,-8.8938,-8.9756,-8.9533,-9.0424,-9.1465,-9.2319,-9.2765,-9.3359,-9.414,-9.4895,-9.5425,-9.5721,-9.5987,-9.599,-9.5507,-9.4853,-9.4011,-9.2947,-9.2286,-9.1178,-8.9467,-8.9191,-8.9157,-8.9226,-8.9364,-8.9812,-9.0157,-9.0185,-9.0173,-9.0207,-8.9004,-8.806,-8.7511,-8.6652,-8.5567,-8.4391,-8.2971,-8.1741,-6.5699,-6.5777,-6.64,-6.6896,-6.7353,-6.8241,-6.8798,-6.9034,-6.8668,-6.7704,-6.6506,-6.6394,-6.6456,-6.6651,-6.7521,-6.7888,-6.8079,-6.9157,-6.9578,-6.9438,-6.9561,-6.9972,-7.0559,-7.058,-7.0872,-7.1436,-7.1396,-7.1492,-7.1743,-7.2319,-7.3264,-7.444,-7.5617,-7.6592,-7.737,-7.6846,-7.6865,-7.743,-7.7109,-7.6818,-7.6518,-7.6493,-7.6504,-7.6349,-7.6542,-7.6616,-7.6663,-7.6718,-7.6949,-7.7294,-7.7235,-7.7751,-7.898,-7.9896,-8.0927,-8.2099,-8.2951,-8.3868,-8.4851,-8.5342,-8.4977,-8.3602,-8.5003,-8.5812,-8.544,-8.5618,-8.5483,-8.5,-8.4629,-8.4518,-8.4666,-8.5335,-8.5929,-8.6264,-8.801,-8.9087,-8.9087,-9.0202,-9.1056,-9.113,-9.1762,-9.2616,-9.3397,-9.4065,-9.4697,-9.5409,-9.6018,-9.632,-9.6468,-9.6805,-9.6695,-9.6141,-9.5354,-9.4482,-9.3768,-9.2848,-9.1467,-8.9673,-8.9295,-8.9088,-8.8881,-8.9226,-8.9778,-8.988,-8.9766,-8.9648,-8.9499,-8.8509,-8.7528,-8.7329,-8.7007,-8.6142,-8.4391,-8.2971,-8.1864,-6.6595,-6.6595,-6.6673,-6.7615,-6.8735,-6.7515,-6.7786,-6.8839,-6.7393,-6.6583,-6.6588,-6.6415,-6.6786,-6.7444,-6.8355,-6.8816,-6.9007,-7.061,-7.0953,-7.044,-7.1021,-7.1413,-7.1434,-7.1397,-7.1397,-7.1435,-7.1415,-7.182,-7.2397,-7.2645,-7.3844,-7.5948,-7.6734,-7.7408,-7.8154,-7.818,-7.8187,-7.8301,-7.8538,-7.7979,-7.663,-7.7192,-7.7466,-7.7401,-7.7466,-7.7941,-7.8527,-7.7979,-7.7704,-7.7786,-7.7477,-7.7661,-7.8656,-7.993,-8.1236,-8.2489,-8.3498,-8.4249,-8.4651,-8.4757,-8.5035,-8.564,-8.6583,-8.7567,-8.8166,-8.9248,-8.8901,-8.723,-8.7192,-8.6895,-8.5743,-8.6264,-8.7007,-8.7601,-8.8753,-8.9793,-9.1056,-9.2208,-9.2765,-9.2765,-9.3359,-9.4251,-9.492,-9.5254,-9.5558,-9.6124,-9.6283,-9.6509,-9.6769,-9.6916,-9.6952,-9.6841,-9.6615,-9.5331,-9.3531,-9.2758,-9.1376,-8.8697,-8.8295,-8.8605,-8.8777,-8.9191,-8.9742,-8.9635,-8.9488,-8.9068,-8.864,-8.8168,-8.7834,-8.7632,-8.7411,-8.7077,-8.4755,-8.3045,-8.191,-6.6712,-6.6712,-6.672,-6.7686,-6.895,-6.8371,-6.873,-6.9655,-6.9056,-6.8696,-6.8586,-6.8121,-6.7755,-6.7617,-6.9014,-6.969,-6.9786,-7.1021,-7.142,-7.1148,-7.1448,-7.1589,-7.1552,-7.1475,-7.1415,-7.1412,-7.1876,-7.228,-7.28,-7.4115,-7.5847,-7.7472,-7.7585,-7.7858,-7.8446,-7.822,-7.8313,-7.8803,-7.894,-7.8854,-7.8653,-7.8466,-7.8377,-7.8377,-7.8479,-7.8866,-7.9477,-7.9391,-7.9604,-8.0117,-7.9962,-7.9981,-8.0452,-8.1306,-8.212,-8.2922,-8.4344,-8.4605,-8.3514,-8.5248,-8.6185,-8.5749,-8.7508,-8.8563,-8.8414,-8.925,-8.931,-8.8567,-8.8604,-8.8121,-8.6709,-8.749,-8.8233,-8.8381,-8.9644,-9.0982,-9.1613,-9.2876,-9.3694,-9.3768,-9.44,-9.5217,-9.596,-9.6486,-9.6755,-9.7018,-9.6877,-9.6806,-9.6952,-9.6914,-9.6914,-9.6989,-9.6914,-9.5954,-9.398,-9.3479,-9.1976,-8.9797,-8.8639,-8.8605,-8.8674,-8.8777,-8.9088,-8.9257,-8.8974,-8.8482,-8.7891,-8.7566,-8.738,-8.7396,-8.6908,-8.6294,-8.4408,-8.3372,-8.2401,-6.672,-6.672,-6.6967,-6.7897,-6.9158,-6.9161,-6.9575,-7.0199,-7.0011,-7.0016,-7.0137,-6.9711,-6.9207,-6.878,-6.975,-7.0409,-7.095,-7.1409,-7.1598,-7.1598,-7.1568,-7.1668,-7.1824,-7.1763,-7.1838,-7.2065,-7.2645,-7.3187,-7.3844,-7.5862,-7.7679,-7.8652,-7.8317,-7.837,-7.8849,-7.8473,-7.8515,-7.9079,-7.9304,-7.9704,-8.0015,-7.9828,-7.9528,-7.929,-7.9629,-8.0005,-8.0465,-8.0643,-8.1157,-8.2047,-8.1796,-8.1645,-8.1683,-8.2227,-8.2826,-8.3449,-8.4481,-8.4619,-8.3185,-8.5788,-8.7001,-8.6287,-8.8381,-8.9607,-8.9087,-8.9496,-8.9793,-8.9607,-8.9607,-8.9013,-8.7935,-8.879,-8.9198,-8.8678,-9.0276,-9.1465,-9.2096,-9.3397,-9.4362,-9.4808,-9.5403,-9.6034,-9.6745,-9.72,-9.7499,-9.7356,-9.7175,-9.6989,-9.6914,-9.6838,-9.6838,-9.7063,-9.7138,-9.6197,-9.4259,-9.364,-9.2424,-9.0454,-8.8984,-8.8984,-8.895,-8.9053,-8.9052,-8.956,-8.897,-8.8448,-8.7845,-8.7423,-8.7042,-8.7024,-8.6688,-8.5762,-8.4641,-8.3513,-8.2188,-6.6766,-6.6856,-6.7676,-6.8474,-6.9206,-6.9236,-6.9628,-7.0354,-6.9494,-6.9517,-7.0428,-7.0968,-7.1218,-7.1182,-7.0661,-7.1105,-7.2383,-7.1892,-7.1598,-7.1581,-7.155,-7.1901,-7.2615,-7.259,-7.2916,-7.3419,-7.3728,-7.4657,-7.6219,-7.7703,-7.8941,-7.9653,-7.8979,-7.9005,-7.9562,-7.918,-7.9041,-7.9266,-7.9867,-8.0355,-8.0505,-8.1106,-8.0943,-8.0226,-8.0892,-8.1332,-8.1519,-8.1557,-8.1895,-8.2721,-8.2083,-8.1581,-8.1552,-8.2104,-8.3004,-8.4063,-8.3744,-8.3706,-8.4413,-8.5939,-8.6882,-8.7192,-8.9533,-9.1167,-9.0387,-9.0833,-9.0945,-9.0499,-9.0424,-9.0053,-8.9496,-8.9867,-9.0053,-8.9496,-9.009,-9.1353,-9.2839,-9.3842,-9.4883,-9.5997,-9.6443,-9.6783,-9.7422,-9.7536,-9.743,-9.7138,-9.6989,-9.6914,-9.6838,-9.6838,-9.7063,-9.7211,-9.7211,-9.6546,-9.3746,-9.337,-9.1985,-9.014,-8.9536,-8.9605,-8.9881,-9.0052,-9.0082,-8.9693,-8.8799,-8.817,-8.7905,-8.7583,-8.7313,-8.7159,-8.6721,-8.5982,-8.513,-8.2734,-8.1694,-6.714,-6.7613,-6.7919,-6.8796,-6.9965,-6.9986,-7.0395,-7.1131,-7.1335,-7.1862,-7.258,-7.2848,-7.3291,-7.3777,-7.2405,-7.1862,-7.2034,-7.1741,-7.1586,-7.1586,-7.1494,-7.159,-7.1802,-7.1777,-7.222,-7.3109,-7.4154,-7.6016,-7.8359,-7.9163,-7.9607,-7.9963,-7.9704,-7.9524,-7.9569,-7.9273,-7.9341,-7.9905,-8.0342,-8.0981,-8.1796,-8.1809,-8.1495,-8.1093,-8.0919,-8.1069,-8.1594,-8.1594,-8.2233,-8.3547,-8.2834,-8.2556,-8.2885,-8.3004,-8.3189,-8.3611,-8.3849,-8.4332,-8.5149,-8.6152,-8.7527,-8.905,-8.9681,-9.061,-9.1056,-9.1093,-9.0796,-9.0647,-9.1019,-9.1242,-9.1465,-9.1019,-9.061,-9.0907,-9.1613,-9.2691,-9.4214,-9.5254,-9.5997,-9.6554,-9.7037,-9.7525,-9.7533,-9.7502,-9.7285,-9.7063,-9.6914,-9.6838,-9.6914,-9.6989,-9.7138,-9.743,-9.7502,-9.6731,-9.4287,-9.3833,-9.3012,-9.1136,-9.0054,-9.0088,-9.0295,-9.0088,-8.9981,-8.9804,-8.8837,-8.8038,-8.7777,-8.7287,-8.7042,-8.7169,-8.6914,-8.6626,-8.5816,-8.3764,-8.2875,-6.7734,-6.8471,-6.8748,-6.9472,-7.0453,-7.0727,-7.1122,-7.1636,-7.2168,-7.3006,-7.382,-7.3664,-7.3992,-7.4516,-7.3355,-7.2308,-7.1663,-7.1586,-7.1607,-7.1571,-7.1746,-7.1978,-7.2267,-7.2457,-7.317,-7.4409,-7.5972,-7.7949,-7.9709,-8.0126,-8.0306,-8.0391,-8.0081,-7.9898,-7.9802,-7.9677,-7.9992,-8.0865,-8.1242,-8.1995,-8.2911,-8.2786,-8.2272,-8.1645,-8.1082,-8.1031,-8.1594,-8.1594,-8.2233,-8.3397,-8.3359,-8.3367,-8.3692,-8.3489,-8.3409,-8.3589,-8.4072,-8.474,-8.5595,-8.6598,-8.7935,-8.957,-9.0053,-9.0536,-9.1242,-9.1019,-9.0907,-9.1019,-9.1353,-9.2096,-9.2876,-9.2356,-9.1948,-9.2468,-9.3025,-9.3917,-9.5217,-9.6108,-9.6666,-9.7037,-9.752,-9.7748,-9.761,-9.7395,-9.7211,-9.6914,-9.6762,-9.6762,-9.6914,-9.7063,-9.7211,-9.7502,-9.7211,-9.6274,-9.4553,-9.373,-9.2943,-9.1224,-9.0398,-9.0467,-9.0467,-9.0192,-8.9914,-8.9704,-8.9042,-8.8282,-8.7585,-8.7023,-8.705,-8.7279,-8.7405,-8.7262,-8.6214,-8.5035,-8.401,-6.8622,-6.9464,-7.0232,-7.0499,-7.0727,-7.1312,-7.1628,-7.173,-7.178,-7.2831,-7.4034,-7.3278,-7.3588,-7.382,-7.3239,-7.2362,-7.1814,-7.1753,-7.1702,-7.1707,-7.2308,-7.3044,-7.376,-7.4358,-7.5636,-7.7318,-7.9207,-8.0048,-8.0267,-8.0723,-8.0869,-8.0608,-8.02,-8.0136,-8.0679,-8.0386,-8.0924,-8.1876,-8.2491,-8.3105,-8.3657,-8.3888,-8.3301,-8.2009,-8.1608,-8.1557,-8.167,-8.1594,-8.1895,-8.2758,-8.3472,-8.3838,-8.349,-8.3318,-8.3514,-8.4072,-8.4332,-8.4778,-8.5632,-8.7044,-8.7898,-8.879,-9.0313,-9.1093,-9.1056,-9.1316,-9.1613,-9.1725,-9.191,-9.2468,-9.3879,-9.414,-9.4102,-9.4214,-9.4325,-9.4734,-9.5477,-9.6183,-9.6926,-9.7632,-9.7892,-9.7715,-9.743,-9.7285,-9.7138,-9.6838,-9.6762,-9.6838,-9.6989,-9.7211,-9.7358,-9.7321,-9.7027,-9.6197,-9.4783,-9.3363,-9.2329,-9.1264,-9.0918,-9.0743,-9.0709,-9.0536,-9.0362,-9.0116,-8.9389,-8.8662,-8.8538,-8.8041,-8.8202,-8.8361,-8.826,-8.8216,-8.7592,-8.6608,-8.4748,-6.9479,-7.028,-7.0503,-7.0924,-7.1394,-7.1643,-7.1991,-7.2617,-7.3113,-7.3972,-7.4769,-7.4693,-7.4732,-7.4538,-7.347,-7.2673,-7.2491,-7.2491,-7.2457,-7.2481,-7.2677,-7.3278,-7.3956,-7.4304,-7.5563,-7.7728,-7.9439,-8.0422,-8.079,-8.1012,-8.0977,-8.0716,-8.0427,-8.0392,-8.058,-8.0461,-8.0988,-8.2184,-8.2564,-8.3195,-8.4079,-8.3812,-8.325,-8.2661,-8.1946,-8.182,-8.2345,-8.1369,-8.1219,-8.197,-8.2129,-8.2345,-8.2631,-8.3,-8.3292,-8.3552,-8.4109,-8.474,-8.5558,-8.6635,-8.8084,-8.931,-9.0016,-9.0833,-9.191,-9.1873,-9.2022,-9.2542,-9.3099,-9.3917,-9.4845,-9.5551,-9.5774,-9.5848,-9.5886,-9.6146,-9.6814,-9.726,-9.7595,-9.7817,-9.7892,-9.7752,-9.743,-9.7285,-9.7138,-9.6762,-9.6838,-9.6989,-9.7138,-9.7358,-9.7138,-9.6654,-9.6465,-9.6384,-9.5085,-9.4177,-9.3392,-9.2189,-9.1542,-9.1157,-9.1123,-9.0812,-9.0707,-9.0429,-8.9701,-8.9278,-8.9151,-8.9024,-8.9048,-8.9545,-8.9715,-8.9703,-8.9542,-8.8095,-8.585,-7.0366,-7.1099,-7.1055,-7.1295,-7.1789,-7.2039,-7.2471,-7.3021,-7.3534,-7.4373,-7.5133,-7.4709,-7.4847,-7.4983,-7.3915,-7.335,-7.3385,-7.3385,-7.3523,-7.376,-7.3762,-7.4053,-7.4693,-7.5526,-7.6785,-7.8618,-8.0058,-8.0847,-8.1242,-8.1253,-8.1099,-8.0844,-8.0745,-8.0761,-8.092,-8.0887,-8.1384,-8.2485,-8.2897,-8.3411,-8.4021,-8.3861,-8.3451,-8.2962,-8.2359,-8.2195,-8.2308,-8.1332,-8.1069,-8.1468,-8.144,-8.1697,-8.2519,-8.3037,-8.3329,-8.3737,-8.4406,-8.5186,-8.6041,-8.7192,-8.8307,-8.9681,-9.0127,-9.0796,-9.2171,-9.2133,-9.2579,-9.3359,-9.3842,-9.466,-9.57,-9.6257,-9.6703,-9.7074,-9.7074,-9.7334,-9.7817,-9.7892,-9.7892,-9.7892,-9.7822,-9.7573,-9.7358,-9.7211,-9.7063,-9.6762,-9.6838,-9.7063,-9.7285,-9.743,-9.7027,-9.6654,-9.6502,-9.6143,-9.541,-9.4894,-9.4474,-9.3396,-9.2402,-9.2027,-9.1778,-9.1088,-9.0812,-9.0566,-9.001,-8.9654,-8.9601,-8.9194,-8.914,-9.0019,-9.0831,-9.0514,-8.9966,-8.8504,-8.6593,-7.1212,-7.1885,-7.1825,-7.1799,-7.1965,-7.2588,-7.3114,-7.3231,-7.3177,-7.4133,-7.4994,-7.4006,-7.4106,-7.508,-7.4533,-7.4162,-7.4356,-7.4278,-7.4706,-7.5271,-7.5468,-7.5643,-7.5896,-7.7757,-7.9128,-8.009,-8.0987,-8.1426,-8.1453,-8.1453,-8.14,-8.1128,-8.1039,-8.1151,-8.144,-8.1573,-8.1915,-8.2683,-8.3328,-8.3659,-8.3796,-8.4231,-8.4004,-8.3188,-8.296,-8.2646,-8.2158,-8.182,-8.167,-8.1618,-8.1431,-8.1941,-8.304,-8.3334,-8.3663,-8.4295,-8.5149,-8.6041,-8.7007,-8.8195,-8.931,-8.9793,-9.0833,-9.1762,-9.1985,-9.2579,-9.3174,-9.3954,-9.4251,-9.492,-9.6146,-9.6703,-9.7074,-9.7706,-9.7743,-9.7817,-9.7892,-9.7892,-9.7892,-9.7892,-9.7715,-9.7502,-9.7285,-9.7138,-9.6914,-9.6838,-9.6914,-9.7138,-9.7285,-9.7502,-9.7502,-9.7175,-9.6612,-9.6472,-9.5978,-9.5982,-9.5701,-9.5565,-9.4038,-9.2928,-9.2267,-9.147,-9.0913,-9.0738,-9.0456,-9.0167,-8.9976,-8.978,-8.985,-9.0696,-9.0919,-9.0851,-9.0237,-8.9273,-8.789,-7.1705,-7.1885,-7.1753,-7.21,-7.2692,-7.2935,-7.3776,-7.4739,-7.4194,-7.4865,-7.5766,-7.46,-7.4761,-7.6086,-7.4882,-7.4822,-7.5599,-7.5444,-7.5599,-7.6415,-7.7057,-7.7272,-7.7623,-7.9114,-8.0135,-8.0439,-8.1103,-8.1504,-8.1504,-8.1504,-8.1478,-8.1427,-8.1335,-8.1385,-8.1523,-8.1543,-8.1739,-8.2249,-8.2912,-8.332,-8.3474,-8.4028,-8.4205,-8.3862,-8.3697,-8.3622,-8.3359,-8.2834,-8.2392,-8.2179,-8.2125,-8.2408,-8.3186,-8.3759,-8.4146,-8.4555,-8.5706,-8.6858,-8.775,-8.8753,-8.9793,-9.0945,-9.1465,-9.1948,-9.2616,-9.2876,-9.3397,-9.4102,-9.4697,-9.5477,-9.648,-9.7149,-9.7632,-9.7817,-9.7892,-9.7892,-9.7892,-9.7892,-9.7892,-9.7892,-9.7715,-9.7502,-9.7358,-9.7138,-9.6989,-9.6989,-9.7063,-9.7248,-9.7395,-9.743,-9.7502,-9.7061,-9.6709,-9.6794,-9.6785,-9.6956,-9.7079,-9.7426,-9.6055,-9.3922,-9.3032,-9.1889,-9.1504,-9.1147,-9.072,-9.0359,-9.0547,-9.0629,-9.1013,-9.1338,-9.1947,-9.2102,-9.2154,-9.1492,-8.9607,-7.2226,-7.1911,-7.2526,-7.2873,-7.3183,-7.3766,-7.4481,-7.4948,-7.4948,-7.5308,-7.5899,-7.5261,-7.5461,-7.6531,-7.6065,-7.6065,-7.6609,-7.6609,-7.6842,-7.7386,-7.8494,-7.9,-7.9192,-7.9958,-8.0367,-8.0817,-8.1296,-8.1504,-8.1504,-8.1504,-8.1504,-8.1478,-8.1504,-8.1504,-8.1556,-8.1904,-8.1986,-8.2127,-8.2909,-8.3478,-8.3284,-8.3916,-8.3928,-8.3824,-8.3847,-8.411,-8.3998,-8.3532,-8.311,-8.291,-8.2631,-8.2669,-8.3202,-8.396,-8.4518,-8.4889,-8.6078,-8.7328,-8.8518,-8.9384,-9.0387,-9.1566,-9.205,-9.2468,-9.2951,-9.3285,-9.3842,-9.466,-9.544,-9.622,-9.7,-9.7632,-9.7855,-9.7892,-9.7892,-9.7892,-9.7892,-9.7892,-9.7892,-9.7822,-9.7715,-9.7573,-9.743,-9.7211,-9.7175,-9.7137,-9.7175,-9.7359,-9.7432,-9.7395,-9.7579,-9.7353,-9.741,-9.7808,-9.827,-9.849,-9.8468,-9.8752,-9.7416,-9.5293,-9.3623,-9.2408,-9.1985,-9.1658,-9.1125,-9.0794,-9.0945,-9.1161,-9.1487,-9.1947,-9.2827,-9.3115,-9.3013,-9.2103,-9.0321,-7.2674,-7.2188,-7.3563,-7.3781,-7.3455,-7.482,-7.5118,-7.47,-7.5206,-7.5565,-7.5688,-7.5577,-7.5871,-7.6764,-7.7036,-7.7386,-7.692,-7.7464,-7.8046,-7.8631,-7.9543,-8.0218,-8.039,-8.0304,-8.0718,-8.131,-8.1504,-8.1504,-8.1504,-8.1504,-8.1504,-8.1504,-8.1504,-8.162,-8.1852,-8.2393,-8.2459,-8.2472,-8.3483,-8.3742,-8.3455,-8.3891,-8.3979,-8.3524,-8.3862,-8.4223,-8.4223,-8.3967,-8.373,-8.3751,-8.2967,-8.2911,-8.3388,-8.4109,-8.4889,-8.5781,-8.6771,-8.8059,-8.9349,-9.0265,-9.1083,-9.2003,-9.2682,-9.2988,-9.3099,-9.3508,-9.4214,-9.518,-9.6034,-9.6703,-9.7595,-9.7892,-9.7892,-9.7892,-9.7892,-9.7892,-9.7892,-9.7892,-9.7892,-9.7892,-9.7752,-9.7644,-9.7502,-9.7467,-9.7248,-9.71,-9.7211,-9.7433,-9.7581,-9.7691,-9.8023,-9.8278,-9.8529,-9.897,-9.9512,-10.0203,-10.0125,-10.0033,-9.8303,-9.6401,-9.4181,-9.302,-9.2631,-9.2056,-9.1485,-9.1227,-9.1206,-9.1534,-9.1711,-9.2116,-9.2608,-9.2912,-9.2997,-9.1436,-8.9865,-7.2812,-7.3805,-7.3442,-7.3574,-7.4145,-7.5089,-7.5354,-7.5167,-7.5322,-7.5772,-7.6164,-7.5776,-7.5988,-7.6726,-7.7036,-7.7192,-7.7619,-7.8046,-7.8611,-7.9931,-7.984,-8.06,-8.1112,-8.1141,-8.1296,-8.1504,-8.1504,-8.1504,-8.1504,-8.1504,-8.1504,-8.1504,-8.1542,-8.1852,-8.2471,-8.2677,-8.2873,-8.3048,-8.3866,-8.3933,-8.354,-8.4028,-8.4306,-8.4003,-8.4153,-8.4553,-8.4749,-8.4213,-8.4104,-8.4199,-8.3788,-8.343,-8.4094,-8.4889,-8.5669,-8.6622,-8.796,-8.9287,-9.0191,-9.1099,-9.1955,-9.2607,-9.2868,-9.2988,-9.2988,-9.3248,-9.4028,-9.5031,-9.5626,-9.6517,-9.7632,-9.7892,-9.7892,-9.7892,-9.7715,-9.7644,-9.7644,-9.7822,-9.7822,-9.7822,-9.7752,-9.7502,-9.7395,-9.7285,-9.7211,-9.7063,-9.7285,-9.7469,-9.7727,-9.7985,-9.8462,-9.8937,-9.9301,-9.9627,-10.0178,-10.0525,-10.0177,-9.9919,-9.8498,-9.6543,-9.4355,-9.3313,-9.2749,-9.2356,-9.1885,-9.1727,-9.1669,-9.1521,-9.1778,-9.2068,-9.2439,-9.2525,-9.2185,-9.0767,-8.9545,-7.3367,-7.3805,-7.408,-7.4247,-7.4339,-7.4724,-7.4872,-7.4939,-7.5249,-7.5659,-7.605,-7.6009,-7.6337,-7.6764,-7.7153,-7.7619,-7.8124,-7.8864,-7.9602,-8.0373,-8.0561,-8.1039,-8.1374,-8.1553,-8.1528,-8.1542,-8.1504,-8.1504,-8.1504,-8.1542,-8.1504,-8.1504,-8.1542,-8.1968,-8.2754,-8.305,-8.3179,-8.3397,-8.4136,-8.4225,-8.3578,-8.4077,-8.4695,-8.4656,-8.453,-8.4538,-8.5017,-8.4683,-8.4293,-8.4161,-8.4009,-8.4041,-8.4518,-8.5483,-8.6399,-8.7092,-8.853,-8.9858,-9.0677,-9.1497,-9.2279,-9.3007,-9.3054,-9.2988,-9.3248,-9.3582,-9.4437,-9.5328,-9.6108,-9.7037,-9.778,-9.7892,-9.7892,-9.7892,-9.7715,-9.7573,-9.7573,-9.761,-9.7681,-9.7681,-9.7573,-9.7502,-9.7395,-9.7396,-9.7321,-9.7358,-9.8241,-9.8425,-9.8051,-9.8382,-9.9044,-9.9517,-9.9958,-10.0319,-10.076,-10.0655,-9.9825,-9.9191,-9.8099,-9.5835,-9.3519,-9.3044,-9.2912,-9.245,-9.1908,-9.2225,-9.2131,-9.1981,-9.1831,-9.2489,-9.2676,-9.2221,-9.1314,-8.9952,-8.8887,-7.3718,-7.3397,-7.4691,-7.4753,-7.4194,-7.4305,-7.4373,-7.4321,-7.5193,-7.5701,-7.5721,-7.6379,-7.6609,-7.6881,-7.758,-7.8046,-7.8766,-7.9602,-8.0394,-8.0694,-8.1151,-8.1374,-8.1567,-8.1697,-8.1813,-8.1697,-8.1542,-8.1542,-8.1736,-8.1581,-8.1542,-8.1542,-8.1736,-8.2316,-8.2999,-8.3403,-8.3649,-8.3773,-8.425,-8.4352,-8.3688,-8.407,-8.4654,-8.5146,-8.5117,-8.4824,-8.5112,-8.4872,-8.4516,-8.3711,-8.4205,-8.4592,-8.5075,-8.5953,-8.7166,-8.7436,-8.9062,-9.0242,-9.115,-9.1933,-9.2588,-9.3146,-9.3054,-9.3099,-9.3471,-9.4214,-9.5031,-9.5923,-9.6777,-9.7706,-9.7892,-9.7892,-9.7892,-9.7822,-9.7644,-9.7573,-9.7502,-9.7395,-9.7285,-9.7539,-9.743,-9.7358,-9.7616,-9.7691,-9.7654,-9.78,-9.8756,-9.9305,-9.8929,-9.8924,-9.9622,-10.0252,-10.0613,-10.0716,-10.1002,-10.0336,-9.9604,-9.8641,-9.7652,-9.5602,-9.3168,-9.27,-9.2604,-9.2235,-9.2044,-9.2212,-9.2135,-9.185,-9.2052,-9.2861,-9.2304,-9.1137,-9.017,-8.9154,-8.8251,-7.3016,-7.4127,-7.3691,-7.3366,-7.3371,-7.4572,-7.4615,-7.4343,-7.5624,-7.6361,-7.642,-7.6612,-7.6687,-7.692,-7.7619,-7.8689,-7.968,-8.0415,-8.0777,-8.1174,-8.1514,-8.1504,-8.162,-8.2161,-8.2471,-8.2393,-8.2084,-8.2045,-8.2277,-8.1929,-8.1852,-8.1774,-8.2277,-8.3012,-8.367,-8.3966,-8.4108,-8.4125,-8.4191,-8.3907,-8.3777,-8.3974,-8.4665,-8.5512,-8.5733,-8.5612,-8.517,-8.4966,-8.474,-8.4493,-8.5023,-8.5669,-8.6213,-8.6757,-8.7637,-8.8876,-8.9967,-9.0961,-9.1672,-9.2625,-9.3016,-9.3091,-9.2988,-9.3397,-9.3842,-9.4325,-9.5217,-9.6331,-9.7223,-9.7892,-9.7892,-9.7892,-9.7822,-9.7644,-9.7502,-9.7285,-9.7138,-9.6989,-9.6989,-9.7248,-9.7248,-9.7285,-9.7507,-9.7838,-9.802,-9.8235,-9.9081,-9.9664,-9.9695,-9.9879,-10.0356,-10.0833,-10.1274,-10.1222,-10.1204,-10.0122,-9.9114,-9.8146,-9.6987,-9.5541,-9.3722,-9.27,-9.2193,-9.1792,-9.1682,-9.1846,-9.1782,-9.1632,-9.1647,-9.1913,-9.1001,-8.9792,-8.9282,-8.8766,-8.731,-7.2979,-7.3664,-7.3185,-7.2974,-7.3013,-7.3684,-7.3994,-7.4168,-7.5371,-7.6206,-7.6555,-7.669,-7.6687,-7.692,-7.7619,-7.8903,-8.0182,-8.0932,-8.1174,-8.1514,-8.1504,-8.1504,-8.1658,-8.2432,-8.3051,-8.3244,-8.3051,-8.3012,-8.3399,-8.3128,-8.278,-8.2973,-8.3322,-8.3902,-8.434,-8.4116,-8.4069,-8.4142,-8.4093,-8.3853,-8.3638,-8.4009,-8.506,-8.6123,-8.6087,-8.5767,-8.5788,-8.5507,-8.511,-8.4823,-8.5618,-8.6301,-8.6882,-8.7464,-8.8256,-8.9472,-9.0415,-9.1334,-9.197,-9.2811,-9.3221,-9.3025,-9.2988,-9.3397,-9.4065,-9.466,-9.5551,-9.6852,-9.7483,-9.7892,-9.7892,-9.7892,-9.7822,-9.7573,-9.743,-9.7211,-9.7026,-9.6875,-9.6948,-9.7136,-9.7136,-9.721,-9.7285,-9.7649,-9.8158,-9.8778,-9.9512,-9.9909,-10.0349,-10.0686,-10.098,-10.1046,-10.1295,-10.0943,-10.0687,-9.9786,-9.8587,-9.7534,-9.6585,-9.5226,-9.3887,-9.2825,-9.1877,-9.1169,-9.1228,-9.1493,-9.1392,-9.1175,-9.1054,-9.0905,-8.9962,-8.9149,-8.8798,-8.8078,-8.6632,-7.2857,-7.2822,-7.2701,-7.2757,-7.2863,-7.2967,-7.3509,-7.4304,-7.5236,-7.607,-7.6614,-7.6708,-7.6803,-7.7231,-7.8145,-7.933,-8.0683,-8.1352,-8.1499,-8.1567,-8.1774,-8.1813,-8.2045,-8.2819,-8.3747,-8.4327,-8.4946,-8.4637,-8.4289,-8.3979,-8.4057,-8.4018,-8.4134,-8.4598,-8.4959,-8.4502,-8.404,-8.4027,-8.4164,-8.3999,-8.3939,-8.4859,-8.6089,-8.7369,-8.643,-8.6309,-8.6499,-8.6532,-8.617,-8.5916,-8.6375,-8.7155,-8.7378,-8.8059,-8.8865,-8.9672,-9.0255,-9.1075,-9.2093,-9.2476,-9.2896,-9.2951,-9.2988,-9.3508,-9.4511,-9.5477,-9.648,-9.7595,-9.7892,-9.7892,-9.7892,-9.7822,-9.7752,-9.7502,-9.7358,-9.7211,-9.7208,-9.7203,-9.7309,-9.7386,-9.7126,-9.7276,-9.7536,-9.8051,-9.8668,-9.9402,-10.0136,-10.054,-10.0943,-10.1127,-10.131,-10.123,-10.1085,-10.0536,-10.0003,-9.9308,-9.8141,-9.6895,-9.617,-9.5215,-9.4014,-9.281,-9.1962,-9.1285,-9.0923,-9.1169,-9.0885,-9.0804,-9.074,-9.0352,-8.913,-8.8409,-8.8042,-8.7136,-8.5696,-7.195,-7.1952,-7.1885,-7.2197,-7.2849,-7.3569,-7.4284,-7.5077,-7.6032,-7.6575,-7.671,-7.6786,-7.7192,-7.8106,-7.9427,-8.0591,-8.1303,-8.1624,-8.1732,-8.1774,-8.2316,-8.2664,-8.2896,-8.4327,-8.4675,-8.5217,-8.6455,-8.6416,-8.5488,-8.4637,-8.4327,-8.4482,-8.4985,-8.5256,-8.541,-8.5048,-8.5113,-8.4971,-8.448,-8.4339,-8.4791,-8.6393,-8.7347,-8.7824,-8.8179,-8.8254,-8.7765,-8.781,-8.7734,-8.7663,-8.775,-8.8307,-8.8864,-8.905,-8.9607,-9.0031,-9.0317,-9.0814,-9.2466,-9.2672,-9.2607,-9.2914,-9.3128,-9.3842,-9.5202,-9.6616,-9.7515,-9.7743,-9.7892,-9.7892,-9.7822,-9.7752,-9.7573,-9.7432,-9.7322,-9.7467,-9.7533,-9.7864,-9.797,-9.819,-9.8154,-9.808,-9.8195,-9.8704,-9.9328,-10.0062,-10.0686,-10.109,-10.1347,-10.142,-10.1149,-10.0994,-10.0385,-9.9695,-9.8848,-9.8202,-9.7411,-9.6135,-9.5673,-9.5089,-9.4164,-9.3054,-9.2555,-9.1987,-9.1521,-9.1203,-9.1338,-9.1126,-9.069,-8.9962,-8.9019,-8.8175,-8.7276,-8.6072,-8.4864,-7.1794,-7.1771,-7.2205,-7.2513,-7.2965,-7.4131,-7.4925,-7.543,-7.6284,-7.671,-7.6806,-7.7252,-7.8163,-7.9388,-8.0282,-8.094,-8.1652,-8.2088,-8.2312,-8.2418,-8.3051,-8.3515,-8.3786,-8.4675,-8.5294,-8.5681,-8.6416,-8.6687,-8.6107,-8.6223,-8.6261,-8.6107,-8.6029,-8.6029,-8.5875,-8.5526,-8.5333,-8.5178,-8.5036,-8.5164,-8.5882,-8.6901,-8.7731,-8.8156,-8.8771,-8.888,-8.8918,-8.9104,-8.9071,-8.8952,-8.9124,-8.957,-8.9867,-9.0016,-9.0313,-9.1019,-9.0563,-9.1221,-9.2645,-9.2653,-9.2765,-9.3156,-9.3695,-9.4946,-9.6531,-9.7535,-9.8225,-9.8254,-9.7887,-9.7715,-9.7715,-9.7644,-9.743,-9.7285,-9.7395,-9.7686,-9.8011,-9.8411,-9.8704,-9.8961,-9.9181,-9.9108,-9.9108,-9.9512,-9.9916,-10.0283,-10.0833,-10.1237,-10.134,-10.1295,-10.0912,-10.0454,-9.9629,-9.8702,-9.7801,-9.6952,-9.6415,-9.5496,-9.5343,-9.4825,-9.4192,-9.3542,-9.3006,-9.2721,-9.2319,-9.2116,-9.1899,-9.1279,-9.0739,-8.9924,-8.8896,-8.7963,-8.7008,-8.5961,-8.4948,-7.1899,-7.2107,-7.2656,-7.3096,-7.3566,-7.4751,-7.541,-7.5837,-7.6399,-7.669,-7.698,-7.7813,-7.9212,-8.0398,-8.0747,-8.125,-8.1751,-8.2576,-8.2801,-8.3178,-8.3811,-8.4353,-8.4675,-8.5217,-8.5681,-8.5643,-8.6726,-8.6996,-8.719,-8.7345,-8.7538,-8.7577,-8.6687,-8.6571,-8.6416,-8.6068,-8.572,-8.572,-8.5681,-8.5925,-8.6528,-8.728,-8.8155,-8.8723,-8.9148,-8.9513,-9.002,-8.9871,-8.9756,-9.0041,-9.0079,-9.0313,-9.0387,-9.0647,-9.0982,-9.1502,-9.1279,-9.1762,-9.2579,-9.2765,-9.2951,-9.363,-9.4734,-9.6192,-9.7513,-9.8229,-9.8375,-9.8413,-9.8121,-9.7748,-9.7573,-9.7502,-9.7285,-9.7321,-9.7576,-9.7904,-9.8342,-9.8961,-9.9622,-10.0062,-10.0246,-10.0246,-10.0283,-10.0466,-10.065,-10.0686,-10.098,-10.142,-10.1376,-10.114,-10.061,-9.9995,-9.8989,-9.8096,-9.7164,-9.624,-9.5492,-9.4986,-9.4825,-9.4727,-9.4304,-9.3937,-9.3549,-9.3365,-9.3199,-9.3029,-9.2923,-9.1897,-9.0854,-8.9759,-8.8626,-8.7635,-8.6604,-8.5688,-8.508,-7.2273,-7.3016,-7.2974,-7.3806,-7.5133,-7.5351,-7.5876,-7.6477,-7.663,-7.6786,-7.7192,-7.8435,-7.9756,-8.0631,-8.1311,-8.1659,-8.1892,-8.2643,-8.3041,-8.3638,-8.4428,-8.5152,-8.5514,-8.5913,-8.6416,-8.6532,-8.7035,-8.7461,-8.7654,-8.7306,-8.7228,-8.6764,-8.6687,-8.6648,-8.6571,-8.6416,-8.63,-8.63,-8.6339,-8.6455,-8.7086,-8.7929,-8.9107,-8.987,-9.0375,-9.1059,-9.2504,-9.1206,-9.0456,-9.0942,-9.0839,-9.0647,-9.0796,-9.1316,-9.1762,-9.191,-9.2282,-9.2616,-9.2839,-9.2588,-9.2876,-9.416,-9.578,-9.7298,-9.8347,-9.8838,-9.8862,-9.8413,-9.8084,-9.778,-9.7393,-9.7138,-9.7063,-9.7467,-9.7867,-9.8488,-9.8998,-9.9769,-10.0429,-10.109,-10.12,-10.098,-10.0943,-10.1017,-10.1053,-10.1053,-10.109,-10.1494,-10.1075,-10.0765,-10.0042,-9.9378,-9.8344,-9.7491,-9.6834,-9.6012,-9.5234,-9.4722,-9.4522,-9.459,-9.4583,-9.4296,-9.4009,-9.4112,-9.4077,-9.3942,-9.3265,-9.1437,-8.9924,-8.9283,-8.8363,-8.7386,-8.6415,-8.54,-8.508,-7.4233,-7.5417,-7.482,-7.4919,-7.5478,-7.597,-7.6379,-7.6669,-7.6708,-7.7347,-7.8318,-7.9562,-8.0572,-8.131,-8.1679,-8.2145,-8.2668,-8.3423,-8.3923,-8.4731,-8.5575,-8.6093,-8.6352,-8.6365,-8.661,-8.6648,-8.6958,-8.7112,-8.6996,-8.6648,-8.6648,-8.6455,-8.6494,-8.661,-8.661,-8.6648,-8.6648,-8.661,-8.6687,-8.6776,-8.7494,-8.8344,-8.9338,-9.0063,-9.1467,-9.1721,-9.2087,-9.2002,-9.1647,-9.1433,-9.1537,-9.1398,-9.1343,-9.1985,-9.2356,-9.2393,-9.2839,-9.2951,-9.3025,-9.2802,-9.3509,-9.548,-9.7019,-9.8177,-9.9038,-9.9216,-9.8922,-9.8567,-9.8017,-9.7499,-9.7175,-9.71,-9.7173,-9.7573,-9.8231,-9.8961,-9.9622,-10.0356,-10.087,-10.131,-10.142,-10.1347,-10.1384,-10.142,-10.142,-10.1457,-10.1457,-10.134,-10.0884,-10.0354,-9.9713,-9.8953,-9.8002,-9.7264,-9.6531,-9.571,-9.4979,-9.4601,-9.4283,-9.4393,-9.4568,-9.4637,-9.4485,-9.4804,-9.4409,-9.3506,-9.2231,-9.0326,-8.9246,-8.8667,-8.8068,-8.7419,-8.6347,-8.5142,-8.4643,-7.4856,-7.6103,-7.5806,-7.5754,-7.5969,-7.6488,-7.6743,-7.6743,-7.6687,-7.7697,-7.9328,-8.0222,-8.1077,-8.1737,-8.1931,-8.234,-8.3097,-8.3892,-8.4704,-8.5452,-8.6141,-8.6635,-8.6687,-8.6559,-8.6455,-8.6339,-8.6184,-8.6184,-8.5797,-8.5268,-8.5346,-8.5733,-8.6159,-8.63,-8.6687,-8.688,-8.688,-8.6687,-8.6958,-8.7163,-8.7881,-8.8557,-8.9578,-9.0339,-9.1472,-9.2251,-9.218,-9.2083,-9.1739,-9.1665,-9.177,-9.1904,-9.2093,-9.2393,-9.2876,-9.2988,-9.2988,-9.2988,-9.2996,-9.3619,-9.4542,-9.6318,-9.744,-9.8592,-9.9346,-9.9158,-9.8778,-9.8402,-9.7743,-9.7175,-9.71,-9.7171,-9.7389,-9.7864,-9.8924,-9.9732,-10.0136,-10.076,-10.109,-10.1457,-10.1494,-10.1494,-10.1494,-10.1494,-10.1494,-10.1494,-10.1494,-10.1193,-10.0591,-10.0025,-9.9385,-9.8577,-9.7786,-9.7138,-9.644,-9.6322,-9.6089,-9.4773,-9.4495,-9.416,-9.4265,-9.4298,-9.414,-9.3842,-9.3215,-9.2575,-9.1072,-8.9213,-8.8435,-8.8206,-8.7434,-8.6441,-8.5854,-8.4789,-8.4172,-7.3765,-7.4505,-7.5363,-7.6118,-7.6741,-7.6786,-7.6793,-7.6816,-7.6937,-7.7813,-7.9328,-8.0261,-8.1116,-8.1776,-8.1892,-8.2398,-8.3136,-8.3971,-8.4785,-8.5574,-8.6382,-8.666,-8.6623,-8.6481,-8.6107,-8.5488,-8.5372,-8.5178,-8.4675,-8.4411,-8.4427,-8.4994,-8.5715,-8.6079,-8.6648,-8.7422,-8.7383,-8.6842,-8.7383,-8.7599,-8.8084,-8.8613,-8.9632,-9.0807,-9.1279,-9.1944,-9.2334,-9.1604,-9.1299,-9.1545,-9.1579,-9.1692,-9.1721,-9.2533,-9.2951,-9.2988,-9.2988,-9.2959,-9.2936,-9.4271,-9.5477,-9.6584,-9.7488,-9.8342,-9.8741,-9.8655,-9.8402,-9.8076,-9.7567,-9.7248,-9.721,-9.7346,-9.7676,-9.8484,-9.9622,-10.0283,-10.0686,-10.098,-10.131,-10.1494,-10.1494,-10.1494,-10.1494,-10.1494,-10.1494,-10.1494,-10.1494,-10.1156,-10.0546,-10.0052,-9.9557,-9.9121,-9.8434,-9.7794,-9.7432,-9.7633,-9.7202,-9.5661,-9.4636,-9.4315,-9.369,-9.3384,-9.3138,-9.2858,-9.194,-9.1006,-8.9475,-8.794,-8.7613,-8.7042,-8.6241,-8.5348,-8.482,-8.4381,-8.3789,-7.4466,-7.5285,-7.5596,-7.6169,-7.6897,-7.6908,-7.6825,-7.7026,-7.7909,-7.8746,-7.9523,-8.0766,-8.1543,-8.1854,-8.197,-8.2359,-8.3136,-8.399,-8.4805,-8.5639,-8.6467,-8.6669,-8.6596,-8.6172,-8.5759,-8.541,-8.5101,-8.4998,-8.532,-8.4242,-8.4824,-8.5621,-8.5831,-8.6314,-8.6571,-8.6958,-8.6803,-8.6687,-8.697,-8.7445,-8.8412,-8.8815,-8.9639,-9.1125,-9.1133,-9.1518,-9.2172,-9.1107,-9.114,-9.14,-9.1446,-9.1788,-9.1889,-9.2617,-9.3016,-9.3054,-9.3091,-9.3677,-9.4325,-9.5483,-9.5836,-9.6703,-9.739,-9.8076,-9.8555,-9.8273,-9.7942,-9.7636,-9.7319,-9.7211,-9.757,-9.7676,-9.8154,-9.9328,-10.0283,-10.065,-10.1017,-10.1237,-10.1494,-10.1494,-10.1494,-10.1494,-10.1494,-10.1494,-10.1494,-10.1494,-10.1494,-10.1616,-10.1184,-10.0772,-10.0312,-10.005,-9.9437,-9.8779,-9.837,-9.8428,-9.739,-9.5687,-9.4789,-9.4382,-9.369,-9.2755,-9.1992,-9.1702,-9.052,-8.9281,-8.8155,-8.7107,-8.6557,-8.5943,-8.5339,-8.508,-8.4966,-8.4294,-8.3342,-7.4739,-7.5285,-7.5908,-7.6493,-7.6948,-7.6922,-7.6825,-7.7088,-7.853,-7.929,-7.9678,-8.1116,-8.1892,-8.1892,-8.197,-8.232,-8.3136,-8.399,-8.4805,-8.5639,-8.6428,-8.6684,-8.6519,-8.599,-8.5676,-8.5312,-8.4643,-8.4316,-8.4626,-8.3764,-8.4426,-8.5738,-8.6258,-8.6275,-8.6532,-8.688,-8.6958,-8.6996,-8.724,-8.7814,-8.8343,-8.8784,-8.9459,-9.036,-9.0748,-9.0941,-9.1133,-9.1177,-9.1259,-9.1399,-9.1804,-9.2405,-9.2597,-9.2988,-9.3475,-9.3513,-9.38,-9.4597,-9.5582,-9.6322,-9.6683,-9.71,-9.7483,-9.7669,-9.7874,-9.7567,-9.7391,-9.7211,-9.6914,-9.7353,-9.775,-9.7933,-9.8888,-10.0062,-10.0686,-10.1053,-10.12,-10.1457,-10.1494,-10.1494,-10.1494,-10.1494,-10.1494,-10.1494,-10.1494,-10.1494,-10.145,-10.1607,-10.1794,-10.149,-10.1101,-10.0795,-10.0685,-10.0167,-9.957,-9.903,-9.7745,-9.5705,-9.489,-9.4163,-9.3003,-9.1968,-9.1338,-9.0477,-8.9318,-8.8134,-8.7167,-8.6378,-8.5791,-8.544,-8.5102,-8.5019,-8.508,-8.3998,-8.2736,-7.435,-7.4661,-7.622,-7.6921,-7.6987,-7.6922,-7.6809,-7.6881,-7.8552,-7.929,-7.9406,-8.1154,-8.1872,-8.1911,-8.1911,-8.2297,-8.3113,-8.3969,-8.469,-8.5561,-8.6376,-8.6693,-8.666,-8.6093,-8.5768,-8.5188,-8.4441,-8.3672,-8.354,-8.3881,-8.4699,-8.5482,-8.5816,-8.612,-8.6687,-8.7035,-8.7074,-8.7008,-8.7638,-8.7978,-8.8082,-8.8521,-8.9234,-8.9898,-9.0171,-9.0556,-9.0902,-9.1175,-9.1759,-9.2212,-9.2766,-9.3525,-9.4035,-9.4424,-9.4394,-9.4589,-9.4914,-9.5723,-9.6626,-9.7252,-9.7413,-9.7539,-9.71,-9.6877,-9.6838,-9.6952,-9.6952,-9.6987,-9.6946,-9.746,-9.786,-9.8668,-9.9475,-10.0319,-10.1017,-10.1274,-10.142,-10.1494,-10.1494,-10.1494,-10.1494,-10.1494,-10.1494,-10.1494,-10.1531,-10.1523,-10.1433,-10.1524,-10.1709,-10.217,-10.1888,-10.1681,-10.155,-10.1614,-10.0862,-9.9532,-9.7798,-9.5755,-9.4564,-9.3695,-9.2558,-9.1252,-9.0162,-8.9121,-8.801,-8.708,-8.659,-8.5899,-8.5338,-8.4988,-8.4926,-8.4697,-8.4643,-8.2981,-8.1757,-7.3843,-7.4505,-7.5635,-7.6403,-7.6871,-7.684,-7.6777,-7.692,-7.8513,-7.929,-7.9406,-8.1154,-8.1904,-8.1959,-8.1973,-8.2182,-8.2818,-8.3689,-8.4373,-8.5221,-8.6182,-8.7117,-8.7114,-8.6475,-8.6049,-8.5347,-8.4518,-8.3596,-8.3839,-8.4299,-8.5004,-8.5637,-8.5971,-8.6352,-8.6571,-8.688,-8.6842,-8.7008,-8.7803,-8.7833,-8.7889,-8.8328,-8.9079,-8.959,-8.9855,-9.0321,-9.0941,-9.1171,-9.1794,-9.245,-9.2783,-9.3403,-9.4159,-9.4364,-9.4545,-9.5214,-9.5857,-9.6667,-9.7742,-9.7792,-9.7815,-9.7964,-9.7319,-9.6838,-9.6722,-9.6722,-9.6722,-9.6795,-9.7199,-9.775,-9.8447,-9.9255,-10.0062,-10.0796,-10.131,-10.1384,-10.1494,-10.1494,-10.1494,-10.1494,-10.1494,-10.1494,-10.1494,-10.1494,-10.145,-10.1515,-10.1497,-10.1429,-10.166,-10.212,-10.2294,-10.2045,-10.1823,-10.1639,-10.0504,-9.9183,-9.746,-9.5798,-9.4433,-9.3072,-9.1702,-9.0323,-8.8952,-8.8155,-8.7526,-8.6917,-8.6149,-8.5791,-8.5663,-8.5235,-8.508,-8.4497,-8.3877,-8.2405,-8.1156,-7.3921,-7.4583,-7.6091,-7.6949,-7.7322,-7.7315,-7.7282,-7.7537,-7.8725,-7.9442,-7.9975,-8.1353,-8.1973,-8.2045,-8.2065,-8.2123,-8.2234,-8.3332,-8.415,-8.4869,-8.5923,-8.6841,-8.7044,-8.6687,-8.6125,-8.5532,-8.4935,-8.4193,-8.4364,-8.5013,-8.5754,-8.6277,-8.6576,-8.6584,-8.6726,-8.7035,-8.7202,-8.729,-8.7505,-8.761,-8.7858,-8.8135,-8.8694,-8.9321,-8.9542,-9.0163,-9.1056,-9.121,-9.1825,-9.2749,-9.3178,-9.3826,-9.4624,-9.5028,-9.5311,-9.6009,-9.6792,-9.7484,-9.8226,-9.861,-9.8467,-9.8142,-9.7567,-9.7138,-9.6762,-9.6722,-9.6722,-9.6795,-9.7493,-9.819,-9.8998,-9.9805,-10.0613,-10.1384,-10.142,-10.1457,-10.1494,-10.1494,-10.1494,-10.1494,-10.1494,-10.1494,-10.1494,-10.1413,-10.1368,-10.1277,-10.1184,-10.1041,-10.1465,-10.207,-10.2062,-10.1802,-10.1579,-10.1246,-9.9972,-9.8551,-9.6906,-9.5136,-9.3534,-9.2135,-9.0834,-8.9643,-8.8315,-8.7835,-8.7593,-8.6805,-8.626,-8.6588,-8.649,-8.5648,-8.468,-8.4122,-8.3311,-8.2159,-8.1104,-7.4283,-7.4466,-7.6949,-7.775,-7.8015,-7.7976,-7.8108,-7.8287,-7.9142,-7.989,-8.0728,-8.1688,-8.2182,-8.2137,-8.2104,-8.2115,-8.2398,-8.313,-8.3965,-8.4536,-8.5546,-8.6506,-8.6888,-8.6436,-8.6157,-8.5847,-8.5416,-8.4714,-8.5036,-8.5494,-8.6082,-8.6917,-8.6731,-8.6687,-8.6996,-8.7395,-8.7793,-8.821,-8.7996,-8.7827,-8.768,-8.7725,-8.8001,-8.8628,-8.9123,-8.9657,-9.0821,-9.1518,-9.2056,-9.3133,-9.3982,-9.4598,-9.5327,-9.5968,-9.6292,-9.6875,-9.7562,-9.8162,-9.8621,-9.8856,-9.8442,-9.8076,-9.7636,-9.7211,-9.6838,-9.6722,-9.6722,-9.7199,-9.786,-9.8668,-9.9475,-10.0209,-10.098,-10.1384,-10.1457,-10.1494,-10.1494,-10.1494,-10.1494,-10.1494,-10.1494,-10.1494,-10.1494,-10.1413,-10.125,-10.1121,-10.0907,-10.0724,-10.0878,-10.1552,-10.1501,-10.1341,-10.0828,-10.023,-9.8896,-9.7422,-9.6097,-9.4475,-9.2856,-9.112,-8.9773,-8.8584,-8.7561,-8.7487,-8.738,-8.6931,-8.6541,-8.6602,-8.6297,-8.4742,-8.3913,-8.3427,-8.2629,-8.1557,-8.0277,-7.3454,-7.3583,-7.5404,-7.6498,-7.7159,-7.7831,-7.8494,-7.9157,-8.0066,-8.0583,-8.0953,-8.2171,-8.2657,-8.2221,-8.2184,-8.2187,-8.2419,-8.289,-8.3821,-8.4635,-8.5517,-8.6315,-8.7001,-8.6628,-8.6293,-8.5885,-8.5534,-8.5371,-8.5808,-8.6014,-8.6138,-8.686,-8.6809,-8.6919,-8.7461,-8.7909,-8.8432,-8.903,-8.8784,-8.8104,-8.761,-8.8617,-8.9388,-8.92,-8.9277,-9.0047,-9.1091,-9.1902,-9.2633,-9.3557,-9.4364,-9.5099,-9.5864,-9.6393,-9.7069,-9.7731,-9.8133,-9.8552,-9.8781,-9.8674,-9.8067,-9.7738,-9.7319,-9.6952,-9.6762,-9.6722,-9.6979,-9.7603,-9.83,-9.9108,-9.9879,-10.0613,-10.12,-10.1347,-10.1494,-10.1494,-10.1494,-10.1494,-10.1494,-10.1494,-10.1494,-10.1494,-10.1413,-10.1332,-10.1085,-10.0918,-10.0664,-10.0442,-10.0091,-10.0382,-10.0341,-10.0124,-9.9694,-9.894,-9.7673,-9.6393,-9.5159,-9.3757,-9.2214,-9.0452,-8.8782,-8.8099,-8.757,-8.7443,-8.7241,-8.6369,-8.6117,-8.6508,-8.5792,-8.412,-8.334,-8.305,-8.1412,-8.0087,-7.9043,-7.3158,-7.3381,-7.5308,-7.6621,-7.7568,-7.8779,-7.9383,-7.976,-8.1222,-8.1738,-8.149,-8.2328,-8.2615,-8.2258,-8.2256,-8.225,-8.2378,-8.2675,-8.3665,-8.4645,-8.5312,-8.6242,-8.6596,-8.6789,-8.6897,-8.6567,-8.6353,-8.6417,-8.6814,-8.6585,-8.6644,-8.6943,-8.6994,-8.7422,-8.8014,-8.846,-8.9059,-8.9509,-8.9376,-8.8694,-8.7847,-8.8656,-8.9239,-8.9046,-8.9547,-9.0394,-9.1206,-9.2018,-9.2864,-9.3828,-9.4752,-9.5635,-9.6319,-9.6686,-9.756,-9.8211,-9.8605,-9.8664,-9.8777,-9.8365,-9.7567,-9.7247,-9.699,-9.6762,-9.6685,-9.6759,-9.7089,-9.7713,-9.8484,-9.9292,-10.0062,-10.0833,-10.12,-10.1457,-10.1494,-10.1494,-10.1494,-10.1494,-10.1494,-10.1494,-10.1494,-10.1413,-10.1332,-10.1085,-10.0918,-10.0664,-10.0492,-10.0355,-10.0002,-9.9386,-9.93,-9.893,-9.8584,-9.7753,-9.6586,-9.5349,-9.4202,-9.2842,-9.1529,-9.0325,-8.8927,-8.812,-8.7575,-8.7262,-8.6508,-8.5308,-8.5256,-8.5657,-8.5017,-8.337,-8.2932,-8.2566,-8.0841,-7.9099,-7.7737,-7.3429,-7.4012,-7.6067,-7.743,-7.8395,-7.9884,-8.0207,-8.0063,-8.2108,-8.2811,-8.2184,-8.2187,-8.2253,-8.231,-8.228,-8.228,-8.2397,-8.2655,-8.3561,-8.4224,-8.4788,-8.5586,-8.6321,-8.6826,-8.6737,-8.6962,-8.7023,-8.7369,-8.7816,-8.723,-8.6825,-8.6976,-8.7396,-8.7963,-8.8478,-8.9272,-9.0033,-8.9864,-8.9575,-8.9123,-8.87,-8.8469,-8.8777,-8.9162,-8.9662,-9.0509,-9.136,-9.2172,-9.3018,-9.4061,-9.5252,-9.6089,-9.6887,-9.7331,-9.8127,-9.8821,-9.869,-9.865,-9.8591,-9.8009,-9.7319,-9.6877,-9.6762,-9.6722,-9.6722,-9.7016,-9.7346,-9.8007,-9.8778,-9.9548,-10.0356,-10.0907,-10.1274,-10.1494,-10.1494,-10.1494,-10.1494,-10.1494,-10.1494,-10.1494,-10.1413,-10.1332,-10.1168,-10.1002,-10.0749,-10.0492,-10.0355,-10.0267,-10.0002,-9.9107,-9.8645,-9.803,-9.7384,-9.6448,-9.5372,-9.4545,-9.3452,-9.2048,-9.0777,-8.9939,-8.9259,-8.8802,-8.7842,-8.6649,-8.5673,-8.4838,-8.4185,-8.4154,-8.3389,-8.2703,-8.2882,-8.2657,-8.1083,-7.9262,-7.6971,-7.4414,-7.6319,-7.677,-7.7438,-7.835,-7.9411,-7.9726,-7.9961,-8.1664,-8.2389,-8.231,-8.2271,-8.2299,-8.2287,-8.2162,-8.2143,-8.226,-8.2569,-8.3011,-8.366,-8.4311,-8.4921,-8.5732,-8.6689,-8.6047,-8.6588,-8.7362,-8.7447,-8.7819,-8.7332,-8.698,-8.6954,-8.7578,-8.8246,-8.8934,-8.9763,-9.0365,-9.0224,-8.9965,-8.9517,-8.9556,-8.9325,-8.9133,-8.9556,-9.0171,-9.121,-9.221,-9.3018,-9.3828,-9.4792,-9.5862,-9.6657,-9.7336,-9.8051,-9.8884,-9.9193,-9.9054,-9.8819,-9.858,-9.7874,-9.7247,-9.6952,-9.6914,-9.6838,-9.7022,-9.7423,-9.7901,-9.8557,-9.9328,-9.9989,-10.0723,-10.1127,-10.1494,-10.1494,-10.1494,-10.1494,-10.1494,-10.1494,-10.1494,-10.1413,-10.1332,-10.125,-10.1168,-10.0918,-10.0578,-10.0442,-10.0267,-10.0215,-9.9876,-9.8978,-9.798,-9.7177,-9.6484,-9.5146,-9.4034,-9.3733,-9.2741,-9.1305,-9.0261,-8.9827,-8.9558,-8.9639,-8.8563,-8.6342,-8.5543,-8.488,-8.4175,-8.2684,-8.2445,-8.1984,-8.2841,-8.2653,-8.1175,-7.9293,-7.7047]}]]